<?xml version="1.0" encoding="UTF-8" standalone="no" ?>
<gpx xmlns="http://www.topografix.com/GPX/1/1" xmlns:xsi="http://www.w3.org/2001/XMLSchema-instance" xsi:schemaLocation="http://www.topografix.com/GPX/1/1 http://www.topografix.com/GPX/1/1/gpx.xsd" version="1.1" creator="VisuGPX - https://www.visugpx.com">
  <metadata>
    <name>sortie foret verte</name>
    <desc><![CDATA[parcours ludique en foret verte]]></desc>
  </metadata>
  <trk>
    <name><![CDATA[2018-07-08 18:02:39]]></name>
    <trkseg>
      <trkpt lat="49.4439" lon="1.08279">
        <ele>12.15</ele>
        <time>2018-07-08T13:58:52Z</time>
      </trkpt>
      <trkpt lat="49.44403" lon="1.08289">
        <ele>16.48</ele>
        <time>2018-07-08T13:58:56Z</time>
      </trkpt>
      <trkpt lat="49.44411" lon="1.08296">
        <ele>19.84</ele>
        <time>2018-07-08T13:58:59Z</time>
      </trkpt>
      <trkpt lat="49.44431" lon="1.08314">
        <ele>24.17</ele>
        <time>2018-07-08T13:59:06Z</time>
      </trkpt>
      <trkpt lat="49.44447" lon="1.08327">
        <ele>25.61</ele>
        <time>2018-07-08T13:59:11Z</time>
      </trkpt>
      <trkpt lat="49.44472" lon="1.08346">
        <ele>28.98</ele>
        <time>2018-07-08T13:59:18Z</time>
      </trkpt>
      <trkpt lat="49.44488" lon="1.08364">
        <ele>31.86</ele>
        <time>2018-07-08T13:59:25Z</time>
      </trkpt>
      <trkpt lat="49.44508" lon="1.08379">
        <ele>35.71</ele>
        <time>2018-07-08T13:59:31Z</time>
      </trkpt>
      <trkpt lat="49.4451" lon="1.08382">
        <ele>35.71</ele>
        <time>2018-07-08T13:59:32Z</time>
      </trkpt>
      <trkpt lat="49.44525" lon="1.08394">
        <ele>38.59</ele>
        <time>2018-07-08T13:59:37Z</time>
      </trkpt>
      <trkpt lat="49.44548" lon="1.08411">
        <ele>41.95</ele>
        <time>2018-07-08T13:59:44Z</time>
      </trkpt>
      <trkpt lat="49.44551" lon="1.08413">
        <ele>42.44</ele>
        <time>2018-07-08T13:59:45Z</time>
      </trkpt>
      <trkpt lat="49.4456" lon="1.08419">
        <ele>43.88</ele>
        <time>2018-07-08T13:59:48Z</time>
      </trkpt>
      <trkpt lat="49.44572" lon="1.08432">
        <ele>45.8</ele>
        <time>2018-07-08T13:59:53Z</time>
      </trkpt>
      <trkpt lat="49.44594" lon="1.08449">
        <ele>49.16</ele>
        <time>2018-07-08T14:00:00Z</time>
      </trkpt>
      <trkpt lat="49.44616" lon="1.08469">
        <ele>51.57</ele>
        <time>2018-07-08T14:00:08Z</time>
      </trkpt>
      <trkpt lat="49.44617" lon="1.08476">
        <ele>51.57</ele>
        <time>2018-07-08T14:00:10Z</time>
      </trkpt>
      <trkpt lat="49.44617" lon="1.08485">
        <ele>52.05</ele>
        <time>2018-07-08T14:00:11Z</time>
      </trkpt>
      <trkpt lat="49.44617" lon="1.08491">
        <ele>52.05</ele>
        <time>2018-07-08T14:00:12Z</time>
      </trkpt>
      <trkpt lat="49.4462" lon="1.08572">
        <ele>52.05</ele>
        <time>2018-07-08T14:00:25Z</time>
      </trkpt>
      <trkpt lat="49.44627" lon="1.08593">
        <ele>52.05</ele>
        <time>2018-07-08T14:00:30Z</time>
      </trkpt>
      <trkpt lat="49.44631" lon="1.08595">
        <ele>52.53</ele>
        <time>2018-07-08T14:00:31Z</time>
      </trkpt>
      <trkpt lat="49.44657" lon="1.08572">
        <ele>53.97</ele>
        <time>2018-07-08T14:00:40Z</time>
      </trkpt>
      <trkpt lat="49.44675" lon="1.08551">
        <ele>54.93</ele>
        <time>2018-07-08T14:00:46Z</time>
      </trkpt>
      <trkpt lat="49.44678" lon="1.08548">
        <ele>54.93</ele>
        <time>2018-07-08T14:00:47Z</time>
      </trkpt>
      <trkpt lat="49.44681" lon="1.08545">
        <ele>55.41</ele>
        <time>2018-07-08T14:00:48Z</time>
      </trkpt>
      <trkpt lat="49.44686" lon="1.08545">
        <ele>55.41</ele>
        <time>2018-07-08T14:00:49Z</time>
      </trkpt>
      <trkpt lat="49.44688" lon="1.08545">
        <ele>55.89</ele>
        <time>2018-07-08T14:00:50Z</time>
      </trkpt>
      <trkpt lat="49.44721" lon="1.08548">
        <ele>58.3</ele>
        <time>2018-07-08T14:01:02Z</time>
      </trkpt>
      <trkpt lat="49.44744" lon="1.08549">
        <ele>61.18</ele>
        <time>2018-07-08T14:01:11Z</time>
      </trkpt>
      <trkpt lat="49.44773" lon="1.08571">
        <ele>65.03</ele>
        <time>2018-07-08T14:01:22Z</time>
      </trkpt>
      <trkpt lat="49.44798" lon="1.08585">
        <ele>66.95</ele>
        <time>2018-07-08T14:01:31Z</time>
      </trkpt>
      <trkpt lat="49.448" lon="1.08586">
        <ele>66.95</ele>
        <time>2018-07-08T14:01:32Z</time>
      </trkpt>
      <trkpt lat="49.44803" lon="1.08587">
        <ele>66.95</ele>
        <time>2018-07-08T14:01:33Z</time>
      </trkpt>
      <trkpt lat="49.44831" lon="1.08605">
        <ele>70.31</ele>
        <time>2018-07-08T14:01:43Z</time>
      </trkpt>
      <trkpt lat="49.44867" lon="1.08606">
        <ele>72.72</ele>
        <time>2018-07-08T14:01:54Z</time>
      </trkpt>
      <trkpt lat="49.44911" lon="1.0861">
        <ele>75.12</ele>
        <time>2018-07-08T14:02:08Z</time>
      </trkpt>
      <trkpt lat="49.44951" lon="1.08611">
        <ele>78.48</ele>
        <time>2018-07-08T14:02:21Z</time>
      </trkpt>
      <trkpt lat="49.44981" lon="1.08607">
        <ele>80.41</ele>
        <time>2018-07-08T14:02:33Z</time>
      </trkpt>
      <trkpt lat="49.45012" lon="1.08604">
        <ele>83.29</ele>
        <time>2018-07-08T14:02:48Z</time>
      </trkpt>
      <trkpt lat="49.45039" lon="1.08603">
        <ele>85.69</ele>
        <time>2018-07-08T14:03:01Z</time>
      </trkpt>
      <trkpt lat="49.45073" lon="1.08601">
        <ele>88.1</ele>
        <time>2018-07-08T14:03:17Z</time>
      </trkpt>
      <trkpt lat="49.45101" lon="1.08599">
        <ele>90.98</ele>
        <time>2018-07-08T14:03:30Z</time>
      </trkpt>
      <trkpt lat="49.45131" lon="1.08599">
        <ele>94.35</ele>
        <time>2018-07-08T14:03:45Z</time>
      </trkpt>
      <trkpt lat="49.4517" lon="1.08595">
        <ele>97.23</ele>
        <time>2018-07-08T14:04:02Z</time>
      </trkpt>
      <trkpt lat="49.45199" lon="1.08597">
        <ele>100.6</ele>
        <time>2018-07-08T14:04:16Z</time>
      </trkpt>
      <trkpt lat="49.45227" lon="1.08598">
        <ele>103.48</ele>
        <time>2018-07-08T14:04:29Z</time>
      </trkpt>
      <trkpt lat="49.45259" lon="1.08591">
        <ele>106.84</ele>
        <time>2018-07-08T14:04:45Z</time>
      </trkpt>
      <trkpt lat="49.45261" lon="1.0859">
        <ele>106.84</ele>
        <time>2018-07-08T14:04:46Z</time>
      </trkpt>
      <trkpt lat="49.45287" lon="1.08582">
        <ele>110.21</ele>
        <time>2018-07-08T14:04:59Z</time>
      </trkpt>
      <trkpt lat="49.45313" lon="1.08581">
        <ele>113.57</ele>
        <time>2018-07-08T14:05:14Z</time>
      </trkpt>
      <trkpt lat="49.45325" lon="1.08591">
        <ele>114.05</ele>
        <time>2018-07-08T14:05:20Z</time>
      </trkpt>
      <trkpt lat="49.45328" lon="1.0859">
        <ele>114.53</ele>
        <time>2018-07-08T14:05:21Z</time>
      </trkpt>
      <trkpt lat="49.4533" lon="1.08588">
        <ele>115.01</ele>
        <time>2018-07-08T14:05:22Z</time>
      </trkpt>
      <trkpt lat="49.45356" lon="1.08549">
        <ele>118.38</ele>
        <time>2018-07-08T14:05:36Z</time>
      </trkpt>
      <trkpt lat="49.4538" lon="1.0851">
        <ele>121.26</ele>
        <time>2018-07-08T14:05:50Z</time>
      </trkpt>
      <trkpt lat="49.45402" lon="1.08472">
        <ele>124.15</ele>
        <time>2018-07-08T14:06:04Z</time>
      </trkpt>
      <trkpt lat="49.45424" lon="1.08432">
        <ele>127.03</ele>
        <time>2018-07-08T14:06:18Z</time>
      </trkpt>
      <trkpt lat="49.45454" lon="1.08388">
        <ele>129.92</ele>
        <time>2018-07-08T14:06:35Z</time>
      </trkpt>
      <trkpt lat="49.45484" lon="1.08355">
        <ele>132.8</ele>
        <time>2018-07-08T14:06:50Z</time>
      </trkpt>
      <trkpt lat="49.45517" lon="1.08324">
        <ele>136.16</ele>
        <time>2018-07-08T14:07:05Z</time>
      </trkpt>
      <trkpt lat="49.45546" lon="1.08293">
        <ele>139.53</ele>
        <time>2018-07-08T14:07:19Z</time>
      </trkpt>
      <trkpt lat="49.45576" lon="1.0826">
        <ele>142.41</ele>
        <time>2018-07-08T14:07:34Z</time>
      </trkpt>
      <trkpt lat="49.45612" lon="1.08239">
        <ele>144.34</ele>
        <time>2018-07-08T14:07:49Z</time>
      </trkpt>
      <trkpt lat="49.45651" lon="1.08248">
        <ele>145.78</ele>
        <time>2018-07-08T14:08:00Z</time>
      </trkpt>
      <trkpt lat="49.45699" lon="1.08267">
        <ele>146.74</ele>
        <time>2018-07-08T14:08:12Z</time>
      </trkpt>
      <trkpt lat="49.45708" lon="1.0827">
        <ele>146.74</ele>
        <time>2018-07-08T14:08:14Z</time>
      </trkpt>
      <trkpt lat="49.45712" lon="1.08271">
        <ele>146.74</ele>
        <time>2018-07-08T14:08:15Z</time>
      </trkpt>
      <trkpt lat="49.45797" lon="1.08287">
        <ele>148.66</ele>
        <time>2018-07-08T14:08:34Z</time>
      </trkpt>
      <trkpt lat="49.45854" lon="1.083">
        <ele>148.66</ele>
        <time>2018-07-08T14:08:48Z</time>
      </trkpt>
      <trkpt lat="49.45897" lon="1.08296">
        <ele>150.1</ele>
        <time>2018-07-08T14:08:58Z</time>
      </trkpt>
      <trkpt lat="49.45901" lon="1.08298">
        <ele>150.1</ele>
        <time>2018-07-08T14:08:59Z</time>
      </trkpt>
      <trkpt lat="49.45904" lon="1.08301">
        <ele>150.1</ele>
        <time>2018-07-08T14:09:00Z</time>
      </trkpt>
      <trkpt lat="49.45908" lon="1.08308">
        <ele>150.1</ele>
        <time>2018-07-08T14:09:01Z</time>
      </trkpt>
      <trkpt lat="49.4591" lon="1.08312">
        <ele>150.1</ele>
        <time>2018-07-08T14:09:02Z</time>
      </trkpt>
      <trkpt lat="49.4593" lon="1.08358">
        <ele>150.1</ele>
        <time>2018-07-08T14:09:10Z</time>
      </trkpt>
      <trkpt lat="49.45933" lon="1.08361">
        <ele>150.58</ele>
        <time>2018-07-08T14:09:11Z</time>
      </trkpt>
      <trkpt lat="49.45938" lon="1.08364">
        <ele>150.58</ele>
        <time>2018-07-08T14:09:12Z</time>
      </trkpt>
      <trkpt lat="49.45998" lon="1.08397">
        <ele>153.47</ele>
        <time>2018-07-08T14:09:27Z</time>
      </trkpt>
      <trkpt lat="49.46043" lon="1.08425">
        <ele>154.91</ele>
        <time>2018-07-08T14:09:39Z</time>
      </trkpt>
      <trkpt lat="49.46099" lon="1.08466">
        <ele>156.83</ele>
        <time>2018-07-08T14:09:54Z</time>
      </trkpt>
      <trkpt lat="49.46165" lon="1.08514">
        <ele>157.79</ele>
        <time>2018-07-08T14:10:11Z</time>
      </trkpt>
      <trkpt lat="49.46233" lon="1.08555">
        <ele>157.79</ele>
        <time>2018-07-08T14:10:27Z</time>
      </trkpt>
      <trkpt lat="49.46309" lon="1.0859">
        <ele>158.75</ele>
        <time>2018-07-08T14:10:44Z</time>
      </trkpt>
      <trkpt lat="49.46357" lon="1.08614">
        <ele>159.72</ele>
        <time>2018-07-08T14:10:55Z</time>
      </trkpt>
      <trkpt lat="49.46362" lon="1.08614">
        <ele>159.72</ele>
        <time>2018-07-08T14:10:56Z</time>
      </trkpt>
      <trkpt lat="49.46367" lon="1.08614">
        <ele>159.72</ele>
        <time>2018-07-08T14:10:57Z</time>
      </trkpt>
      <trkpt lat="49.46377" lon="1.08612">
        <ele>159.72</ele>
        <time>2018-07-08T14:10:59Z</time>
      </trkpt>
      <trkpt lat="49.46383" lon="1.08613">
        <ele>159.72</ele>
        <time>2018-07-08T14:11:00Z</time>
      </trkpt>
      <trkpt lat="49.46387" lon="1.08616">
        <ele>159.72</ele>
        <time>2018-07-08T14:11:01Z</time>
      </trkpt>
      <trkpt lat="49.46392" lon="1.0862">
        <ele>160.2</ele>
        <time>2018-07-08T14:11:02Z</time>
      </trkpt>
      <trkpt lat="49.46396" lon="1.08625">
        <ele>160.2</ele>
        <time>2018-07-08T14:11:03Z</time>
      </trkpt>
      <trkpt lat="49.46405" lon="1.08635">
        <ele>160.2</ele>
        <time>2018-07-08T14:11:05Z</time>
      </trkpt>
      <trkpt lat="49.4641" lon="1.08639">
        <ele>158.75</ele>
        <time>2018-07-08T14:11:06Z</time>
      </trkpt>
      <trkpt lat="49.465" lon="1.0868">
        <ele>155.87</ele>
        <time>2018-07-08T14:11:19Z</time>
      </trkpt>
      <trkpt lat="49.46521" lon="1.08692">
        <ele>154.91</ele>
        <time>2018-07-08T14:11:22Z</time>
      </trkpt>
      <trkpt lat="49.46527" lon="1.08698">
        <ele>154.91</ele>
        <time>2018-07-08T14:11:23Z</time>
      </trkpt>
      <trkpt lat="49.46557" lon="1.08753">
        <ele>154.91</ele>
        <time>2018-07-08T14:11:30Z</time>
      </trkpt>
      <trkpt lat="49.46599" lon="1.08833">
        <ele>158.27</ele>
        <time>2018-07-08T14:11:43Z</time>
      </trkpt>
      <trkpt lat="49.46617" lon="1.08855">
        <ele>159.24</ele>
        <time>2018-07-08T14:11:48Z</time>
      </trkpt>
      <trkpt lat="49.46695" lon="1.08918">
        <ele>162.12</ele>
        <time>2018-07-08T14:12:07Z</time>
      </trkpt>
      <trkpt lat="49.46774" lon="1.08952">
        <ele>164.04</ele>
        <time>2018-07-08T14:12:25Z</time>
      </trkpt>
      <trkpt lat="49.46833" lon="1.08987">
        <ele>164.04</ele>
        <time>2018-07-08T14:12:38Z</time>
      </trkpt>
      <trkpt lat="49.46862" lon="1.09008">
        <ele>164.04</ele>
        <time>2018-07-08T14:12:44Z</time>
      </trkpt>
      <trkpt lat="49.46866" lon="1.09013">
        <ele>164.04</ele>
        <time>2018-07-08T14:12:45Z</time>
      </trkpt>
      <trkpt lat="49.46869" lon="1.0902">
        <ele>164.04</ele>
        <time>2018-07-08T14:12:46Z</time>
      </trkpt>
      <trkpt lat="49.46876" lon="1.09034">
        <ele>164.04</ele>
        <time>2018-07-08T14:12:48Z</time>
      </trkpt>
      <trkpt lat="49.4688" lon="1.0904">
        <ele>164.04</ele>
        <time>2018-07-08T14:12:49Z</time>
      </trkpt>
      <trkpt lat="49.46884" lon="1.09044">
        <ele>164.04</ele>
        <time>2018-07-08T14:12:50Z</time>
      </trkpt>
      <trkpt lat="49.4689" lon="1.09046">
        <ele>164.04</ele>
        <time>2018-07-08T14:12:51Z</time>
      </trkpt>
      <trkpt lat="49.46895" lon="1.09046">
        <ele>164.04</ele>
        <time>2018-07-08T14:12:52Z</time>
      </trkpt>
      <trkpt lat="49.469" lon="1.09045">
        <ele>164.04</ele>
        <time>2018-07-08T14:12:53Z</time>
      </trkpt>
      <trkpt lat="49.46906" lon="1.09045">
        <ele>164.04</ele>
        <time>2018-07-08T14:12:54Z</time>
      </trkpt>
      <trkpt lat="49.46911" lon="1.09045">
        <ele>164.04</ele>
        <time>2018-07-08T14:12:55Z</time>
      </trkpt>
      <trkpt lat="49.46915" lon="1.09047">
        <ele>164.52</ele>
        <time>2018-07-08T14:12:56Z</time>
      </trkpt>
      <trkpt lat="49.4692" lon="1.09049">
        <ele>164.52</ele>
        <time>2018-07-08T14:12:57Z</time>
      </trkpt>
      <trkpt lat="49.46924" lon="1.09052">
        <ele>164.52</ele>
        <time>2018-07-08T14:12:58Z</time>
      </trkpt>
      <trkpt lat="49.46993" lon="1.09101">
        <ele>165.96</ele>
        <time>2018-07-08T14:13:14Z</time>
      </trkpt>
      <trkpt lat="49.47032" lon="1.09129">
        <ele>167.41</ele>
        <time>2018-07-08T14:13:24Z</time>
      </trkpt>
      <trkpt lat="49.47075" lon="1.09168">
        <ele>169.33</ele>
        <time>2018-07-08T14:13:36Z</time>
      </trkpt>
      <trkpt lat="49.47078" lon="1.09173">
        <ele>169.33</ele>
        <time>2018-07-08T14:13:37Z</time>
      </trkpt>
      <trkpt lat="49.4708" lon="1.09179">
        <ele>169.33</ele>
        <time>2018-07-08T14:13:38Z</time>
      </trkpt>
      <trkpt lat="49.47081" lon="1.09185">
        <ele>169.33</ele>
        <time>2018-07-08T14:13:39Z</time>
      </trkpt>
      <trkpt lat="49.47083" lon="1.09191">
        <ele>169.81</ele>
        <time>2018-07-08T14:13:40Z</time>
      </trkpt>
      <trkpt lat="49.47087" lon="1.09212">
        <ele>169.81</ele>
        <time>2018-07-08T14:13:43Z</time>
      </trkpt>
      <trkpt lat="49.47089" lon="1.09219">
        <ele>169.81</ele>
        <time>2018-07-08T14:13:44Z</time>
      </trkpt>
      <trkpt lat="49.47092" lon="1.09226">
        <ele>169.81</ele>
        <time>2018-07-08T14:13:45Z</time>
      </trkpt>
      <trkpt lat="49.47096" lon="1.09231">
        <ele>169.33</ele>
        <time>2018-07-08T14:13:46Z</time>
      </trkpt>
      <trkpt lat="49.471" lon="1.09235">
        <ele>169.33</ele>
        <time>2018-07-08T14:13:47Z</time>
      </trkpt>
      <trkpt lat="49.47105" lon="1.09237">
        <ele>169.81</ele>
        <time>2018-07-08T14:13:48Z</time>
      </trkpt>
      <trkpt lat="49.4711" lon="1.09237">
        <ele>169.81</ele>
        <time>2018-07-08T14:13:49Z</time>
      </trkpt>
      <trkpt lat="49.47115" lon="1.09236">
        <ele>169.81</ele>
        <time>2018-07-08T14:13:50Z</time>
      </trkpt>
      <trkpt lat="49.47119" lon="1.09234">
        <ele>170.29</ele>
        <time>2018-07-08T14:13:51Z</time>
      </trkpt>
      <trkpt lat="49.47123" lon="1.0923">
        <ele>170.29</ele>
        <time>2018-07-08T14:13:52Z</time>
      </trkpt>
      <trkpt lat="49.47126" lon="1.09226">
        <ele>170.29</ele>
        <time>2018-07-08T14:13:53Z</time>
      </trkpt>
      <trkpt lat="49.4713" lon="1.09221">
        <ele>170.29</ele>
        <time>2018-07-08T14:13:54Z</time>
      </trkpt>
      <trkpt lat="49.47134" lon="1.09218">
        <ele>170.29</ele>
        <time>2018-07-08T14:13:55Z</time>
      </trkpt>
      <trkpt lat="49.47137" lon="1.09216">
        <ele>170.29</ele>
        <time>2018-07-08T14:13:56Z</time>
      </trkpt>
      <trkpt lat="49.47141" lon="1.09213">
        <ele>170.77</ele>
        <time>2018-07-08T14:13:57Z</time>
      </trkpt>
      <trkpt lat="49.47146" lon="1.09212">
        <ele>170.77</ele>
        <time>2018-07-08T14:13:58Z</time>
      </trkpt>
      <trkpt lat="49.4715" lon="1.09212">
        <ele>170.77</ele>
        <time>2018-07-08T14:13:59Z</time>
      </trkpt>
      <trkpt lat="49.47154" lon="1.09213">
        <ele>170.77</ele>
        <time>2018-07-08T14:14:00Z</time>
      </trkpt>
      <trkpt lat="49.47158" lon="1.09214">
        <ele>171.25</ele>
        <time>2018-07-08T14:14:01Z</time>
      </trkpt>
      <trkpt lat="49.47163" lon="1.09215">
        <ele>171.25</ele>
        <time>2018-07-08T14:14:02Z</time>
      </trkpt>
      <trkpt lat="49.47167" lon="1.09216">
        <ele>172.21</ele>
        <time>2018-07-08T14:14:03Z</time>
      </trkpt>
      <trkpt lat="49.47242" lon="1.09234">
        <ele>174.14</ele>
        <time>2018-07-08T14:14:21Z</time>
      </trkpt>
      <trkpt lat="49.47323" lon="1.09254">
        <ele>176.06</ele>
        <time>2018-07-08T14:14:40Z</time>
      </trkpt>
      <trkpt lat="49.47391" lon="1.09254">
        <ele>177.98</ele>
        <time>2018-07-08T14:14:56Z</time>
      </trkpt>
      <trkpt lat="49.47408" lon="1.09253">
        <ele>178.46</ele>
        <time>2018-07-08T14:15:00Z</time>
      </trkpt>
      <trkpt lat="49.4749" lon="1.09255">
        <ele>178.94</ele>
        <time>2018-07-08T14:15:19Z</time>
      </trkpt>
      <trkpt lat="49.47573" lon="1.09273">
        <ele>180.38</ele>
        <time>2018-07-08T14:15:36Z</time>
      </trkpt>
      <trkpt lat="49.47652" lon="1.09296">
        <ele>180.87</ele>
        <time>2018-07-08T14:15:52Z</time>
      </trkpt>
      <trkpt lat="49.47657" lon="1.093">
        <ele>179.9</ele>
        <time>2018-07-08T14:15:53Z</time>
      </trkpt>
      <trkpt lat="49.47661" lon="1.09303">
        <ele>179.9</ele>
        <time>2018-07-08T14:15:54Z</time>
      </trkpt>
      <trkpt lat="49.47666" lon="1.09306">
        <ele>179.9</ele>
        <time>2018-07-08T14:15:55Z</time>
      </trkpt>
      <trkpt lat="49.4767" lon="1.09307">
        <ele>179.9</ele>
        <time>2018-07-08T14:15:56Z</time>
      </trkpt>
      <trkpt lat="49.47676" lon="1.09307">
        <ele>180.87</ele>
        <time>2018-07-08T14:15:57Z</time>
      </trkpt>
      <trkpt lat="49.47681" lon="1.09306">
        <ele>180.87</ele>
        <time>2018-07-08T14:15:58Z</time>
      </trkpt>
      <trkpt lat="49.47685" lon="1.09304">
        <ele>180.87</ele>
        <time>2018-07-08T14:15:59Z</time>
      </trkpt>
      <trkpt lat="49.4769" lon="1.09303">
        <ele>180.87</ele>
        <time>2018-07-08T14:16:00Z</time>
      </trkpt>
      <trkpt lat="49.47695" lon="1.09303">
        <ele>180.87</ele>
        <time>2018-07-08T14:16:01Z</time>
      </trkpt>
      <trkpt lat="49.47784" lon="1.09316">
        <ele>182.31</ele>
        <time>2018-07-08T14:16:19Z</time>
      </trkpt>
      <trkpt lat="49.47848" lon="1.09322">
        <ele>178.94</ele>
        <time>2018-07-08T14:16:31Z</time>
      </trkpt>
      <trkpt lat="49.47924" lon="1.09324">
        <ele>175.58</ele>
        <time>2018-07-08T14:16:43Z</time>
      </trkpt>
      <trkpt lat="49.47952" lon="1.09322">
        <ele>174.62</ele>
        <time>2018-07-08T14:16:47Z</time>
      </trkpt>
      <trkpt lat="49.4805" lon="1.09324">
        <ele>171.73</ele>
        <time>2018-07-08T14:17:01Z</time>
      </trkpt>
      <trkpt lat="49.48165" lon="1.09333">
        <ele>168.37</ele>
        <time>2018-07-08T14:17:17Z</time>
      </trkpt>
      <trkpt lat="49.48241" lon="1.09332">
        <ele>164.52</ele>
        <time>2018-07-08T14:17:27Z</time>
      </trkpt>
      <trkpt lat="49.48275" lon="1.09339">
        <ele>163.08</ele>
        <time>2018-07-08T14:17:31Z</time>
      </trkpt>
      <trkpt lat="49.48293" lon="1.09348">
        <ele>162.12</ele>
        <time>2018-07-08T14:17:33Z</time>
      </trkpt>
      <trkpt lat="49.4834" lon="1.09387">
        <ele>161.64</ele>
        <time>2018-07-08T14:17:42Z</time>
      </trkpt>
      <trkpt lat="49.48341" lon="1.09391">
        <ele>160.68</ele>
        <time>2018-07-08T14:17:45Z</time>
      </trkpt>
      <trkpt lat="49.48341" lon="1.09396">
        <ele>160.2</ele>
        <time>2018-07-08T14:17:46Z</time>
      </trkpt>
      <trkpt lat="49.48342" lon="1.09401">
        <ele>159.72</ele>
        <time>2018-07-08T14:17:47Z</time>
      </trkpt>
      <trkpt lat="49.48343" lon="1.09405">
        <ele>159.72</ele>
        <time>2018-07-08T14:17:48Z</time>
      </trkpt>
      <trkpt lat="49.48344" lon="1.09407">
        <ele>159.24</ele>
        <time>2018-07-08T14:17:49Z</time>
      </trkpt>
      <trkpt lat="49.48346" lon="1.0941">
        <ele>159.72</ele>
        <time>2018-07-08T14:17:50Z</time>
      </trkpt>
      <trkpt lat="49.48347" lon="1.09413">
        <ele>159.72</ele>
        <time>2018-07-08T14:17:51Z</time>
      </trkpt>
      <trkpt lat="49.4835" lon="1.0944">
        <ele>160.68</ele>
        <time>2018-07-08T14:18:01Z</time>
      </trkpt>
      <trkpt lat="49.48347" lon="1.09487">
        <ele>161.16</ele>
        <time>2018-07-08T14:18:10Z</time>
      </trkpt>
      <trkpt lat="49.48351" lon="1.09523">
        <ele>162.6</ele>
        <time>2018-07-08T14:18:17Z</time>
      </trkpt>
      <trkpt lat="49.48353" lon="1.09526">
        <ele>162.6</ele>
        <time>2018-07-08T14:18:18Z</time>
      </trkpt>
      <trkpt lat="49.48355" lon="1.0953">
        <ele>162.6</ele>
        <time>2018-07-08T14:18:19Z</time>
      </trkpt>
      <trkpt lat="49.48356" lon="1.09535">
        <ele>163.08</ele>
        <time>2018-07-08T14:18:20Z</time>
      </trkpt>
      <trkpt lat="49.48358" lon="1.09539">
        <ele>163.08</ele>
        <time>2018-07-08T14:18:21Z</time>
      </trkpt>
      <trkpt lat="49.4836" lon="1.09545">
        <ele>163.56</ele>
        <time>2018-07-08T14:18:22Z</time>
      </trkpt>
      <trkpt lat="49.48361" lon="1.09551">
        <ele>163.56</ele>
        <time>2018-07-08T14:18:23Z</time>
      </trkpt>
      <trkpt lat="49.48361" lon="1.09557">
        <ele>164.52</ele>
        <time>2018-07-08T14:18:24Z</time>
      </trkpt>
      <trkpt lat="49.4836" lon="1.09563">
        <ele>164.52</ele>
        <time>2018-07-08T14:18:25Z</time>
      </trkpt>
      <trkpt lat="49.48355" lon="1.09571">
        <ele>164.52</ele>
        <time>2018-07-08T14:18:27Z</time>
      </trkpt>
      <trkpt lat="49.48353" lon="1.09574">
        <ele>164.52</ele>
        <time>2018-07-08T14:18:28Z</time>
      </trkpt>
      <trkpt lat="49.48352" lon="1.09577">
        <ele>164.52</ele>
        <time>2018-07-08T14:18:29Z</time>
      </trkpt>
      <trkpt lat="49.48351" lon="1.09581">
        <ele>164.52</ele>
        <time>2018-07-08T14:18:30Z</time>
      </trkpt>
      <trkpt lat="49.48351" lon="1.09586">
        <ele>164.52</ele>
        <time>2018-07-08T14:18:31Z</time>
      </trkpt>
      <trkpt lat="49.48353" lon="1.0959">
        <ele>164.52</ele>
        <time>2018-07-08T14:18:32Z</time>
      </trkpt>
      <trkpt lat="49.48353" lon="1.09595">
        <ele>164.52</ele>
        <time>2018-07-08T14:18:33Z</time>
      </trkpt>
      <trkpt lat="49.48354" lon="1.096">
        <ele>164.52</ele>
        <time>2018-07-08T14:18:34Z</time>
      </trkpt>
      <trkpt lat="49.48357" lon="1.0963">
        <ele>164.52</ele>
        <time>2018-07-08T14:18:39Z</time>
      </trkpt>
      <trkpt lat="49.48359" lon="1.09635">
        <ele>164.52</ele>
        <time>2018-07-08T14:18:40Z</time>
      </trkpt>
      <trkpt lat="49.48361" lon="1.0964">
        <ele>165</ele>
        <time>2018-07-08T14:18:41Z</time>
      </trkpt>
      <trkpt lat="49.48367" lon="1.09686">
        <ele>165.96</ele>
        <time>2018-07-08T14:18:48Z</time>
      </trkpt>
      <trkpt lat="49.48369" lon="1.09694">
        <ele>166.45</ele>
        <time>2018-07-08T14:18:49Z</time>
      </trkpt>
      <trkpt lat="49.4837" lon="1.09701">
        <ele>166.45</ele>
        <time>2018-07-08T14:18:50Z</time>
      </trkpt>
      <trkpt lat="49.48372" lon="1.09708">
        <ele>166.45</ele>
        <time>2018-07-08T14:18:51Z</time>
      </trkpt>
      <trkpt lat="49.48376" lon="1.09731">
        <ele>166.93</ele>
        <time>2018-07-08T14:18:54Z</time>
      </trkpt>
      <trkpt lat="49.48392" lon="1.09794">
        <ele>168.85</ele>
        <time>2018-07-08T14:19:05Z</time>
      </trkpt>
      <trkpt lat="49.48406" lon="1.0982">
        <ele>170.29</ele>
        <time>2018-07-08T14:19:12Z</time>
      </trkpt>
      <trkpt lat="49.48405" lon="1.09825">
        <ele>170.29</ele>
        <time>2018-07-08T14:19:13Z</time>
      </trkpt>
      <trkpt lat="49.48404" lon="1.09829">
        <ele>170.29</ele>
        <time>2018-07-08T14:19:14Z</time>
      </trkpt>
      <trkpt lat="49.48402" lon="1.09834">
        <ele>170.29</ele>
        <time>2018-07-08T14:19:15Z</time>
      </trkpt>
      <trkpt lat="49.484" lon="1.0984">
        <ele>170.29</ele>
        <time>2018-07-08T14:19:16Z</time>
      </trkpt>
      <trkpt lat="49.48398" lon="1.09846">
        <ele>170.29</ele>
        <time>2018-07-08T14:19:17Z</time>
      </trkpt>
      <trkpt lat="49.48397" lon="1.09852">
        <ele>170.29</ele>
        <time>2018-07-08T14:19:18Z</time>
      </trkpt>
      <trkpt lat="49.48398" lon="1.09859">
        <ele>170.29</ele>
        <time>2018-07-08T14:19:19Z</time>
      </trkpt>
      <trkpt lat="49.484" lon="1.09865">
        <ele>170.29</ele>
        <time>2018-07-08T14:19:20Z</time>
      </trkpt>
      <trkpt lat="49.48403" lon="1.0987">
        <ele>170.29</ele>
        <time>2018-07-08T14:19:21Z</time>
      </trkpt>
      <trkpt lat="49.48406" lon="1.09877">
        <ele>170.29</ele>
        <time>2018-07-08T14:19:22Z</time>
      </trkpt>
      <trkpt lat="49.48408" lon="1.09882">
        <ele>170.29</ele>
        <time>2018-07-08T14:19:23Z</time>
      </trkpt>
      <trkpt lat="49.48411" lon="1.09887">
        <ele>170.29</ele>
        <time>2018-07-08T14:19:24Z</time>
      </trkpt>
      <trkpt lat="49.48415" lon="1.09892">
        <ele>170.29</ele>
        <time>2018-07-08T14:19:25Z</time>
      </trkpt>
      <trkpt lat="49.48418" lon="1.09895">
        <ele>170.29</ele>
        <time>2018-07-08T14:19:26Z</time>
      </trkpt>
      <trkpt lat="49.48422" lon="1.09898">
        <ele>170.29</ele>
        <time>2018-07-08T14:19:27Z</time>
      </trkpt>
      <trkpt lat="49.48426" lon="1.099">
        <ele>170.29</ele>
        <time>2018-07-08T14:19:28Z</time>
      </trkpt>
      <trkpt lat="49.48429" lon="1.09902">
        <ele>170.29</ele>
        <time>2018-07-08T14:19:29Z</time>
      </trkpt>
      <trkpt lat="49.48433" lon="1.09903">
        <ele>170.77</ele>
        <time>2018-07-08T14:19:30Z</time>
      </trkpt>
      <trkpt lat="49.48437" lon="1.09904">
        <ele>170.77</ele>
        <time>2018-07-08T14:19:31Z</time>
      </trkpt>
      <trkpt lat="49.4844" lon="1.09906">
        <ele>170.77</ele>
        <time>2018-07-08T14:19:32Z</time>
      </trkpt>
      <trkpt lat="49.48444" lon="1.0991">
        <ele>171.25</ele>
        <time>2018-07-08T14:19:33Z</time>
      </trkpt>
      <trkpt lat="49.48448" lon="1.09913">
        <ele>171.25</ele>
        <time>2018-07-08T14:19:34Z</time>
      </trkpt>
      <trkpt lat="49.48482" lon="1.09921">
        <ele>173.17</ele>
        <time>2018-07-08T14:19:43Z</time>
      </trkpt>
      <trkpt lat="49.48494" lon="1.09922">
        <ele>173.66</ele>
        <time>2018-07-08T14:19:46Z</time>
      </trkpt>
      <trkpt lat="49.48498" lon="1.09925">
        <ele>173.66</ele>
        <time>2018-07-08T14:19:47Z</time>
      </trkpt>
      <trkpt lat="49.48527" lon="1.09957">
        <ele>173.66</ele>
        <time>2018-07-08T14:19:56Z</time>
      </trkpt>
      <trkpt lat="49.48531" lon="1.09958">
        <ele>173.66</ele>
        <time>2018-07-08T14:19:57Z</time>
      </trkpt>
      <trkpt lat="49.48535" lon="1.09959">
        <ele>173.66</ele>
        <time>2018-07-08T14:19:58Z</time>
      </trkpt>
      <trkpt lat="49.48539" lon="1.09962">
        <ele>173.66</ele>
        <time>2018-07-08T14:19:59Z</time>
      </trkpt>
      <trkpt lat="49.48543" lon="1.09963">
        <ele>174.14</ele>
        <time>2018-07-08T14:20:00Z</time>
      </trkpt>
      <trkpt lat="49.48546" lon="1.09963">
        <ele>174.14</ele>
        <time>2018-07-08T14:20:01Z</time>
      </trkpt>
      <trkpt lat="49.4855" lon="1.09964">
        <ele>174.14</ele>
        <time>2018-07-08T14:20:02Z</time>
      </trkpt>
      <trkpt lat="49.48553" lon="1.09965">
        <ele>174.14</ele>
        <time>2018-07-08T14:20:03Z</time>
      </trkpt>
      <trkpt lat="49.48555" lon="1.09965">
        <ele>174.14</ele>
        <time>2018-07-08T14:20:04Z</time>
      </trkpt>
      <trkpt lat="49.48559" lon="1.09963">
        <ele>174.62</ele>
        <time>2018-07-08T14:20:06Z</time>
      </trkpt>
      <trkpt lat="49.48561" lon="1.09962">
        <ele>174.62</ele>
        <time>2018-07-08T14:20:07Z</time>
      </trkpt>
      <trkpt lat="49.48563" lon="1.09961">
        <ele>174.62</ele>
        <time>2018-07-08T14:20:08Z</time>
      </trkpt>
      <trkpt lat="49.48565" lon="1.09961">
        <ele>174.62</ele>
        <time>2018-07-08T14:20:09Z</time>
      </trkpt>
      <trkpt lat="49.48565" lon="1.09964">
        <ele>174.62</ele>
        <time>2018-07-08T14:20:10Z</time>
      </trkpt>
      <trkpt lat="49.48565" lon="1.09967">
        <ele>174.62</ele>
        <time>2018-07-08T14:20:11Z</time>
      </trkpt>
      <trkpt lat="49.48566" lon="1.09971">
        <ele>174.62</ele>
        <time>2018-07-08T14:20:12Z</time>
      </trkpt>
      <trkpt lat="49.48569" lon="1.09975">
        <ele>174.62</ele>
        <time>2018-07-08T14:20:13Z</time>
      </trkpt>
      <trkpt lat="49.48573" lon="1.09978">
        <ele>174.62</ele>
        <time>2018-07-08T14:20:14Z</time>
      </trkpt>
      <trkpt lat="49.48576" lon="1.09979">
        <ele>175.1</ele>
        <time>2018-07-08T14:20:15Z</time>
      </trkpt>
      <trkpt lat="49.4858" lon="1.09981">
        <ele>175.1</ele>
        <time>2018-07-08T14:20:16Z</time>
      </trkpt>
      <trkpt lat="49.48606" lon="1.09991">
        <ele>175.58</ele>
        <time>2018-07-08T14:20:22Z</time>
      </trkpt>
      <trkpt lat="49.4861" lon="1.09993">
        <ele>175.58</ele>
        <time>2018-07-08T14:20:23Z</time>
      </trkpt>
      <trkpt lat="49.4863" lon="1.10002">
        <ele>176.06</ele>
        <time>2018-07-08T14:20:28Z</time>
      </trkpt>
      <trkpt lat="49.48633" lon="1.10006">
        <ele>176.06</ele>
        <time>2018-07-08T14:20:29Z</time>
      </trkpt>
      <trkpt lat="49.48639" lon="1.10013">
        <ele>176.06</ele>
        <time>2018-07-08T14:20:31Z</time>
      </trkpt>
      <trkpt lat="49.4866" lon="1.10016">
        <ele>176.06</ele>
        <time>2018-07-08T14:20:36Z</time>
      </trkpt>
      <trkpt lat="49.4867" lon="1.10018">
        <ele>176.06</ele>
        <time>2018-07-08T14:20:38Z</time>
      </trkpt>
      <trkpt lat="49.48674" lon="1.10017">
        <ele>176.06</ele>
        <time>2018-07-08T14:20:39Z</time>
      </trkpt>
      <trkpt lat="49.48679" lon="1.10014">
        <ele>176.06</ele>
        <time>2018-07-08T14:20:40Z</time>
      </trkpt>
      <trkpt lat="49.48682" lon="1.1001">
        <ele>176.06</ele>
        <time>2018-07-08T14:20:41Z</time>
      </trkpt>
      <trkpt lat="49.48685" lon="1.10005">
        <ele>176.06</ele>
        <time>2018-07-08T14:20:42Z</time>
      </trkpt>
      <trkpt lat="49.48689" lon="1.10003">
        <ele>176.06</ele>
        <time>2018-07-08T14:20:43Z</time>
      </trkpt>
      <trkpt lat="49.48693" lon="1.10002">
        <ele>176.06</ele>
        <time>2018-07-08T14:20:44Z</time>
      </trkpt>
      <trkpt lat="49.48697" lon="1.10001">
        <ele>175.58</ele>
        <time>2018-07-08T14:20:45Z</time>
      </trkpt>
      <trkpt lat="49.487" lon="1.09998">
        <ele>175.58</ele>
        <time>2018-07-08T14:20:46Z</time>
      </trkpt>
      <trkpt lat="49.48703" lon="1.09993">
        <ele>175.58</ele>
        <time>2018-07-08T14:20:47Z</time>
      </trkpt>
      <trkpt lat="49.48707" lon="1.09989">
        <ele>175.58</ele>
        <time>2018-07-08T14:20:48Z</time>
      </trkpt>
      <trkpt lat="49.4871" lon="1.09986">
        <ele>175.58</ele>
        <time>2018-07-08T14:20:49Z</time>
      </trkpt>
      <trkpt lat="49.48713" lon="1.09981">
        <ele>175.58</ele>
        <time>2018-07-08T14:20:50Z</time>
      </trkpt>
      <trkpt lat="49.48717" lon="1.09976">
        <ele>175.58</ele>
        <time>2018-07-08T14:20:51Z</time>
      </trkpt>
      <trkpt lat="49.48719" lon="1.0997">
        <ele>175.58</ele>
        <time>2018-07-08T14:20:52Z</time>
      </trkpt>
      <trkpt lat="49.48722" lon="1.09965">
        <ele>175.58</ele>
        <time>2018-07-08T14:20:53Z</time>
      </trkpt>
      <trkpt lat="49.48727" lon="1.09961">
        <ele>175.58</ele>
        <time>2018-07-08T14:20:54Z</time>
      </trkpt>
      <trkpt lat="49.4873" lon="1.09958">
        <ele>175.58</ele>
        <time>2018-07-08T14:20:55Z</time>
      </trkpt>
      <trkpt lat="49.48735" lon="1.09955">
        <ele>175.58</ele>
        <time>2018-07-08T14:20:56Z</time>
      </trkpt>
      <trkpt lat="49.48739" lon="1.09954">
        <ele>175.58</ele>
        <time>2018-07-08T14:20:57Z</time>
      </trkpt>
      <trkpt lat="49.48743" lon="1.09954">
        <ele>175.58</ele>
        <time>2018-07-08T14:20:58Z</time>
      </trkpt>
      <trkpt lat="49.48748" lon="1.09955">
        <ele>175.58</ele>
        <time>2018-07-08T14:20:59Z</time>
      </trkpt>
      <trkpt lat="49.48752" lon="1.09955">
        <ele>176.06</ele>
        <time>2018-07-08T14:21:00Z</time>
      </trkpt>
      <trkpt lat="49.48756" lon="1.09953">
        <ele>176.06</ele>
        <time>2018-07-08T14:21:01Z</time>
      </trkpt>
      <trkpt lat="49.48771" lon="1.09949">
        <ele>176.06</ele>
        <time>2018-07-08T14:21:04Z</time>
      </trkpt>
      <trkpt lat="49.48775" lon="1.09951">
        <ele>176.06</ele>
        <time>2018-07-08T14:21:05Z</time>
      </trkpt>
      <trkpt lat="49.48779" lon="1.09953">
        <ele>176.06</ele>
        <time>2018-07-08T14:21:06Z</time>
      </trkpt>
      <trkpt lat="49.48784" lon="1.09952">
        <ele>176.06</ele>
        <time>2018-07-08T14:21:07Z</time>
      </trkpt>
      <trkpt lat="49.48788" lon="1.0995">
        <ele>176.06</ele>
        <time>2018-07-08T14:21:08Z</time>
      </trkpt>
      <trkpt lat="49.48791" lon="1.09949">
        <ele>176.06</ele>
        <time>2018-07-08T14:21:09Z</time>
      </trkpt>
      <trkpt lat="49.48795" lon="1.09949">
        <ele>176.06</ele>
        <time>2018-07-08T14:21:10Z</time>
      </trkpt>
      <trkpt lat="49.48799" lon="1.0995">
        <ele>176.06</ele>
        <time>2018-07-08T14:21:11Z</time>
      </trkpt>
      <trkpt lat="49.48803" lon="1.09949">
        <ele>176.54</ele>
        <time>2018-07-08T14:21:12Z</time>
      </trkpt>
      <trkpt lat="49.48806" lon="1.09948">
        <ele>176.54</ele>
        <time>2018-07-08T14:21:13Z</time>
      </trkpt>
      <trkpt lat="49.48809" lon="1.09947">
        <ele>176.54</ele>
        <time>2018-07-08T14:21:14Z</time>
      </trkpt>
      <trkpt lat="49.48813" lon="1.09947">
        <ele>176.54</ele>
        <time>2018-07-08T14:21:15Z</time>
      </trkpt>
      <trkpt lat="49.48817" lon="1.09946">
        <ele>176.54</ele>
        <time>2018-07-08T14:21:16Z</time>
      </trkpt>
      <trkpt lat="49.48822" lon="1.09945">
        <ele>176.54</ele>
        <time>2018-07-08T14:21:17Z</time>
      </trkpt>
      <trkpt lat="49.48825" lon="1.09944">
        <ele>177.02</ele>
        <time>2018-07-08T14:21:18Z</time>
      </trkpt>
      <trkpt lat="49.48829" lon="1.09942">
        <ele>177.02</ele>
        <time>2018-07-08T14:21:19Z</time>
      </trkpt>
      <trkpt lat="49.48833" lon="1.0994">
        <ele>177.02</ele>
        <time>2018-07-08T14:21:20Z</time>
      </trkpt>
      <trkpt lat="49.48837" lon="1.09938">
        <ele>177.02</ele>
        <time>2018-07-08T14:21:21Z</time>
      </trkpt>
      <trkpt lat="49.48842" lon="1.09937">
        <ele>177.02</ele>
        <time>2018-07-08T14:21:22Z</time>
      </trkpt>
      <trkpt lat="49.48847" lon="1.09936">
        <ele>177.02</ele>
        <time>2018-07-08T14:21:23Z</time>
      </trkpt>
      <trkpt lat="49.48862" lon="1.09935">
        <ele>177.02</ele>
        <time>2018-07-08T14:21:26Z</time>
      </trkpt>
      <trkpt lat="49.48886" lon="1.09934">
        <ele>176.54</ele>
        <time>2018-07-08T14:21:30Z</time>
      </trkpt>
      <trkpt lat="49.48892" lon="1.09934">
        <ele>176.54</ele>
        <time>2018-07-08T14:21:31Z</time>
      </trkpt>
      <trkpt lat="49.48898" lon="1.09934">
        <ele>176.54</ele>
        <time>2018-07-08T14:21:32Z</time>
      </trkpt>
      <trkpt lat="49.48905" lon="1.09933">
        <ele>176.54</ele>
        <time>2018-07-08T14:21:33Z</time>
      </trkpt>
      <trkpt lat="49.48911" lon="1.09932">
        <ele>176.54</ele>
        <time>2018-07-08T14:21:34Z</time>
      </trkpt>
      <trkpt lat="49.48925" lon="1.09929">
        <ele>175.1</ele>
        <time>2018-07-08T14:21:36Z</time>
      </trkpt>
      <trkpt lat="49.4893" lon="1.09928">
        <ele>175.1</ele>
        <time>2018-07-08T14:21:37Z</time>
      </trkpt>
      <trkpt lat="49.48936" lon="1.09928">
        <ele>175.1</ele>
        <time>2018-07-08T14:21:38Z</time>
      </trkpt>
      <trkpt lat="49.4894" lon="1.0993">
        <ele>174.62</ele>
        <time>2018-07-08T14:21:39Z</time>
      </trkpt>
      <trkpt lat="49.48945" lon="1.09933">
        <ele>174.62</ele>
        <time>2018-07-08T14:21:40Z</time>
      </trkpt>
      <trkpt lat="49.4895" lon="1.09936">
        <ele>173.66</ele>
        <time>2018-07-08T14:21:41Z</time>
      </trkpt>
      <trkpt lat="49.48955" lon="1.09937">
        <ele>173.66</ele>
        <time>2018-07-08T14:21:42Z</time>
      </trkpt>
      <trkpt lat="49.48961" lon="1.09938">
        <ele>174.14</ele>
        <time>2018-07-08T14:21:43Z</time>
      </trkpt>
      <trkpt lat="49.48972" lon="1.09938">
        <ele>173.66</ele>
        <time>2018-07-08T14:21:45Z</time>
      </trkpt>
      <trkpt lat="49.48978" lon="1.09938">
        <ele>173.66</ele>
        <time>2018-07-08T14:21:46Z</time>
      </trkpt>
      <trkpt lat="49.48983" lon="1.09941">
        <ele>173.17</ele>
        <time>2018-07-08T14:21:47Z</time>
      </trkpt>
      <trkpt lat="49.48985" lon="1.09947">
        <ele>172.69</ele>
        <time>2018-07-08T14:21:48Z</time>
      </trkpt>
      <trkpt lat="49.48986" lon="1.09954">
        <ele>172.69</ele>
        <time>2018-07-08T14:21:49Z</time>
      </trkpt>
      <trkpt lat="49.48986" lon="1.09959">
        <ele>173.17</ele>
        <time>2018-07-08T14:21:50Z</time>
      </trkpt>
      <trkpt lat="49.48985" lon="1.09966">
        <ele>172.69</ele>
        <time>2018-07-08T14:21:51Z</time>
      </trkpt>
      <trkpt lat="49.48987" lon="1.0997">
        <ele>172.69</ele>
        <time>2018-07-08T14:21:52Z</time>
      </trkpt>
      <trkpt lat="49.48989" lon="1.09974">
        <ele>172.69</ele>
        <time>2018-07-08T14:21:53Z</time>
      </trkpt>
      <trkpt lat="49.48991" lon="1.0998">
        <ele>172.69</ele>
        <time>2018-07-08T14:21:54Z</time>
      </trkpt>
      <trkpt lat="49.48992" lon="1.09986">
        <ele>172.69</ele>
        <time>2018-07-08T14:21:55Z</time>
      </trkpt>
      <trkpt lat="49.48992" lon="1.09992">
        <ele>172.69</ele>
        <time>2018-07-08T14:21:56Z</time>
      </trkpt>
      <trkpt lat="49.48991" lon="1.09999">
        <ele>174.14</ele>
        <time>2018-07-08T14:21:57Z</time>
      </trkpt>
      <trkpt lat="49.48991" lon="1.10006">
        <ele>174.14</ele>
        <time>2018-07-08T14:21:58Z</time>
      </trkpt>
      <trkpt lat="49.4899" lon="1.10054">
        <ele>175.58</ele>
        <time>2018-07-08T14:22:06Z</time>
      </trkpt>
      <trkpt lat="49.48989" lon="1.10062">
        <ele>175.58</ele>
        <time>2018-07-08T14:22:07Z</time>
      </trkpt>
      <trkpt lat="49.48989" lon="1.10069">
        <ele>175.58</ele>
        <time>2018-07-08T14:22:08Z</time>
      </trkpt>
      <trkpt lat="49.4899" lon="1.10075">
        <ele>175.58</ele>
        <time>2018-07-08T14:22:09Z</time>
      </trkpt>
      <trkpt lat="49.48991" lon="1.1008">
        <ele>175.58</ele>
        <time>2018-07-08T14:22:10Z</time>
      </trkpt>
      <trkpt lat="49.48991" lon="1.10087">
        <ele>175.58</ele>
        <time>2018-07-08T14:22:11Z</time>
      </trkpt>
      <trkpt lat="49.48991" lon="1.10093">
        <ele>175.58</ele>
        <time>2018-07-08T14:22:12Z</time>
      </trkpt>
      <trkpt lat="49.48991" lon="1.101">
        <ele>175.58</ele>
        <time>2018-07-08T14:22:13Z</time>
      </trkpt>
      <trkpt lat="49.48991" lon="1.10108">
        <ele>175.58</ele>
        <time>2018-07-08T14:22:14Z</time>
      </trkpt>
      <trkpt lat="49.48997" lon="1.10174">
        <ele>176.54</ele>
        <time>2018-07-08T14:22:24Z</time>
      </trkpt>
      <trkpt lat="49.48998" lon="1.10182">
        <ele>176.54</ele>
        <time>2018-07-08T14:22:25Z</time>
      </trkpt>
      <trkpt lat="49.49" lon="1.10196">
        <ele>177.02</ele>
        <time>2018-07-08T14:22:27Z</time>
      </trkpt>
      <trkpt lat="49.49001" lon="1.10202">
        <ele>177.02</ele>
        <time>2018-07-08T14:22:28Z</time>
      </trkpt>
      <trkpt lat="49.49002" lon="1.10208">
        <ele>177.02</ele>
        <time>2018-07-08T14:22:29Z</time>
      </trkpt>
      <trkpt lat="49.49002" lon="1.10214">
        <ele>177.02</ele>
        <time>2018-07-08T14:22:30Z</time>
      </trkpt>
      <trkpt lat="49.49003" lon="1.10221">
        <ele>177.5</ele>
        <time>2018-07-08T14:22:31Z</time>
      </trkpt>
      <trkpt lat="49.49003" lon="1.10228">
        <ele>177.5</ele>
        <time>2018-07-08T14:22:32Z</time>
      </trkpt>
      <trkpt lat="49.49008" lon="1.10256">
        <ele>177.5</ele>
        <time>2018-07-08T14:22:36Z</time>
      </trkpt>
      <trkpt lat="49.49009" lon="1.10263">
        <ele>177.5</ele>
        <time>2018-07-08T14:22:37Z</time>
      </trkpt>
      <trkpt lat="49.49019" lon="1.10329">
        <ele>177.98</ele>
        <time>2018-07-08T14:22:49Z</time>
      </trkpt>
      <trkpt lat="49.49027" lon="1.10396">
        <ele>178.94</ele>
        <time>2018-07-08T14:23:01Z</time>
      </trkpt>
      <trkpt lat="49.49035" lon="1.10432">
        <ele>178.94</ele>
        <time>2018-07-08T14:23:07Z</time>
      </trkpt>
      <trkpt lat="49.49035" lon="1.10446">
        <ele>178.94</ele>
        <time>2018-07-08T14:23:09Z</time>
      </trkpt>
      <trkpt lat="49.49034" lon="1.10454">
        <ele>177.5</ele>
        <time>2018-07-08T14:23:10Z</time>
      </trkpt>
      <trkpt lat="49.49032" lon="1.10469">
        <ele>177.02</ele>
        <time>2018-07-08T14:23:12Z</time>
      </trkpt>
      <trkpt lat="49.49032" lon="1.10498">
        <ele>176.06</ele>
        <time>2018-07-08T14:23:17Z</time>
      </trkpt>
      <trkpt lat="49.49026" lon="1.10546">
        <ele>178.46</ele>
        <time>2018-07-08T14:23:25Z</time>
      </trkpt>
      <trkpt lat="49.49023" lon="1.10549">
        <ele>178.94</ele>
        <time>2018-07-08T14:23:26Z</time>
      </trkpt>
      <trkpt lat="49.49012" lon="1.1056">
        <ele>178.94</ele>
        <time>2018-07-08T14:23:29Z</time>
      </trkpt>
      <trkpt lat="49.49008" lon="1.10566">
        <ele>178.94</ele>
        <time>2018-07-08T14:23:30Z</time>
      </trkpt>
      <trkpt lat="49.49006" lon="1.10572">
        <ele>178.94</ele>
        <time>2018-07-08T14:23:31Z</time>
      </trkpt>
      <trkpt lat="49.49004" lon="1.1058">
        <ele>178.94</ele>
        <time>2018-07-08T14:23:32Z</time>
      </trkpt>
      <trkpt lat="49.49003" lon="1.10588">
        <ele>178.94</ele>
        <time>2018-07-08T14:23:33Z</time>
      </trkpt>
      <trkpt lat="49.49002" lon="1.10596">
        <ele>178.94</ele>
        <time>2018-07-08T14:23:34Z</time>
      </trkpt>
      <trkpt lat="49.49002" lon="1.10605">
        <ele>178.94</ele>
        <time>2018-07-08T14:23:35Z</time>
      </trkpt>
      <trkpt lat="49.49" lon="1.10622">
        <ele>178.94</ele>
        <time>2018-07-08T14:23:37Z</time>
      </trkpt>
      <trkpt lat="49.48996" lon="1.10649">
        <ele>177.98</ele>
        <time>2018-07-08T14:23:40Z</time>
      </trkpt>
      <trkpt lat="49.48974" lon="1.10782">
        <ele>176.06</ele>
        <time>2018-07-08T14:23:53Z</time>
      </trkpt>
      <trkpt lat="49.48968" lon="1.10814">
        <ele>175.58</ele>
        <time>2018-07-08T14:23:56Z</time>
      </trkpt>
      <trkpt lat="49.48961" lon="1.10881">
        <ele>175.1</ele>
        <time>2018-07-08T14:24:03Z</time>
      </trkpt>
      <trkpt lat="49.4896" lon="1.10888">
        <ele>175.1</ele>
        <time>2018-07-08T14:24:04Z</time>
      </trkpt>
      <trkpt lat="49.48952" lon="1.10928">
        <ele>176.54</ele>
        <time>2018-07-08T14:24:09Z</time>
      </trkpt>
      <trkpt lat="49.48949" lon="1.10951">
        <ele>176.54</ele>
        <time>2018-07-08T14:24:12Z</time>
      </trkpt>
      <trkpt lat="49.4894" lon="1.10995">
        <ele>176.54</ele>
        <time>2018-07-08T14:24:18Z</time>
      </trkpt>
      <trkpt lat="49.48931" lon="1.11051">
        <ele>177.98</ele>
        <time>2018-07-08T14:24:26Z</time>
      </trkpt>
      <trkpt lat="49.48915" lon="1.11152">
        <ele>179.42</ele>
        <time>2018-07-08T14:24:41Z</time>
      </trkpt>
      <trkpt lat="49.48914" lon="1.11159">
        <ele>179.42</ele>
        <time>2018-07-08T14:24:42Z</time>
      </trkpt>
      <trkpt lat="49.48914" lon="1.11166">
        <ele>179.9</ele>
        <time>2018-07-08T14:24:43Z</time>
      </trkpt>
      <trkpt lat="49.48913" lon="1.11174">
        <ele>179.9</ele>
        <time>2018-07-08T14:24:44Z</time>
      </trkpt>
      <trkpt lat="49.48912" lon="1.11181">
        <ele>179.9</ele>
        <time>2018-07-08T14:24:45Z</time>
      </trkpt>
      <trkpt lat="49.48909" lon="1.11196">
        <ele>179.9</ele>
        <time>2018-07-08T14:24:47Z</time>
      </trkpt>
      <trkpt lat="49.48893" lon="1.1129">
        <ele>180.38</ele>
        <time>2018-07-08T14:24:58Z</time>
      </trkpt>
      <trkpt lat="49.48891" lon="1.11298">
        <ele>180.38</ele>
        <time>2018-07-08T14:24:59Z</time>
      </trkpt>
      <trkpt lat="49.48886" lon="1.11312">
        <ele>180.38</ele>
        <time>2018-07-08T14:25:01Z</time>
      </trkpt>
      <trkpt lat="49.48885" lon="1.11318">
        <ele>180.38</ele>
        <time>2018-07-08T14:25:02Z</time>
      </trkpt>
      <trkpt lat="49.48885" lon="1.11325">
        <ele>180.38</ele>
        <time>2018-07-08T14:25:03Z</time>
      </trkpt>
      <trkpt lat="49.48885" lon="1.1133">
        <ele>178.94</ele>
        <time>2018-07-08T14:25:04Z</time>
      </trkpt>
      <trkpt lat="49.48887" lon="1.11334">
        <ele>178.94</ele>
        <time>2018-07-08T14:25:05Z</time>
      </trkpt>
      <trkpt lat="49.4889" lon="1.1134">
        <ele>178.94</ele>
        <time>2018-07-08T14:25:06Z</time>
      </trkpt>
      <trkpt lat="49.48892" lon="1.11348">
        <ele>178.46</ele>
        <time>2018-07-08T14:25:07Z</time>
      </trkpt>
      <trkpt lat="49.48899" lon="1.11362">
        <ele>178.46</ele>
        <time>2018-07-08T14:25:09Z</time>
      </trkpt>
      <trkpt lat="49.48902" lon="1.1137">
        <ele>178.46</ele>
        <time>2018-07-08T14:25:10Z</time>
      </trkpt>
      <trkpt lat="49.48905" lon="1.11378">
        <ele>178.46</ele>
        <time>2018-07-08T14:25:11Z</time>
      </trkpt>
      <trkpt lat="49.48906" lon="1.11387">
        <ele>178.46</ele>
        <time>2018-07-08T14:25:12Z</time>
      </trkpt>
      <trkpt lat="49.48906" lon="1.11396">
        <ele>177.5</ele>
        <time>2018-07-08T14:25:13Z</time>
      </trkpt>
      <trkpt lat="49.48906" lon="1.11404">
        <ele>177.5</ele>
        <time>2018-07-08T14:25:14Z</time>
      </trkpt>
      <trkpt lat="49.48905" lon="1.11413">
        <ele>177.5</ele>
        <time>2018-07-08T14:25:15Z</time>
      </trkpt>
      <trkpt lat="49.48903" lon="1.11421">
        <ele>177.5</ele>
        <time>2018-07-08T14:25:16Z</time>
      </trkpt>
      <trkpt lat="49.48901" lon="1.1143">
        <ele>177.5</ele>
        <time>2018-07-08T14:25:17Z</time>
      </trkpt>
      <trkpt lat="49.48896" lon="1.11457">
        <ele>177.5</ele>
        <time>2018-07-08T14:25:20Z</time>
      </trkpt>
      <trkpt lat="49.48894" lon="1.11466">
        <ele>177.02</ele>
        <time>2018-07-08T14:25:21Z</time>
      </trkpt>
      <trkpt lat="49.48891" lon="1.11484">
        <ele>177.02</ele>
        <time>2018-07-08T14:25:23Z</time>
      </trkpt>
      <trkpt lat="49.48889" lon="1.11493">
        <ele>177.02</ele>
        <time>2018-07-08T14:25:24Z</time>
      </trkpt>
      <trkpt lat="49.48881" lon="1.11539">
        <ele>176.54</ele>
        <time>2018-07-08T14:25:29Z</time>
      </trkpt>
      <trkpt lat="49.4888" lon="1.11548">
        <ele>176.54</ele>
        <time>2018-07-08T14:25:30Z</time>
      </trkpt>
      <trkpt lat="49.48879" lon="1.11556">
        <ele>175.58</ele>
        <time>2018-07-08T14:25:31Z</time>
      </trkpt>
      <trkpt lat="49.48878" lon="1.11564">
        <ele>176.06</ele>
        <time>2018-07-08T14:25:32Z</time>
      </trkpt>
      <trkpt lat="49.48877" lon="1.11572">
        <ele>176.06</ele>
        <time>2018-07-08T14:25:33Z</time>
      </trkpt>
      <trkpt lat="49.48876" lon="1.11581">
        <ele>175.1</ele>
        <time>2018-07-08T14:25:34Z</time>
      </trkpt>
      <trkpt lat="49.48873" lon="1.11616">
        <ele>174.14</ele>
        <time>2018-07-08T14:25:38Z</time>
      </trkpt>
      <trkpt lat="49.48871" lon="1.11625">
        <ele>174.14</ele>
        <time>2018-07-08T14:25:39Z</time>
      </trkpt>
      <trkpt lat="49.48869" lon="1.11635">
        <ele>173.17</ele>
        <time>2018-07-08T14:25:40Z</time>
      </trkpt>
      <trkpt lat="49.48868" lon="1.11645">
        <ele>173.17</ele>
        <time>2018-07-08T14:25:41Z</time>
      </trkpt>
      <trkpt lat="49.48868" lon="1.11654">
        <ele>172.69</ele>
        <time>2018-07-08T14:25:42Z</time>
      </trkpt>
      <trkpt lat="49.48867" lon="1.11664">
        <ele>172.69</ele>
        <time>2018-07-08T14:25:43Z</time>
      </trkpt>
      <trkpt lat="49.48865" lon="1.11674">
        <ele>172.69</ele>
        <time>2018-07-08T14:25:44Z</time>
      </trkpt>
      <trkpt lat="49.48863" lon="1.11684">
        <ele>171.73</ele>
        <time>2018-07-08T14:25:45Z</time>
      </trkpt>
      <trkpt lat="49.48862" lon="1.11706">
        <ele>171.73</ele>
        <time>2018-07-08T14:25:47Z</time>
      </trkpt>
      <trkpt lat="49.48862" lon="1.11716">
        <ele>171.25</ele>
        <time>2018-07-08T14:25:48Z</time>
      </trkpt>
      <trkpt lat="49.48861" lon="1.11725">
        <ele>171.25</ele>
        <time>2018-07-08T14:25:49Z</time>
      </trkpt>
      <trkpt lat="49.48859" lon="1.11733">
        <ele>171.25</ele>
        <time>2018-07-08T14:25:50Z</time>
      </trkpt>
      <trkpt lat="49.48857" lon="1.11741">
        <ele>171.25</ele>
        <time>2018-07-08T14:25:51Z</time>
      </trkpt>
      <trkpt lat="49.48855" lon="1.11748">
        <ele>171.25</ele>
        <time>2018-07-08T14:25:52Z</time>
      </trkpt>
      <trkpt lat="49.48848" lon="1.11779">
        <ele>172.69</ele>
        <time>2018-07-08T14:25:56Z</time>
      </trkpt>
      <trkpt lat="49.48846" lon="1.11787">
        <ele>173.17</ele>
        <time>2018-07-08T14:25:57Z</time>
      </trkpt>
      <trkpt lat="49.48844" lon="1.11797">
        <ele>172.69</ele>
        <time>2018-07-08T14:25:58Z</time>
      </trkpt>
      <trkpt lat="49.48844" lon="1.11806">
        <ele>172.69</ele>
        <time>2018-07-08T14:25:59Z</time>
      </trkpt>
      <trkpt lat="49.48843" lon="1.11814">
        <ele>172.69</ele>
        <time>2018-07-08T14:26:00Z</time>
      </trkpt>
      <trkpt lat="49.48842" lon="1.11822">
        <ele>172.69</ele>
        <time>2018-07-08T14:26:01Z</time>
      </trkpt>
      <trkpt lat="49.48838" lon="1.11855">
        <ele>173.17</ele>
        <time>2018-07-08T14:26:06Z</time>
      </trkpt>
      <trkpt lat="49.48839" lon="1.11857">
        <ele>172.69</ele>
        <time>2018-07-08T14:26:07Z</time>
      </trkpt>
      <trkpt lat="49.48845" lon="1.11859">
        <ele>172.69</ele>
        <time>2018-07-08T14:26:11Z</time>
      </trkpt>
      <trkpt lat="49.48862" lon="1.11859">
        <ele>172.69</ele>
        <time>2018-07-08T14:26:15Z</time>
      </trkpt>
      <trkpt lat="49.48902" lon="1.11864">
        <ele>170.29</ele>
        <time>2018-07-08T14:26:24Z</time>
      </trkpt>
      <trkpt lat="49.48927" lon="1.11825">
        <ele>168.85</ele>
        <time>2018-07-08T14:26:30Z</time>
      </trkpt>
      <trkpt lat="49.48941" lon="1.11791">
        <ele>170.29</ele>
        <time>2018-07-08T14:26:35Z</time>
      </trkpt>
      <trkpt lat="49.48951" lon="1.11783">
        <ele>170.77</ele>
        <time>2018-07-08T14:26:39Z</time>
      </trkpt>
      <trkpt lat="49.4898" lon="1.11755">
        <ele>171.25</ele>
        <time>2018-07-08T14:26:49Z</time>
      </trkpt>
      <trkpt lat="49.48996" lon="1.11736">
        <ele>171.73</ele>
        <time>2018-07-08T14:26:54Z</time>
      </trkpt>
      <trkpt lat="49.49019" lon="1.11705">
        <ele>172.69</ele>
        <time>2018-07-08T14:27:01Z</time>
      </trkpt>
      <trkpt lat="49.49024" lon="1.11691">
        <ele>172.69</ele>
        <time>2018-07-08T14:27:04Z</time>
      </trkpt>
      <trkpt lat="49.49032" lon="1.11667">
        <ele>173.17</ele>
        <time>2018-07-08T14:27:08Z</time>
      </trkpt>
      <trkpt lat="49.49047" lon="1.1162">
        <ele>173.66</ele>
        <time>2018-07-08T14:27:17Z</time>
      </trkpt>
      <trkpt lat="49.4906" lon="1.11561">
        <ele>174.62</ele>
        <time>2018-07-08T14:27:29Z</time>
      </trkpt>
      <trkpt lat="49.49071" lon="1.11496">
        <ele>175.1</ele>
        <time>2018-07-08T14:27:41Z</time>
      </trkpt>
      <trkpt lat="49.4908" lon="1.11444">
        <ele>175.58</ele>
        <time>2018-07-08T14:27:51Z</time>
      </trkpt>
      <trkpt lat="49.49082" lon="1.11439">
        <ele>175.58</ele>
        <time>2018-07-08T14:27:52Z</time>
      </trkpt>
      <trkpt lat="49.49084" lon="1.11414">
        <ele>175.58</ele>
        <time>2018-07-08T14:27:57Z</time>
      </trkpt>
      <trkpt lat="49.49087" lon="1.11408">
        <ele>175.58</ele>
        <time>2018-07-08T14:27:59Z</time>
      </trkpt>
      <trkpt lat="49.49089" lon="1.11407">
        <ele>176.06</ele>
        <time>2018-07-08T14:28:00Z</time>
      </trkpt>
      <trkpt lat="49.49091" lon="1.11407">
        <ele>176.06</ele>
        <time>2018-07-08T14:28:01Z</time>
      </trkpt>
      <trkpt lat="49.49093" lon="1.11406">
        <ele>176.06</ele>
        <time>2018-07-08T14:28:02Z</time>
      </trkpt>
      <trkpt lat="49.49095" lon="1.11406">
        <ele>176.06</ele>
        <time>2018-07-08T14:28:03Z</time>
      </trkpt>
      <trkpt lat="49.49097" lon="1.11405">
        <ele>176.06</ele>
        <time>2018-07-08T14:28:04Z</time>
      </trkpt>
      <trkpt lat="49.49105" lon="1.11406">
        <ele>176.06</ele>
        <time>2018-07-08T14:28:12Z</time>
      </trkpt>
      <trkpt lat="49.49094" lon="1.1145">
        <ele>176.06</ele>
        <time>2018-07-08T14:28:22Z</time>
      </trkpt>
      <trkpt lat="49.49093" lon="1.11456">
        <ele>176.06</ele>
        <time>2018-07-08T14:28:23Z</time>
      </trkpt>
      <trkpt lat="49.4909" lon="1.11484">
        <ele>175.58</ele>
        <time>2018-07-08T14:28:27Z</time>
      </trkpt>
      <trkpt lat="49.49088" lon="1.11525">
        <ele>174.62</ele>
        <time>2018-07-08T14:28:32Z</time>
      </trkpt>
      <trkpt lat="49.49086" lon="1.11553">
        <ele>174.14</ele>
        <time>2018-07-08T14:28:35Z</time>
      </trkpt>
      <trkpt lat="49.49081" lon="1.11592">
        <ele>173.17</ele>
        <time>2018-07-08T14:28:39Z</time>
      </trkpt>
      <trkpt lat="49.49078" lon="1.11612">
        <ele>173.17</ele>
        <time>2018-07-08T14:28:41Z</time>
      </trkpt>
      <trkpt lat="49.49071" lon="1.11667">
        <ele>171.25</ele>
        <time>2018-07-08T14:28:47Z</time>
      </trkpt>
      <trkpt lat="49.49066" lon="1.11704">
        <ele>170.29</ele>
        <time>2018-07-08T14:28:51Z</time>
      </trkpt>
      <trkpt lat="49.49063" lon="1.11734">
        <ele>170.29</ele>
        <time>2018-07-08T14:28:54Z</time>
      </trkpt>
      <trkpt lat="49.49059" lon="1.11774">
        <ele>170.29</ele>
        <time>2018-07-08T14:28:58Z</time>
      </trkpt>
      <trkpt lat="49.49052" lon="1.11828">
        <ele>169.81</ele>
        <time>2018-07-08T14:29:04Z</time>
      </trkpt>
      <trkpt lat="49.49048" lon="1.11849">
        <ele>169.81</ele>
        <time>2018-07-08T14:29:06Z</time>
      </trkpt>
      <trkpt lat="49.49033" lon="1.1196">
        <ele>166.45</ele>
        <time>2018-07-08T14:29:17Z</time>
      </trkpt>
      <trkpt lat="49.49028" lon="1.11988">
        <ele>166.45</ele>
        <time>2018-07-08T14:29:20Z</time>
      </trkpt>
      <trkpt lat="49.4902" lon="1.12051">
        <ele>165.48</ele>
        <time>2018-07-08T14:29:27Z</time>
      </trkpt>
      <trkpt lat="49.49016" lon="1.12091">
        <ele>163.08</ele>
        <time>2018-07-08T14:29:32Z</time>
      </trkpt>
      <trkpt lat="49.49006" lon="1.12134">
        <ele>165.48</ele>
        <time>2018-07-08T14:29:40Z</time>
      </trkpt>
      <trkpt lat="49.49006" lon="1.1214">
        <ele>165.48</ele>
        <time>2018-07-08T14:29:41Z</time>
      </trkpt>
      <trkpt lat="49.49008" lon="1.12145">
        <ele>165.48</ele>
        <time>2018-07-08T14:29:42Z</time>
      </trkpt>
      <trkpt lat="49.4901" lon="1.12151">
        <ele>165.48</ele>
        <time>2018-07-08T14:29:43Z</time>
      </trkpt>
      <trkpt lat="49.49013" lon="1.12156">
        <ele>165.48</ele>
        <time>2018-07-08T14:29:44Z</time>
      </trkpt>
      <trkpt lat="49.49016" lon="1.1216">
        <ele>165</ele>
        <time>2018-07-08T14:29:45Z</time>
      </trkpt>
      <trkpt lat="49.4902" lon="1.12165">
        <ele>165</ele>
        <time>2018-07-08T14:29:46Z</time>
      </trkpt>
      <trkpt lat="49.49024" lon="1.12171">
        <ele>165</ele>
        <time>2018-07-08T14:29:47Z</time>
      </trkpt>
      <trkpt lat="49.49027" lon="1.12177">
        <ele>165</ele>
        <time>2018-07-08T14:29:48Z</time>
      </trkpt>
      <trkpt lat="49.4903" lon="1.12183">
        <ele>165</ele>
        <time>2018-07-08T14:29:49Z</time>
      </trkpt>
      <trkpt lat="49.49034" lon="1.12189">
        <ele>165</ele>
        <time>2018-07-08T14:29:50Z</time>
      </trkpt>
      <trkpt lat="49.49081" lon="1.12252">
        <ele>165</ele>
        <time>2018-07-08T14:30:03Z</time>
      </trkpt>
      <trkpt lat="49.49082" lon="1.12252">
        <ele>165</ele>
        <time>2018-07-08T14:30:04Z</time>
      </trkpt>
      <trkpt lat="49.49082" lon="1.1225">
        <ele>165</ele>
        <time>2018-07-08T14:30:05Z</time>
      </trkpt>
      <trkpt lat="49.49081" lon="1.12249">
        <ele>165</ele>
        <time>2018-07-08T14:30:06Z</time>
      </trkpt>
      <trkpt lat="49.4908" lon="1.12246">
        <ele>165</ele>
        <time>2018-07-08T14:30:07Z</time>
      </trkpt>
      <trkpt lat="49.49081" lon="1.12244">
        <ele>165</ele>
        <time>2018-07-08T14:30:08Z</time>
      </trkpt>
      <trkpt lat="49.49082" lon="1.12241">
        <ele>165</ele>
        <time>2018-07-08T14:30:09Z</time>
      </trkpt>
      <trkpt lat="49.49083" lon="1.12239">
        <ele>165</ele>
        <time>2018-07-08T14:30:10Z</time>
      </trkpt>
      <trkpt lat="49.49085" lon="1.12236">
        <ele>165</ele>
        <time>2018-07-08T14:30:11Z</time>
      </trkpt>
      <trkpt lat="49.49086" lon="1.12233">
        <ele>165</ele>
        <time>2018-07-08T14:30:12Z</time>
      </trkpt>
      <trkpt lat="49.49087" lon="1.12228">
        <ele>165</ele>
        <time>2018-07-08T14:30:13Z</time>
      </trkpt>
      <trkpt lat="49.49089" lon="1.12223">
        <ele>165.48</ele>
        <time>2018-07-08T14:30:14Z</time>
      </trkpt>
      <trkpt lat="49.4909" lon="1.12218">
        <ele>165.48</ele>
        <time>2018-07-08T14:30:15Z</time>
      </trkpt>
      <trkpt lat="49.49099" lon="1.12172">
        <ele>166.45</ele>
        <time>2018-07-08T14:30:22Z</time>
      </trkpt>
      <trkpt lat="49.49109" lon="1.12097">
        <ele>166.93</ele>
        <time>2018-07-08T14:30:33Z</time>
      </trkpt>
      <trkpt lat="49.49112" lon="1.12076">
        <ele>166.93</ele>
        <time>2018-07-08T14:30:36Z</time>
      </trkpt>
      <trkpt lat="49.49116" lon="1.12056">
        <ele>166.93</ele>
        <time>2018-07-08T14:30:39Z</time>
      </trkpt>
      <trkpt lat="49.49116" lon="1.12048">
        <ele>166.93</ele>
        <time>2018-07-08T14:30:40Z</time>
      </trkpt>
      <trkpt lat="49.4912" lon="1.12011">
        <ele>166.45</ele>
        <time>2018-07-08T14:30:45Z</time>
      </trkpt>
      <trkpt lat="49.49121" lon="1.12004">
        <ele>166.93</ele>
        <time>2018-07-08T14:30:46Z</time>
      </trkpt>
      <trkpt lat="49.49131" lon="1.11931">
        <ele>167.89</ele>
        <time>2018-07-08T14:30:57Z</time>
      </trkpt>
      <trkpt lat="49.49138" lon="1.11878">
        <ele>168.85</ele>
        <time>2018-07-08T14:31:06Z</time>
      </trkpt>
      <trkpt lat="49.49144" lon="1.1184">
        <ele>169.33</ele>
        <time>2018-07-08T14:31:13Z</time>
      </trkpt>
      <trkpt lat="49.49145" lon="1.11836">
        <ele>169.33</ele>
        <time>2018-07-08T14:31:14Z</time>
      </trkpt>
      <trkpt lat="49.49145" lon="1.11832">
        <ele>169.81</ele>
        <time>2018-07-08T14:31:15Z</time>
      </trkpt>
      <trkpt lat="49.49146" lon="1.11827">
        <ele>169.81</ele>
        <time>2018-07-08T14:31:16Z</time>
      </trkpt>
      <trkpt lat="49.49146" lon="1.11823">
        <ele>169.81</ele>
        <time>2018-07-08T14:31:17Z</time>
      </trkpt>
      <trkpt lat="49.49154" lon="1.11769">
        <ele>169.81</ele>
        <time>2018-07-08T14:31:26Z</time>
      </trkpt>
      <trkpt lat="49.49161" lon="1.1171">
        <ele>171.25</ele>
        <time>2018-07-08T14:31:35Z</time>
      </trkpt>
      <trkpt lat="49.49161" lon="1.11703">
        <ele>171.25</ele>
        <time>2018-07-08T14:31:36Z</time>
      </trkpt>
      <trkpt lat="49.49162" lon="1.11695">
        <ele>171.25</ele>
        <time>2018-07-08T14:31:37Z</time>
      </trkpt>
      <trkpt lat="49.49174" lon="1.11609">
        <ele>171.73</ele>
        <time>2018-07-08T14:31:50Z</time>
      </trkpt>
      <trkpt lat="49.49177" lon="1.1159">
        <ele>171.25</ele>
        <time>2018-07-08T14:31:53Z</time>
      </trkpt>
      <trkpt lat="49.49178" lon="1.11583">
        <ele>172.21</ele>
        <time>2018-07-08T14:31:54Z</time>
      </trkpt>
      <trkpt lat="49.49185" lon="1.11525">
        <ele>172.21</ele>
        <time>2018-07-08T14:32:02Z</time>
      </trkpt>
      <trkpt lat="49.49185" lon="1.11518">
        <ele>172.69</ele>
        <time>2018-07-08T14:32:03Z</time>
      </trkpt>
      <trkpt lat="49.49185" lon="1.1151">
        <ele>172.69</ele>
        <time>2018-07-08T14:32:04Z</time>
      </trkpt>
      <trkpt lat="49.49187" lon="1.11454">
        <ele>172.21</ele>
        <time>2018-07-08T14:32:12Z</time>
      </trkpt>
      <trkpt lat="49.4919" lon="1.11449">
        <ele>172.21</ele>
        <time>2018-07-08T14:32:14Z</time>
      </trkpt>
      <trkpt lat="49.49196" lon="1.11445">
        <ele>172.21</ele>
        <time>2018-07-08T14:32:19Z</time>
      </trkpt>
      <trkpt lat="49.49198" lon="1.11445">
        <ele>171.73</ele>
        <time>2018-07-08T14:32:20Z</time>
      </trkpt>
      <trkpt lat="49.492" lon="1.11445">
        <ele>172.21</ele>
        <time>2018-07-08T14:32:21Z</time>
      </trkpt>
      <trkpt lat="49.4923" lon="1.1145">
        <ele>172.21</ele>
        <time>2018-07-08T14:32:30Z</time>
      </trkpt>
      <trkpt lat="49.49239" lon="1.11454">
        <ele>172.21</ele>
        <time>2018-07-08T14:32:33Z</time>
      </trkpt>
      <trkpt lat="49.49241" lon="1.11458">
        <ele>172.21</ele>
        <time>2018-07-08T14:32:34Z</time>
      </trkpt>
      <trkpt lat="49.49242" lon="1.11469">
        <ele>172.21</ele>
        <time>2018-07-08T14:32:36Z</time>
      </trkpt>
      <trkpt lat="49.49236" lon="1.11495">
        <ele>171.73</ele>
        <time>2018-07-08T14:32:40Z</time>
      </trkpt>
      <trkpt lat="49.49233" lon="1.11515">
        <ele>171.73</ele>
        <time>2018-07-08T14:32:43Z</time>
      </trkpt>
      <trkpt lat="49.49229" lon="1.11547">
        <ele>171.73</ele>
        <time>2018-07-08T14:32:48Z</time>
      </trkpt>
      <trkpt lat="49.49224" lon="1.11568">
        <ele>171.73</ele>
        <time>2018-07-08T14:32:51Z</time>
      </trkpt>
      <trkpt lat="49.49216" lon="1.11603">
        <ele>171.73</ele>
        <time>2018-07-08T14:32:56Z</time>
      </trkpt>
      <trkpt lat="49.49218" lon="1.11658">
        <ele>170.77</ele>
        <time>2018-07-08T14:33:03Z</time>
      </trkpt>
      <trkpt lat="49.49223" lon="1.11686">
        <ele>170.29</ele>
        <time>2018-07-08T14:33:07Z</time>
      </trkpt>
      <trkpt lat="49.49228" lon="1.11732">
        <ele>169.33</ele>
        <time>2018-07-08T14:33:15Z</time>
      </trkpt>
      <trkpt lat="49.49244" lon="1.11762">
        <ele>169.33</ele>
        <time>2018-07-08T14:33:20Z</time>
      </trkpt>
      <trkpt lat="49.49255" lon="1.11799">
        <ele>169.33</ele>
        <time>2018-07-08T14:33:25Z</time>
      </trkpt>
      <trkpt lat="49.49259" lon="1.11815">
        <ele>169.33</ele>
        <time>2018-07-08T14:33:27Z</time>
      </trkpt>
      <trkpt lat="49.49266" lon="1.1184">
        <ele>169.33</ele>
        <time>2018-07-08T14:33:30Z</time>
      </trkpt>
      <trkpt lat="49.49274" lon="1.11864">
        <ele>168.85</ele>
        <time>2018-07-08T14:33:33Z</time>
      </trkpt>
      <trkpt lat="49.49282" lon="1.11882">
        <ele>168.37</ele>
        <time>2018-07-08T14:33:36Z</time>
      </trkpt>
      <trkpt lat="49.49286" lon="1.11884">
        <ele>168.37</ele>
        <time>2018-07-08T14:33:37Z</time>
      </trkpt>
      <trkpt lat="49.49291" lon="1.11886">
        <ele>168.37</ele>
        <time>2018-07-08T14:33:38Z</time>
      </trkpt>
      <trkpt lat="49.49297" lon="1.11888">
        <ele>168.37</ele>
        <time>2018-07-08T14:33:39Z</time>
      </trkpt>
      <trkpt lat="49.49301" lon="1.1189">
        <ele>168.37</ele>
        <time>2018-07-08T14:33:40Z</time>
      </trkpt>
      <trkpt lat="49.49328" lon="1.11893">
        <ele>169.33</ele>
        <time>2018-07-08T14:33:47Z</time>
      </trkpt>
      <trkpt lat="49.49339" lon="1.119">
        <ele>169.33</ele>
        <time>2018-07-08T14:33:54Z</time>
      </trkpt>
      <trkpt lat="49.4934" lon="1.11904">
        <ele>169.33</ele>
        <time>2018-07-08T14:33:55Z</time>
      </trkpt>
      <trkpt lat="49.4934" lon="1.11908">
        <ele>169.33</ele>
        <time>2018-07-08T14:33:56Z</time>
      </trkpt>
      <trkpt lat="49.49341" lon="1.11913">
        <ele>169.33</ele>
        <time>2018-07-08T14:33:57Z</time>
      </trkpt>
      <trkpt lat="49.49342" lon="1.11918">
        <ele>169.33</ele>
        <time>2018-07-08T14:33:58Z</time>
      </trkpt>
      <trkpt lat="49.49342" lon="1.11924">
        <ele>169.33</ele>
        <time>2018-07-08T14:33:59Z</time>
      </trkpt>
      <trkpt lat="49.49339" lon="1.1195">
        <ele>167.89</ele>
        <time>2018-07-08T14:34:03Z</time>
      </trkpt>
      <trkpt lat="49.49338" lon="1.11956">
        <ele>167.89</ele>
        <time>2018-07-08T14:34:04Z</time>
      </trkpt>
      <trkpt lat="49.49332" lon="1.12016">
        <ele>166.45</ele>
        <time>2018-07-08T14:34:13Z</time>
      </trkpt>
      <trkpt lat="49.4933" lon="1.12058">
        <ele>166.45</ele>
        <time>2018-07-08T14:34:19Z</time>
      </trkpt>
      <trkpt lat="49.49327" lon="1.12089">
        <ele>166.45</ele>
        <time>2018-07-08T14:34:24Z</time>
      </trkpt>
      <trkpt lat="49.49326" lon="1.12096">
        <ele>166.45</ele>
        <time>2018-07-08T14:34:25Z</time>
      </trkpt>
      <trkpt lat="49.4932" lon="1.12132">
        <ele>165.96</ele>
        <time>2018-07-08T14:34:30Z</time>
      </trkpt>
      <trkpt lat="49.49319" lon="1.12139">
        <ele>165.96</ele>
        <time>2018-07-08T14:34:31Z</time>
      </trkpt>
      <trkpt lat="49.49317" lon="1.12145">
        <ele>165.96</ele>
        <time>2018-07-08T14:34:32Z</time>
      </trkpt>
      <trkpt lat="49.49307" lon="1.12197">
        <ele>165.48</ele>
        <time>2018-07-08T14:34:40Z</time>
      </trkpt>
      <trkpt lat="49.49301" lon="1.12223">
        <ele>165</ele>
        <time>2018-07-08T14:34:44Z</time>
      </trkpt>
      <trkpt lat="49.493" lon="1.12231">
        <ele>165</ele>
        <time>2018-07-08T14:34:45Z</time>
      </trkpt>
      <trkpt lat="49.49297" lon="1.1226">
        <ele>165</ele>
        <time>2018-07-08T14:34:48Z</time>
      </trkpt>
      <trkpt lat="49.49297" lon="1.12268">
        <ele>165</ele>
        <time>2018-07-08T14:34:49Z</time>
      </trkpt>
      <trkpt lat="49.49296" lon="1.12277">
        <ele>165</ele>
        <time>2018-07-08T14:34:50Z</time>
      </trkpt>
      <trkpt lat="49.49294" lon="1.12285">
        <ele>164.52</ele>
        <time>2018-07-08T14:34:51Z</time>
      </trkpt>
      <trkpt lat="49.49293" lon="1.12293">
        <ele>164.52</ele>
        <time>2018-07-08T14:34:52Z</time>
      </trkpt>
      <trkpt lat="49.49292" lon="1.1231">
        <ele>164.52</ele>
        <time>2018-07-08T14:34:54Z</time>
      </trkpt>
      <trkpt lat="49.49289" lon="1.12348">
        <ele>164.04</ele>
        <time>2018-07-08T14:34:59Z</time>
      </trkpt>
      <trkpt lat="49.49287" lon="1.12355">
        <ele>163.56</ele>
        <time>2018-07-08T14:35:00Z</time>
      </trkpt>
      <trkpt lat="49.49286" lon="1.12364">
        <ele>163.56</ele>
        <time>2018-07-08T14:35:01Z</time>
      </trkpt>
      <trkpt lat="49.49283" lon="1.12379">
        <ele>163.08</ele>
        <time>2018-07-08T14:35:03Z</time>
      </trkpt>
      <trkpt lat="49.49282" lon="1.12386">
        <ele>163.08</ele>
        <time>2018-07-08T14:35:04Z</time>
      </trkpt>
      <trkpt lat="49.4928" lon="1.12394">
        <ele>163.08</ele>
        <time>2018-07-08T14:35:05Z</time>
      </trkpt>
      <trkpt lat="49.49279" lon="1.12403">
        <ele>163.08</ele>
        <time>2018-07-08T14:35:06Z</time>
      </trkpt>
      <trkpt lat="49.49279" lon="1.1241">
        <ele>163.08</ele>
        <time>2018-07-08T14:35:07Z</time>
      </trkpt>
      <trkpt lat="49.49278" lon="1.12418">
        <ele>163.08</ele>
        <time>2018-07-08T14:35:08Z</time>
      </trkpt>
      <trkpt lat="49.49275" lon="1.12446">
        <ele>162.6</ele>
        <time>2018-07-08T14:35:12Z</time>
      </trkpt>
      <trkpt lat="49.49266" lon="1.12526">
        <ele>162.12</ele>
        <time>2018-07-08T14:35:23Z</time>
      </trkpt>
      <trkpt lat="49.49265" lon="1.12535">
        <ele>162.12</ele>
        <time>2018-07-08T14:35:24Z</time>
      </trkpt>
      <trkpt lat="49.49258" lon="1.12579">
        <ele>161.64</ele>
        <time>2018-07-08T14:35:30Z</time>
      </trkpt>
      <trkpt lat="49.49258" lon="1.12588">
        <ele>161.64</ele>
        <time>2018-07-08T14:35:31Z</time>
      </trkpt>
      <trkpt lat="49.49258" lon="1.12594">
        <ele>161.64</ele>
        <time>2018-07-08T14:35:32Z</time>
      </trkpt>
      <trkpt lat="49.49258" lon="1.12599">
        <ele>161.64</ele>
        <time>2018-07-08T14:35:33Z</time>
      </trkpt>
      <trkpt lat="49.49258" lon="1.126">
        <ele>161.64</ele>
        <time>2018-07-08T14:35:34Z</time>
      </trkpt>
      <trkpt lat="49.49258" lon="1.126">
        <ele>161.64</ele>
        <time>2018-07-08T14:35:35Z</time>
      </trkpt>
      <trkpt lat="49.49258" lon="1.12599">
        <ele>161.64</ele>
        <time>2018-07-08T14:35:36Z</time>
      </trkpt>
      <trkpt lat="49.49258" lon="1.12596">
        <ele>161.64</ele>
        <time>2018-07-08T14:35:37Z</time>
      </trkpt>
      <trkpt lat="49.49259" lon="1.12594">
        <ele>161.64</ele>
        <time>2018-07-08T14:35:38Z</time>
      </trkpt>
      <trkpt lat="49.4926" lon="1.12593">
        <ele>161.64</ele>
        <time>2018-07-08T14:35:39Z</time>
      </trkpt>
      <trkpt lat="49.49262" lon="1.12594">
        <ele>161.64</ele>
        <time>2018-07-08T14:35:40Z</time>
      </trkpt>
      <trkpt lat="49.49265" lon="1.12595">
        <ele>161.64</ele>
        <time>2018-07-08T14:35:42Z</time>
      </trkpt>
      <trkpt lat="49.49267" lon="1.12592">
        <ele>161.64</ele>
        <time>2018-07-08T14:35:43Z</time>
      </trkpt>
      <trkpt lat="49.49268" lon="1.1259">
        <ele>161.64</ele>
        <time>2018-07-08T14:35:44Z</time>
      </trkpt>
      <trkpt lat="49.49269" lon="1.12588">
        <ele>161.64</ele>
        <time>2018-07-08T14:35:45Z</time>
      </trkpt>
      <trkpt lat="49.49268" lon="1.12586">
        <ele>161.64</ele>
        <time>2018-07-08T14:35:46Z</time>
      </trkpt>
      <trkpt lat="49.49268" lon="1.12584">
        <ele>161.64</ele>
        <time>2018-07-08T14:35:47Z</time>
      </trkpt>
      <trkpt lat="49.49264" lon="1.12584">
        <ele>161.64</ele>
        <time>2018-07-08T14:35:49Z</time>
      </trkpt>
      <trkpt lat="49.49261" lon="1.12585">
        <ele>161.64</ele>
        <time>2018-07-08T14:35:50Z</time>
      </trkpt>
      <trkpt lat="49.4926" lon="1.12588">
        <ele>161.64</ele>
        <time>2018-07-08T14:35:51Z</time>
      </trkpt>
      <trkpt lat="49.49258" lon="1.12592">
        <ele>161.64</ele>
        <time>2018-07-08T14:35:52Z</time>
      </trkpt>
      <trkpt lat="49.49258" lon="1.12597">
        <ele>161.64</ele>
        <time>2018-07-08T14:35:53Z</time>
      </trkpt>
      <trkpt lat="49.49257" lon="1.12601">
        <ele>161.16</ele>
        <time>2018-07-08T14:35:54Z</time>
      </trkpt>
      <trkpt lat="49.49264" lon="1.12647">
        <ele>161.16</ele>
        <time>2018-07-08T14:36:04Z</time>
      </trkpt>
      <trkpt lat="49.49284" lon="1.1271">
        <ele>161.16</ele>
        <time>2018-07-08T14:36:15Z</time>
      </trkpt>
      <trkpt lat="49.49313" lon="1.12814">
        <ele>161.16</ele>
        <time>2018-07-08T14:36:29Z</time>
      </trkpt>
      <trkpt lat="49.49319" lon="1.12839">
        <ele>161.16</ele>
        <time>2018-07-08T14:36:32Z</time>
      </trkpt>
      <trkpt lat="49.4932" lon="1.12848">
        <ele>161.16</ele>
        <time>2018-07-08T14:36:33Z</time>
      </trkpt>
      <trkpt lat="49.49334" lon="1.12919">
        <ele>160.68</ele>
        <time>2018-07-08T14:36:42Z</time>
      </trkpt>
      <trkpt lat="49.49336" lon="1.12928">
        <ele>160.68</ele>
        <time>2018-07-08T14:36:43Z</time>
      </trkpt>
      <trkpt lat="49.4935" lon="1.12978">
        <ele>158.75</ele>
        <time>2018-07-08T14:36:49Z</time>
      </trkpt>
      <trkpt lat="49.49353" lon="1.12995">
        <ele>158.75</ele>
        <time>2018-07-08T14:36:51Z</time>
      </trkpt>
      <trkpt lat="49.49356" lon="1.13003">
        <ele>158.75</ele>
        <time>2018-07-08T14:36:52Z</time>
      </trkpt>
      <trkpt lat="49.49359" lon="1.1301">
        <ele>158.75</ele>
        <time>2018-07-08T14:36:53Z</time>
      </trkpt>
      <trkpt lat="49.49362" lon="1.13017">
        <ele>158.75</ele>
        <time>2018-07-08T14:36:54Z</time>
      </trkpt>
      <trkpt lat="49.49364" lon="1.13024">
        <ele>158.75</ele>
        <time>2018-07-08T14:36:55Z</time>
      </trkpt>
      <trkpt lat="49.49366" lon="1.13032">
        <ele>158.75</ele>
        <time>2018-07-08T14:36:56Z</time>
      </trkpt>
      <trkpt lat="49.49372" lon="1.13048">
        <ele>158.75</ele>
        <time>2018-07-08T14:36:58Z</time>
      </trkpt>
      <trkpt lat="49.49374" lon="1.13056">
        <ele>158.75</ele>
        <time>2018-07-08T14:36:59Z</time>
      </trkpt>
      <trkpt lat="49.49377" lon="1.13064">
        <ele>158.75</ele>
        <time>2018-07-08T14:37:00Z</time>
      </trkpt>
      <trkpt lat="49.4938" lon="1.13072">
        <ele>158.75</ele>
        <time>2018-07-08T14:37:01Z</time>
      </trkpt>
      <trkpt lat="49.49382" lon="1.13081">
        <ele>158.75</ele>
        <time>2018-07-08T14:37:02Z</time>
      </trkpt>
      <trkpt lat="49.49384" lon="1.13089">
        <ele>158.75</ele>
        <time>2018-07-08T14:37:03Z</time>
      </trkpt>
      <trkpt lat="49.49404" lon="1.13153">
        <ele>157.79</ele>
        <time>2018-07-08T14:37:11Z</time>
      </trkpt>
      <trkpt lat="49.49435" lon="1.13247">
        <ele>156.83</ele>
        <time>2018-07-08T14:37:22Z</time>
      </trkpt>
      <trkpt lat="49.49439" lon="1.13255">
        <ele>156.35</ele>
        <time>2018-07-08T14:37:23Z</time>
      </trkpt>
      <trkpt lat="49.49466" lon="1.13294">
        <ele>155.39</ele>
        <time>2018-07-08T14:37:29Z</time>
      </trkpt>
      <trkpt lat="49.49527" lon="1.13364">
        <ele>155.39</ele>
        <time>2018-07-08T14:37:42Z</time>
      </trkpt>
      <trkpt lat="49.49531" lon="1.13366">
        <ele>155.39</ele>
        <time>2018-07-08T14:37:43Z</time>
      </trkpt>
      <trkpt lat="49.49535" lon="1.13365">
        <ele>155.39</ele>
        <time>2018-07-08T14:37:44Z</time>
      </trkpt>
      <trkpt lat="49.49537" lon="1.13362">
        <ele>155.39</ele>
        <time>2018-07-08T14:37:45Z</time>
      </trkpt>
      <trkpt lat="49.4954" lon="1.13357">
        <ele>155.39</ele>
        <time>2018-07-08T14:37:46Z</time>
      </trkpt>
      <trkpt lat="49.49542" lon="1.13354">
        <ele>155.39</ele>
        <time>2018-07-08T14:37:47Z</time>
      </trkpt>
      <trkpt lat="49.49544" lon="1.13352">
        <ele>154.91</ele>
        <time>2018-07-08T14:37:48Z</time>
      </trkpt>
      <trkpt lat="49.49546" lon="1.13352">
        <ele>154.91</ele>
        <time>2018-07-08T14:37:49Z</time>
      </trkpt>
      <trkpt lat="49.49548" lon="1.13354">
        <ele>154.91</ele>
        <time>2018-07-08T14:37:50Z</time>
      </trkpt>
      <trkpt lat="49.4955" lon="1.13354">
        <ele>154.91</ele>
        <time>2018-07-08T14:37:51Z</time>
      </trkpt>
      <trkpt lat="49.49551" lon="1.13352">
        <ele>154.91</ele>
        <time>2018-07-08T14:37:52Z</time>
      </trkpt>
      <trkpt lat="49.49553" lon="1.13349">
        <ele>154.91</ele>
        <time>2018-07-08T14:37:53Z</time>
      </trkpt>
      <trkpt lat="49.49553" lon="1.13345">
        <ele>154.43</ele>
        <time>2018-07-08T14:37:54Z</time>
      </trkpt>
      <trkpt lat="49.49554" lon="1.13339">
        <ele>154.43</ele>
        <time>2018-07-08T14:37:55Z</time>
      </trkpt>
      <trkpt lat="49.49554" lon="1.13332">
        <ele>154.43</ele>
        <time>2018-07-08T14:37:56Z</time>
      </trkpt>
      <trkpt lat="49.49555" lon="1.13326">
        <ele>154.43</ele>
        <time>2018-07-08T14:37:57Z</time>
      </trkpt>
      <trkpt lat="49.49557" lon="1.1332">
        <ele>154.43</ele>
        <time>2018-07-08T14:37:58Z</time>
      </trkpt>
      <trkpt lat="49.4956" lon="1.13316">
        <ele>154.43</ele>
        <time>2018-07-08T14:37:59Z</time>
      </trkpt>
      <trkpt lat="49.49563" lon="1.13311">
        <ele>153.95</ele>
        <time>2018-07-08T14:38:00Z</time>
      </trkpt>
      <trkpt lat="49.49576" lon="1.13278">
        <ele>153.47</ele>
        <time>2018-07-08T14:38:07Z</time>
      </trkpt>
      <trkpt lat="49.49576" lon="1.13273">
        <ele>152.99</ele>
        <time>2018-07-08T14:38:08Z</time>
      </trkpt>
      <trkpt lat="49.49576" lon="1.13268">
        <ele>152.99</ele>
        <time>2018-07-08T14:38:09Z</time>
      </trkpt>
      <trkpt lat="49.49576" lon="1.13262">
        <ele>152.99</ele>
        <time>2018-07-08T14:38:10Z</time>
      </trkpt>
      <trkpt lat="49.49577" lon="1.13256">
        <ele>152.99</ele>
        <time>2018-07-08T14:38:11Z</time>
      </trkpt>
      <trkpt lat="49.49579" lon="1.1325">
        <ele>152.99</ele>
        <time>2018-07-08T14:38:12Z</time>
      </trkpt>
      <trkpt lat="49.49582" lon="1.13244">
        <ele>152.99</ele>
        <time>2018-07-08T14:38:13Z</time>
      </trkpt>
      <trkpt lat="49.49584" lon="1.13239">
        <ele>152.99</ele>
        <time>2018-07-08T14:38:14Z</time>
      </trkpt>
      <trkpt lat="49.49585" lon="1.13234">
        <ele>152.51</ele>
        <time>2018-07-08T14:38:15Z</time>
      </trkpt>
      <trkpt lat="49.49585" lon="1.1323">
        <ele>152.51</ele>
        <time>2018-07-08T14:38:16Z</time>
      </trkpt>
      <trkpt lat="49.49584" lon="1.13228">
        <ele>152.03</ele>
        <time>2018-07-08T14:38:17Z</time>
      </trkpt>
      <trkpt lat="49.49584" lon="1.13222">
        <ele>152.03</ele>
        <time>2018-07-08T14:38:19Z</time>
      </trkpt>
      <trkpt lat="49.49586" lon="1.13216">
        <ele>152.03</ele>
        <time>2018-07-08T14:38:20Z</time>
      </trkpt>
      <trkpt lat="49.4959" lon="1.13185">
        <ele>151.54</ele>
        <time>2018-07-08T14:38:25Z</time>
      </trkpt>
      <trkpt lat="49.49596" lon="1.13163">
        <ele>151.54</ele>
        <time>2018-07-08T14:38:28Z</time>
      </trkpt>
      <trkpt lat="49.49598" lon="1.13156">
        <ele>151.54</ele>
        <time>2018-07-08T14:38:29Z</time>
      </trkpt>
      <trkpt lat="49.496" lon="1.13146">
        <ele>151.54</ele>
        <time>2018-07-08T14:38:30Z</time>
      </trkpt>
      <trkpt lat="49.49601" lon="1.13136">
        <ele>151.54</ele>
        <time>2018-07-08T14:38:31Z</time>
      </trkpt>
      <trkpt lat="49.49601" lon="1.13129">
        <ele>151.06</ele>
        <time>2018-07-08T14:38:32Z</time>
      </trkpt>
      <trkpt lat="49.49603" lon="1.1312">
        <ele>151.06</ele>
        <time>2018-07-08T14:38:33Z</time>
      </trkpt>
      <trkpt lat="49.49605" lon="1.13112">
        <ele>151.06</ele>
        <time>2018-07-08T14:38:34Z</time>
      </trkpt>
      <trkpt lat="49.49606" lon="1.13104">
        <ele>151.06</ele>
        <time>2018-07-08T14:38:35Z</time>
      </trkpt>
      <trkpt lat="49.49606" lon="1.13097">
        <ele>150.58</ele>
        <time>2018-07-08T14:38:36Z</time>
      </trkpt>
      <trkpt lat="49.49606" lon="1.13089">
        <ele>150.58</ele>
        <time>2018-07-08T14:38:37Z</time>
      </trkpt>
      <trkpt lat="49.49607" lon="1.13082">
        <ele>150.58</ele>
        <time>2018-07-08T14:38:38Z</time>
      </trkpt>
      <trkpt lat="49.4961" lon="1.1306">
        <ele>151.54</ele>
        <time>2018-07-08T14:38:41Z</time>
      </trkpt>
      <trkpt lat="49.49612" lon="1.13053">
        <ele>151.54</ele>
        <time>2018-07-08T14:38:42Z</time>
      </trkpt>
      <trkpt lat="49.49614" lon="1.13045">
        <ele>151.54</ele>
        <time>2018-07-08T14:38:43Z</time>
      </trkpt>
      <trkpt lat="49.49618" lon="1.13029">
        <ele>151.54</ele>
        <time>2018-07-08T14:38:45Z</time>
      </trkpt>
      <trkpt lat="49.49619" lon="1.1302">
        <ele>151.54</ele>
        <time>2018-07-08T14:38:46Z</time>
      </trkpt>
      <trkpt lat="49.49621" lon="1.13005">
        <ele>151.54</ele>
        <time>2018-07-08T14:38:48Z</time>
      </trkpt>
      <trkpt lat="49.4962" lon="1.12998">
        <ele>151.54</ele>
        <time>2018-07-08T14:38:49Z</time>
      </trkpt>
      <trkpt lat="49.4962" lon="1.12991">
        <ele>151.54</ele>
        <time>2018-07-08T14:38:50Z</time>
      </trkpt>
      <trkpt lat="49.49621" lon="1.12985">
        <ele>151.54</ele>
        <time>2018-07-08T14:38:51Z</time>
      </trkpt>
      <trkpt lat="49.49622" lon="1.12978">
        <ele>151.54</ele>
        <time>2018-07-08T14:38:52Z</time>
      </trkpt>
      <trkpt lat="49.49623" lon="1.12972">
        <ele>151.54</ele>
        <time>2018-07-08T14:38:53Z</time>
      </trkpt>
      <trkpt lat="49.49624" lon="1.12967">
        <ele>151.54</ele>
        <time>2018-07-08T14:38:54Z</time>
      </trkpt>
      <trkpt lat="49.49624" lon="1.1296">
        <ele>151.54</ele>
        <time>2018-07-08T14:38:55Z</time>
      </trkpt>
      <trkpt lat="49.49625" lon="1.12954">
        <ele>151.54</ele>
        <time>2018-07-08T14:38:56Z</time>
      </trkpt>
      <trkpt lat="49.49626" lon="1.12947">
        <ele>151.54</ele>
        <time>2018-07-08T14:38:57Z</time>
      </trkpt>
      <trkpt lat="49.49626" lon="1.12941">
        <ele>151.54</ele>
        <time>2018-07-08T14:38:58Z</time>
      </trkpt>
      <trkpt lat="49.49632" lon="1.1289">
        <ele>152.99</ele>
        <time>2018-07-08T14:39:08Z</time>
      </trkpt>
      <trkpt lat="49.49636" lon="1.12865">
        <ele>152.51</ele>
        <time>2018-07-08T14:39:15Z</time>
      </trkpt>
      <trkpt lat="49.49639" lon="1.1286">
        <ele>152.51</ele>
        <time>2018-07-08T14:39:17Z</time>
      </trkpt>
      <trkpt lat="49.49641" lon="1.12858">
        <ele>152.51</ele>
        <time>2018-07-08T14:39:18Z</time>
      </trkpt>
      <trkpt lat="49.49643" lon="1.12855">
        <ele>152.51</ele>
        <time>2018-07-08T14:39:19Z</time>
      </trkpt>
      <trkpt lat="49.49645" lon="1.12853">
        <ele>152.51</ele>
        <time>2018-07-08T14:39:20Z</time>
      </trkpt>
      <trkpt lat="49.49646" lon="1.12849">
        <ele>152.51</ele>
        <time>2018-07-08T14:39:21Z</time>
      </trkpt>
      <trkpt lat="49.49647" lon="1.12843">
        <ele>152.51</ele>
        <time>2018-07-08T14:39:22Z</time>
      </trkpt>
      <trkpt lat="49.49648" lon="1.12838">
        <ele>152.51</ele>
        <time>2018-07-08T14:39:23Z</time>
      </trkpt>
      <trkpt lat="49.49649" lon="1.12832">
        <ele>152.51</ele>
        <time>2018-07-08T14:39:24Z</time>
      </trkpt>
      <trkpt lat="49.4965" lon="1.12827">
        <ele>152.51</ele>
        <time>2018-07-08T14:39:25Z</time>
      </trkpt>
      <trkpt lat="49.4965" lon="1.12804">
        <ele>152.51</ele>
        <time>2018-07-08T14:39:29Z</time>
      </trkpt>
      <trkpt lat="49.49652" lon="1.12799">
        <ele>152.51</ele>
        <time>2018-07-08T14:39:30Z</time>
      </trkpt>
      <trkpt lat="49.49653" lon="1.12793">
        <ele>152.51</ele>
        <time>2018-07-08T14:39:31Z</time>
      </trkpt>
      <trkpt lat="49.49657" lon="1.12782">
        <ele>152.99</ele>
        <time>2018-07-08T14:39:33Z</time>
      </trkpt>
      <trkpt lat="49.49661" lon="1.12776">
        <ele>152.99</ele>
        <time>2018-07-08T14:39:35Z</time>
      </trkpt>
      <trkpt lat="49.49662" lon="1.12771">
        <ele>152.99</ele>
        <time>2018-07-08T14:39:36Z</time>
      </trkpt>
      <trkpt lat="49.49664" lon="1.12764">
        <ele>152.99</ele>
        <time>2018-07-08T14:39:37Z</time>
      </trkpt>
      <trkpt lat="49.49665" lon="1.1275">
        <ele>152.99</ele>
        <time>2018-07-08T14:39:39Z</time>
      </trkpt>
      <trkpt lat="49.49667" lon="1.12743">
        <ele>152.99</ele>
        <time>2018-07-08T14:39:40Z</time>
      </trkpt>
      <trkpt lat="49.49671" lon="1.12731">
        <ele>152.99</ele>
        <time>2018-07-08T14:39:42Z</time>
      </trkpt>
      <trkpt lat="49.49673" lon="1.12725">
        <ele>152.99</ele>
        <time>2018-07-08T14:39:43Z</time>
      </trkpt>
      <trkpt lat="49.49674" lon="1.12719">
        <ele>152.99</ele>
        <time>2018-07-08T14:39:44Z</time>
      </trkpt>
      <trkpt lat="49.49675" lon="1.12712">
        <ele>152.99</ele>
        <time>2018-07-08T14:39:45Z</time>
      </trkpt>
      <trkpt lat="49.49675" lon="1.12705">
        <ele>152.99</ele>
        <time>2018-07-08T14:39:46Z</time>
      </trkpt>
      <trkpt lat="49.49676" lon="1.12691">
        <ele>152.99</ele>
        <time>2018-07-08T14:39:48Z</time>
      </trkpt>
      <trkpt lat="49.49678" lon="1.12676">
        <ele>152.99</ele>
        <time>2018-07-08T14:39:50Z</time>
      </trkpt>
      <trkpt lat="49.4968" lon="1.12669">
        <ele>152.99</ele>
        <time>2018-07-08T14:39:51Z</time>
      </trkpt>
      <trkpt lat="49.49682" lon="1.12662">
        <ele>152.99</ele>
        <time>2018-07-08T14:39:52Z</time>
      </trkpt>
      <trkpt lat="49.49682" lon="1.12654">
        <ele>152.99</ele>
        <time>2018-07-08T14:39:53Z</time>
      </trkpt>
      <trkpt lat="49.49683" lon="1.12646">
        <ele>152.99</ele>
        <time>2018-07-08T14:39:54Z</time>
      </trkpt>
      <trkpt lat="49.49684" lon="1.12639">
        <ele>152.99</ele>
        <time>2018-07-08T14:39:55Z</time>
      </trkpt>
      <trkpt lat="49.49685" lon="1.12632">
        <ele>152.99</ele>
        <time>2018-07-08T14:39:56Z</time>
      </trkpt>
      <trkpt lat="49.49689" lon="1.12613">
        <ele>152.99</ele>
        <time>2018-07-08T14:39:59Z</time>
      </trkpt>
      <trkpt lat="49.4969" lon="1.12607">
        <ele>152.99</ele>
        <time>2018-07-08T14:40:00Z</time>
      </trkpt>
      <trkpt lat="49.4969" lon="1.12601">
        <ele>151.54</ele>
        <time>2018-07-08T14:40:01Z</time>
      </trkpt>
      <trkpt lat="49.4969" lon="1.12596">
        <ele>151.54</ele>
        <time>2018-07-08T14:40:02Z</time>
      </trkpt>
      <trkpt lat="49.49691" lon="1.12591">
        <ele>151.54</ele>
        <time>2018-07-08T14:40:03Z</time>
      </trkpt>
      <trkpt lat="49.49691" lon="1.12585">
        <ele>151.06</ele>
        <time>2018-07-08T14:40:04Z</time>
      </trkpt>
      <trkpt lat="49.49692" lon="1.12579">
        <ele>150.58</ele>
        <time>2018-07-08T14:40:05Z</time>
      </trkpt>
      <trkpt lat="49.49691" lon="1.12573">
        <ele>150.1</ele>
        <time>2018-07-08T14:40:06Z</time>
      </trkpt>
      <trkpt lat="49.49689" lon="1.12568">
        <ele>150.1</ele>
        <time>2018-07-08T14:40:07Z</time>
      </trkpt>
      <trkpt lat="49.49689" lon="1.12563">
        <ele>149.62</ele>
        <time>2018-07-08T14:40:08Z</time>
      </trkpt>
      <trkpt lat="49.49688" lon="1.12559">
        <ele>149.62</ele>
        <time>2018-07-08T14:40:09Z</time>
      </trkpt>
      <trkpt lat="49.49684" lon="1.12548">
        <ele>149.62</ele>
        <time>2018-07-08T14:40:21Z</time>
      </trkpt>
      <trkpt lat="49.49683" lon="1.12543">
        <ele>149.14</ele>
        <time>2018-07-08T14:40:43Z</time>
      </trkpt>
      <trkpt lat="49.49685" lon="1.12545">
        <ele>149.14</ele>
        <time>2018-07-08T14:40:44Z</time>
      </trkpt>
      <trkpt lat="49.49688" lon="1.12547">
        <ele>149.14</ele>
        <time>2018-07-08T14:40:45Z</time>
      </trkpt>
      <trkpt lat="49.49719" lon="1.12551">
        <ele>145.3</ele>
        <time>2018-07-08T14:40:50Z</time>
      </trkpt>
      <trkpt lat="49.49726" lon="1.12551">
        <ele>144.82</ele>
        <time>2018-07-08T14:40:51Z</time>
      </trkpt>
      <trkpt lat="49.49733" lon="1.1255">
        <ele>144.82</ele>
        <time>2018-07-08T14:40:52Z</time>
      </trkpt>
      <trkpt lat="49.4974" lon="1.12552">
        <ele>143.85</ele>
        <time>2018-07-08T14:40:53Z</time>
      </trkpt>
      <trkpt lat="49.49777" lon="1.12564">
        <ele>140.49</ele>
        <time>2018-07-08T14:40:58Z</time>
      </trkpt>
      <trkpt lat="49.49825" lon="1.12586">
        <ele>137.13</ele>
        <time>2018-07-08T14:41:04Z</time>
      </trkpt>
      <trkpt lat="49.49843" lon="1.12594">
        <ele>136.16</ele>
        <time>2018-07-08T14:41:06Z</time>
      </trkpt>
      <trkpt lat="49.4987" lon="1.12602">
        <ele>132.8</ele>
        <time>2018-07-08T14:41:10Z</time>
      </trkpt>
      <trkpt lat="49.49888" lon="1.12608">
        <ele>129.92</ele>
        <time>2018-07-08T14:41:13Z</time>
      </trkpt>
      <trkpt lat="49.49895" lon="1.12608">
        <ele>128.47</ele>
        <time>2018-07-08T14:41:15Z</time>
      </trkpt>
      <trkpt lat="49.49898" lon="1.12605">
        <ele>128.47</ele>
        <time>2018-07-08T14:41:16Z</time>
      </trkpt>
      <trkpt lat="49.49901" lon="1.12601">
        <ele>128.47</ele>
        <time>2018-07-08T14:41:17Z</time>
      </trkpt>
      <trkpt lat="49.49902" lon="1.12595">
        <ele>127.99</ele>
        <time>2018-07-08T14:41:18Z</time>
      </trkpt>
      <trkpt lat="49.49903" lon="1.1259">
        <ele>128.47</ele>
        <time>2018-07-08T14:41:19Z</time>
      </trkpt>
      <trkpt lat="49.49904" lon="1.12584">
        <ele>128.47</ele>
        <time>2018-07-08T14:41:20Z</time>
      </trkpt>
      <trkpt lat="49.49905" lon="1.12578">
        <ele>127.99</ele>
        <time>2018-07-08T14:41:21Z</time>
      </trkpt>
      <trkpt lat="49.49912" lon="1.12543">
        <ele>131.84</ele>
        <time>2018-07-08T14:41:30Z</time>
      </trkpt>
      <trkpt lat="49.49914" lon="1.12533">
        <ele>133.28</ele>
        <time>2018-07-08T14:41:33Z</time>
      </trkpt>
      <trkpt lat="49.49924" lon="1.12479">
        <ele>134.72</ele>
        <time>2018-07-08T14:41:44Z</time>
      </trkpt>
      <trkpt lat="49.49928" lon="1.12457">
        <ele>135.2</ele>
        <time>2018-07-08T14:41:47Z</time>
      </trkpt>
      <trkpt lat="49.49929" lon="1.12449">
        <ele>134.72</ele>
        <time>2018-07-08T14:41:48Z</time>
      </trkpt>
      <trkpt lat="49.49931" lon="1.12441">
        <ele>134.72</ele>
        <time>2018-07-08T14:41:49Z</time>
      </trkpt>
      <trkpt lat="49.49942" lon="1.12376">
        <ele>136.16</ele>
        <time>2018-07-08T14:41:59Z</time>
      </trkpt>
      <trkpt lat="49.49952" lon="1.12315">
        <ele>139.05</ele>
        <time>2018-07-08T14:42:10Z</time>
      </trkpt>
      <trkpt lat="49.49956" lon="1.123">
        <ele>140.01</ele>
        <time>2018-07-08T14:42:13Z</time>
      </trkpt>
      <trkpt lat="49.49957" lon="1.12296">
        <ele>140.01</ele>
        <time>2018-07-08T14:42:14Z</time>
      </trkpt>
      <trkpt lat="49.49965" lon="1.12243">
        <ele>140.97</ele>
        <time>2018-07-08T14:42:24Z</time>
      </trkpt>
      <trkpt lat="49.49968" lon="1.1223">
        <ele>140.97</ele>
        <time>2018-07-08T14:42:26Z</time>
      </trkpt>
      <trkpt lat="49.4997" lon="1.12222">
        <ele>139.53</ele>
        <time>2018-07-08T14:42:27Z</time>
      </trkpt>
      <trkpt lat="49.4997" lon="1.12213">
        <ele>139.05</ele>
        <time>2018-07-08T14:42:28Z</time>
      </trkpt>
      <trkpt lat="49.49971" lon="1.12203">
        <ele>139.05</ele>
        <time>2018-07-08T14:42:29Z</time>
      </trkpt>
      <trkpt lat="49.49973" lon="1.12193">
        <ele>139.05</ele>
        <time>2018-07-08T14:42:30Z</time>
      </trkpt>
      <trkpt lat="49.49975" lon="1.12182">
        <ele>138.09</ele>
        <time>2018-07-08T14:42:31Z</time>
      </trkpt>
      <trkpt lat="49.49977" lon="1.12171">
        <ele>137.13</ele>
        <time>2018-07-08T14:42:32Z</time>
      </trkpt>
      <trkpt lat="49.49979" lon="1.12159">
        <ele>137.13</ele>
        <time>2018-07-08T14:42:33Z</time>
      </trkpt>
      <trkpt lat="49.49989" lon="1.12106">
        <ele>140.49</ele>
        <time>2018-07-08T14:42:39Z</time>
      </trkpt>
      <trkpt lat="49.49999" lon="1.12054">
        <ele>142.89</ele>
        <time>2018-07-08T14:42:50Z</time>
      </trkpt>
      <trkpt lat="49.50007" lon="1.11998">
        <ele>144.34</ele>
        <time>2018-07-08T14:43:02Z</time>
      </trkpt>
      <trkpt lat="49.50018" lon="1.11933">
        <ele>144.82</ele>
        <time>2018-07-08T14:43:13Z</time>
      </trkpt>
      <trkpt lat="49.50029" lon="1.11866">
        <ele>140.97</ele>
        <time>2018-07-08T14:43:20Z</time>
      </trkpt>
      <trkpt lat="49.50031" lon="1.11854">
        <ele>140.97</ele>
        <time>2018-07-08T14:43:21Z</time>
      </trkpt>
      <trkpt lat="49.50039" lon="1.11806">
        <ele>140.97</ele>
        <time>2018-07-08T14:43:27Z</time>
      </trkpt>
      <trkpt lat="49.5004" lon="1.11801">
        <ele>142.41</ele>
        <time>2018-07-08T14:43:37Z</time>
      </trkpt>
      <trkpt lat="49.50038" lon="1.11799">
        <ele>142.41</ele>
        <time>2018-07-08T14:43:57Z</time>
      </trkpt>
      <trkpt lat="49.50036" lon="1.11799">
        <ele>142.41</ele>
        <time>2018-07-08T14:43:58Z</time>
      </trkpt>
      <trkpt lat="49.50035" lon="1.11796">
        <ele>142.41</ele>
        <time>2018-07-08T14:44:01Z</time>
      </trkpt>
      <trkpt lat="49.50038" lon="1.1179">
        <ele>143.37</ele>
        <time>2018-07-08T14:44:05Z</time>
      </trkpt>
      <trkpt lat="49.50038" lon="1.11785">
        <ele>144.34</ele>
        <time>2018-07-08T14:44:07Z</time>
      </trkpt>
      <trkpt lat="49.50038" lon="1.11783">
        <ele>144.34</ele>
        <time>2018-07-08T14:44:08Z</time>
      </trkpt>
      <trkpt lat="49.50038" lon="1.11779">
        <ele>144.34</ele>
        <time>2018-07-08T14:44:09Z</time>
      </trkpt>
      <trkpt lat="49.50039" lon="1.11775">
        <ele>144.82</ele>
        <time>2018-07-08T14:44:10Z</time>
      </trkpt>
      <trkpt lat="49.50039" lon="1.11771">
        <ele>145.3</ele>
        <time>2018-07-08T14:44:11Z</time>
      </trkpt>
      <trkpt lat="49.5004" lon="1.11767">
        <ele>145.78</ele>
        <time>2018-07-08T14:44:12Z</time>
      </trkpt>
      <trkpt lat="49.50048" lon="1.11723">
        <ele>148.18</ele>
        <time>2018-07-08T14:44:22Z</time>
      </trkpt>
      <trkpt lat="49.50052" lon="1.11703">
        <ele>148.66</ele>
        <time>2018-07-08T14:44:27Z</time>
      </trkpt>
      <trkpt lat="49.50052" lon="1.11699">
        <ele>148.66</ele>
        <time>2018-07-08T14:44:28Z</time>
      </trkpt>
      <trkpt lat="49.50053" lon="1.11695">
        <ele>148.66</ele>
        <time>2018-07-08T14:44:29Z</time>
      </trkpt>
      <trkpt lat="49.50063" lon="1.11636">
        <ele>149.14</ele>
        <time>2018-07-08T14:44:39Z</time>
      </trkpt>
      <trkpt lat="49.50075" lon="1.11569">
        <ele>150.1</ele>
        <time>2018-07-08T14:44:50Z</time>
      </trkpt>
      <trkpt lat="49.50083" lon="1.11498">
        <ele>150.58</ele>
        <time>2018-07-08T14:45:02Z</time>
      </trkpt>
      <trkpt lat="49.50079" lon="1.11471">
        <ele>151.06</ele>
        <time>2018-07-08T14:45:07Z</time>
      </trkpt>
      <trkpt lat="49.50081" lon="1.11466">
        <ele>151.54</ele>
        <time>2018-07-08T14:45:08Z</time>
      </trkpt>
      <trkpt lat="49.50083" lon="1.11462">
        <ele>151.54</ele>
        <time>2018-07-08T14:45:09Z</time>
      </trkpt>
      <trkpt lat="49.50086" lon="1.11458">
        <ele>151.54</ele>
        <time>2018-07-08T14:45:10Z</time>
      </trkpt>
      <trkpt lat="49.50089" lon="1.11454">
        <ele>151.54</ele>
        <time>2018-07-08T14:45:11Z</time>
      </trkpt>
      <trkpt lat="49.50093" lon="1.11448">
        <ele>151.54</ele>
        <time>2018-07-08T14:45:12Z</time>
      </trkpt>
      <trkpt lat="49.50096" lon="1.11442">
        <ele>150.1</ele>
        <time>2018-07-08T14:45:13Z</time>
      </trkpt>
      <trkpt lat="49.50099" lon="1.11435">
        <ele>150.1</ele>
        <time>2018-07-08T14:45:14Z</time>
      </trkpt>
      <trkpt lat="49.50114" lon="1.11336">
        <ele>149.62</ele>
        <time>2018-07-08T14:45:25Z</time>
      </trkpt>
      <trkpt lat="49.50119" lon="1.113">
        <ele>149.14</ele>
        <time>2018-07-08T14:45:29Z</time>
      </trkpt>
      <trkpt lat="49.50123" lon="1.11282">
        <ele>148.66</ele>
        <time>2018-07-08T14:45:31Z</time>
      </trkpt>
      <trkpt lat="49.50125" lon="1.11264">
        <ele>148.66</ele>
        <time>2018-07-08T14:45:33Z</time>
      </trkpt>
      <trkpt lat="49.50126" lon="1.11255">
        <ele>148.18</ele>
        <time>2018-07-08T14:45:34Z</time>
      </trkpt>
      <trkpt lat="49.5013" lon="1.1123">
        <ele>146.74</ele>
        <time>2018-07-08T14:45:37Z</time>
      </trkpt>
      <trkpt lat="49.50131" lon="1.1122">
        <ele>146.26</ele>
        <time>2018-07-08T14:45:38Z</time>
      </trkpt>
      <trkpt lat="49.50133" lon="1.11199">
        <ele>146.26</ele>
        <time>2018-07-08T14:45:40Z</time>
      </trkpt>
      <trkpt lat="49.5014" lon="1.11164">
        <ele>147.7</ele>
        <time>2018-07-08T14:45:44Z</time>
      </trkpt>
      <trkpt lat="49.50141" lon="1.11156">
        <ele>147.7</ele>
        <time>2018-07-08T14:45:45Z</time>
      </trkpt>
      <trkpt lat="49.50146" lon="1.11122">
        <ele>150.1</ele>
        <time>2018-07-08T14:45:49Z</time>
      </trkpt>
      <trkpt lat="49.50146" lon="1.11113">
        <ele>150.1</ele>
        <time>2018-07-08T14:45:50Z</time>
      </trkpt>
      <trkpt lat="49.50148" lon="1.11104">
        <ele>150.1</ele>
        <time>2018-07-08T14:45:51Z</time>
      </trkpt>
      <trkpt lat="49.50149" lon="1.11096">
        <ele>150.1</ele>
        <time>2018-07-08T14:45:52Z</time>
      </trkpt>
      <trkpt lat="49.50151" lon="1.11088">
        <ele>150.58</ele>
        <time>2018-07-08T14:45:53Z</time>
      </trkpt>
      <trkpt lat="49.50153" lon="1.1108">
        <ele>150.58</ele>
        <time>2018-07-08T14:45:54Z</time>
      </trkpt>
      <trkpt lat="49.50155" lon="1.11072">
        <ele>150.58</ele>
        <time>2018-07-08T14:45:55Z</time>
      </trkpt>
      <trkpt lat="49.50164" lon="1.11017">
        <ele>151.54</ele>
        <time>2018-07-08T14:46:02Z</time>
      </trkpt>
      <trkpt lat="49.50165" lon="1.11009">
        <ele>151.54</ele>
        <time>2018-07-08T14:46:03Z</time>
      </trkpt>
      <trkpt lat="49.50167" lon="1.11001">
        <ele>151.54</ele>
        <time>2018-07-08T14:46:04Z</time>
      </trkpt>
      <trkpt lat="49.50168" lon="1.10993">
        <ele>151.54</ele>
        <time>2018-07-08T14:46:05Z</time>
      </trkpt>
      <trkpt lat="49.5017" lon="1.10985">
        <ele>151.54</ele>
        <time>2018-07-08T14:46:06Z</time>
      </trkpt>
      <trkpt lat="49.50171" lon="1.10978">
        <ele>151.54</ele>
        <time>2018-07-08T14:46:07Z</time>
      </trkpt>
      <trkpt lat="49.50173" lon="1.1097">
        <ele>151.54</ele>
        <time>2018-07-08T14:46:08Z</time>
      </trkpt>
      <trkpt lat="49.50174" lon="1.10963">
        <ele>151.54</ele>
        <time>2018-07-08T14:46:09Z</time>
      </trkpt>
      <trkpt lat="49.50175" lon="1.10956">
        <ele>151.54</ele>
        <time>2018-07-08T14:46:10Z</time>
      </trkpt>
      <trkpt lat="49.50177" lon="1.10948">
        <ele>151.54</ele>
        <time>2018-07-08T14:46:11Z</time>
      </trkpt>
      <trkpt lat="49.50178" lon="1.10941">
        <ele>151.54</ele>
        <time>2018-07-08T14:46:12Z</time>
      </trkpt>
      <trkpt lat="49.50179" lon="1.10933">
        <ele>151.54</ele>
        <time>2018-07-08T14:46:13Z</time>
      </trkpt>
      <trkpt lat="49.50184" lon="1.10908">
        <ele>151.54</ele>
        <time>2018-07-08T14:46:16Z</time>
      </trkpt>
      <trkpt lat="49.50185" lon="1.109">
        <ele>151.54</ele>
        <time>2018-07-08T14:46:17Z</time>
      </trkpt>
      <trkpt lat="49.50191" lon="1.10866">
        <ele>151.54</ele>
        <time>2018-07-08T14:46:21Z</time>
      </trkpt>
      <trkpt lat="49.50192" lon="1.10857">
        <ele>151.54</ele>
        <time>2018-07-08T14:46:22Z</time>
      </trkpt>
      <trkpt lat="49.50191" lon="1.10849">
        <ele>151.54</ele>
        <time>2018-07-08T14:46:23Z</time>
      </trkpt>
      <trkpt lat="49.50189" lon="1.10843">
        <ele>151.54</ele>
        <time>2018-07-08T14:46:24Z</time>
      </trkpt>
      <trkpt lat="49.50187" lon="1.10839">
        <ele>151.54</ele>
        <time>2018-07-08T14:46:25Z</time>
      </trkpt>
      <trkpt lat="49.50183" lon="1.10835">
        <ele>151.54</ele>
        <time>2018-07-08T14:46:26Z</time>
      </trkpt>
      <trkpt lat="49.50179" lon="1.10833">
        <ele>152.51</ele>
        <time>2018-07-08T14:46:27Z</time>
      </trkpt>
      <trkpt lat="49.50176" lon="1.10831">
        <ele>152.51</ele>
        <time>2018-07-08T14:46:28Z</time>
      </trkpt>
      <trkpt lat="49.50142" lon="1.10818">
        <ele>154.91</ele>
        <time>2018-07-08T14:46:38Z</time>
      </trkpt>
      <trkpt lat="49.50114" lon="1.10815">
        <ele>156.35</ele>
        <time>2018-07-08T14:46:47Z</time>
      </trkpt>
      <trkpt lat="49.50107" lon="1.10814">
        <ele>156.35</ele>
        <time>2018-07-08T14:46:49Z</time>
      </trkpt>
      <trkpt lat="49.50064" lon="1.10821">
        <ele>157.79</ele>
        <time>2018-07-08T14:47:00Z</time>
      </trkpt>
      <trkpt lat="49.50023" lon="1.10823">
        <ele>158.75</ele>
        <time>2018-07-08T14:47:11Z</time>
      </trkpt>
      <trkpt lat="49.50007" lon="1.1082">
        <ele>159.24</ele>
        <time>2018-07-08T14:47:15Z</time>
      </trkpt>
      <trkpt lat="49.50003" lon="1.10816">
        <ele>159.72</ele>
        <time>2018-07-08T14:47:16Z</time>
      </trkpt>
      <trkpt lat="49.49999" lon="1.10814">
        <ele>159.72</ele>
        <time>2018-07-08T14:47:17Z</time>
      </trkpt>
      <trkpt lat="49.49995" lon="1.10813">
        <ele>159.72</ele>
        <time>2018-07-08T14:47:18Z</time>
      </trkpt>
      <trkpt lat="49.49991" lon="1.10812">
        <ele>159.72</ele>
        <time>2018-07-08T14:47:19Z</time>
      </trkpt>
      <trkpt lat="49.49982" lon="1.10811">
        <ele>159.72</ele>
        <time>2018-07-08T14:47:21Z</time>
      </trkpt>
      <trkpt lat="49.49978" lon="1.10814">
        <ele>159.72</ele>
        <time>2018-07-08T14:47:22Z</time>
      </trkpt>
      <trkpt lat="49.49974" lon="1.10815">
        <ele>159.72</ele>
        <time>2018-07-08T14:47:23Z</time>
      </trkpt>
      <trkpt lat="49.49972" lon="1.10817">
        <ele>159.72</ele>
        <time>2018-07-08T14:47:24Z</time>
      </trkpt>
      <trkpt lat="49.49969" lon="1.10818">
        <ele>159.72</ele>
        <time>2018-07-08T14:47:25Z</time>
      </trkpt>
      <trkpt lat="49.49966" lon="1.10817">
        <ele>159.72</ele>
        <time>2018-07-08T14:47:26Z</time>
      </trkpt>
      <trkpt lat="49.49964" lon="1.10815">
        <ele>159.72</ele>
        <time>2018-07-08T14:47:27Z</time>
      </trkpt>
      <trkpt lat="49.49962" lon="1.10812">
        <ele>159.72</ele>
        <time>2018-07-08T14:47:28Z</time>
      </trkpt>
      <trkpt lat="49.4996" lon="1.10809">
        <ele>159.72</ele>
        <time>2018-07-08T14:47:29Z</time>
      </trkpt>
      <trkpt lat="49.49958" lon="1.10806">
        <ele>159.72</ele>
        <time>2018-07-08T14:47:30Z</time>
      </trkpt>
      <trkpt lat="49.49956" lon="1.10804">
        <ele>159.72</ele>
        <time>2018-07-08T14:47:31Z</time>
      </trkpt>
      <trkpt lat="49.49952" lon="1.10802">
        <ele>159.72</ele>
        <time>2018-07-08T14:47:32Z</time>
      </trkpt>
      <trkpt lat="49.49949" lon="1.10801">
        <ele>159.72</ele>
        <time>2018-07-08T14:47:33Z</time>
      </trkpt>
      <trkpt lat="49.49935" lon="1.10772">
        <ele>159.72</ele>
        <time>2018-07-08T14:47:41Z</time>
      </trkpt>
      <trkpt lat="49.49929" lon="1.10752">
        <ele>160.68</ele>
        <time>2018-07-08T14:47:45Z</time>
      </trkpt>
      <trkpt lat="49.49927" lon="1.10747">
        <ele>160.68</ele>
        <time>2018-07-08T14:47:46Z</time>
      </trkpt>
      <trkpt lat="49.49926" lon="1.10741">
        <ele>160.68</ele>
        <time>2018-07-08T14:47:47Z</time>
      </trkpt>
      <trkpt lat="49.49924" lon="1.10735">
        <ele>161.16</ele>
        <time>2018-07-08T14:47:48Z</time>
      </trkpt>
      <trkpt lat="49.49922" lon="1.1073">
        <ele>161.16</ele>
        <time>2018-07-08T14:47:49Z</time>
      </trkpt>
      <trkpt lat="49.49919" lon="1.10725">
        <ele>161.16</ele>
        <time>2018-07-08T14:47:50Z</time>
      </trkpt>
      <trkpt lat="49.49917" lon="1.1072">
        <ele>161.16</ele>
        <time>2018-07-08T14:47:51Z</time>
      </trkpt>
      <trkpt lat="49.49916" lon="1.10714">
        <ele>161.16</ele>
        <time>2018-07-08T14:47:52Z</time>
      </trkpt>
      <trkpt lat="49.49915" lon="1.10709">
        <ele>161.16</ele>
        <time>2018-07-08T14:47:53Z</time>
      </trkpt>
      <trkpt lat="49.49912" lon="1.10704">
        <ele>161.16</ele>
        <time>2018-07-08T14:47:54Z</time>
      </trkpt>
      <trkpt lat="49.49909" lon="1.107">
        <ele>161.16</ele>
        <time>2018-07-08T14:47:55Z</time>
      </trkpt>
      <trkpt lat="49.49907" lon="1.10695">
        <ele>161.16</ele>
        <time>2018-07-08T14:47:56Z</time>
      </trkpt>
      <trkpt lat="49.49904" lon="1.10691">
        <ele>161.16</ele>
        <time>2018-07-08T14:47:57Z</time>
      </trkpt>
      <trkpt lat="49.49903" lon="1.10686">
        <ele>160.68</ele>
        <time>2018-07-08T14:47:58Z</time>
      </trkpt>
      <trkpt lat="49.49901" lon="1.10681">
        <ele>160.68</ele>
        <time>2018-07-08T14:47:59Z</time>
      </trkpt>
      <trkpt lat="49.49899" lon="1.10676">
        <ele>160.68</ele>
        <time>2018-07-08T14:48:00Z</time>
      </trkpt>
      <trkpt lat="49.49898" lon="1.1067">
        <ele>159.72</ele>
        <time>2018-07-08T14:48:01Z</time>
      </trkpt>
      <trkpt lat="49.49896" lon="1.10665">
        <ele>159.72</ele>
        <time>2018-07-08T14:48:02Z</time>
      </trkpt>
      <trkpt lat="49.49894" lon="1.10659">
        <ele>159.72</ele>
        <time>2018-07-08T14:48:03Z</time>
      </trkpt>
      <trkpt lat="49.49891" lon="1.10654">
        <ele>159.72</ele>
        <time>2018-07-08T14:48:04Z</time>
      </trkpt>
      <trkpt lat="49.4989" lon="1.10647">
        <ele>159.72</ele>
        <time>2018-07-08T14:48:05Z</time>
      </trkpt>
      <trkpt lat="49.49889" lon="1.10641">
        <ele>159.72</ele>
        <time>2018-07-08T14:48:06Z</time>
      </trkpt>
      <trkpt lat="49.49887" lon="1.10635">
        <ele>159.72</ele>
        <time>2018-07-08T14:48:07Z</time>
      </trkpt>
      <trkpt lat="49.49883" lon="1.10612">
        <ele>159.24</ele>
        <time>2018-07-08T14:48:12Z</time>
      </trkpt>
      <trkpt lat="49.4988" lon="1.10599">
        <ele>159.24</ele>
        <time>2018-07-08T14:48:14Z</time>
      </trkpt>
      <trkpt lat="49.49874" lon="1.10573">
        <ele>159.24</ele>
        <time>2018-07-08T14:48:18Z</time>
      </trkpt>
      <trkpt lat="49.49872" lon="1.1056">
        <ele>159.24</ele>
        <time>2018-07-08T14:48:20Z</time>
      </trkpt>
      <trkpt lat="49.49857" lon="1.10517">
        <ele>159.24</ele>
        <time>2018-07-08T14:48:28Z</time>
      </trkpt>
      <trkpt lat="49.49856" lon="1.10512">
        <ele>159.24</ele>
        <time>2018-07-08T14:48:29Z</time>
      </trkpt>
      <trkpt lat="49.49855" lon="1.10509">
        <ele>158.75</ele>
        <time>2018-07-08T14:48:30Z</time>
      </trkpt>
      <trkpt lat="49.49855" lon="1.10505">
        <ele>158.75</ele>
        <time>2018-07-08T14:48:31Z</time>
      </trkpt>
      <trkpt lat="49.49854" lon="1.10502">
        <ele>158.75</ele>
        <time>2018-07-08T14:48:32Z</time>
      </trkpt>
      <trkpt lat="49.49857" lon="1.10445">
        <ele>158.75</ele>
        <time>2018-07-08T14:48:45Z</time>
      </trkpt>
      <trkpt lat="49.49867" lon="1.10392">
        <ele>158.75</ele>
        <time>2018-07-08T14:48:53Z</time>
      </trkpt>
      <trkpt lat="49.49886" lon="1.10299">
        <ele>158.75</ele>
        <time>2018-07-08T14:49:05Z</time>
      </trkpt>
      <trkpt lat="49.49888" lon="1.10284">
        <ele>158.75</ele>
        <time>2018-07-08T14:49:07Z</time>
      </trkpt>
      <trkpt lat="49.4989" lon="1.10277">
        <ele>158.75</ele>
        <time>2018-07-08T14:49:08Z</time>
      </trkpt>
      <trkpt lat="49.49891" lon="1.1027">
        <ele>158.75</ele>
        <time>2018-07-08T14:49:09Z</time>
      </trkpt>
      <trkpt lat="49.49893" lon="1.1025">
        <ele>158.75</ele>
        <time>2018-07-08T14:49:12Z</time>
      </trkpt>
      <trkpt lat="49.49913" lon="1.10135">
        <ele>158.75</ele>
        <time>2018-07-08T14:49:27Z</time>
      </trkpt>
      <trkpt lat="49.49936" lon="1.10018">
        <ele>158.27</ele>
        <time>2018-07-08T14:49:41Z</time>
      </trkpt>
      <trkpt lat="49.49951" lon="1.09938">
        <ele>156.83</ele>
        <time>2018-07-08T14:49:52Z</time>
      </trkpt>
      <trkpt lat="49.4995" lon="1.0994">
        <ele>156.83</ele>
        <time>2018-07-08T14:49:54Z</time>
      </trkpt>
      <trkpt lat="49.4995" lon="1.09942">
        <ele>156.83</ele>
        <time>2018-07-08T14:49:55Z</time>
      </trkpt>
      <trkpt lat="49.49951" lon="1.09944">
        <ele>156.83</ele>
        <time>2018-07-08T14:49:56Z</time>
      </trkpt>
      <trkpt lat="49.49953" lon="1.09945">
        <ele>156.83</ele>
        <time>2018-07-08T14:49:57Z</time>
      </trkpt>
      <trkpt lat="49.49956" lon="1.09946">
        <ele>156.83</ele>
        <time>2018-07-08T14:49:58Z</time>
      </trkpt>
      <trkpt lat="49.4996" lon="1.09947">
        <ele>156.83</ele>
        <time>2018-07-08T14:49:59Z</time>
      </trkpt>
      <trkpt lat="49.49968" lon="1.09951">
        <ele>156.35</ele>
        <time>2018-07-08T14:50:01Z</time>
      </trkpt>
      <trkpt lat="49.49978" lon="1.09955">
        <ele>156.35</ele>
        <time>2018-07-08T14:50:03Z</time>
      </trkpt>
      <trkpt lat="49.49983" lon="1.09956">
        <ele>156.35</ele>
        <time>2018-07-08T14:50:04Z</time>
      </trkpt>
      <trkpt lat="49.50001" lon="1.09959">
        <ele>156.35</ele>
        <time>2018-07-08T14:50:08Z</time>
      </trkpt>
      <trkpt lat="49.50006" lon="1.09962">
        <ele>156.35</ele>
        <time>2018-07-08T14:50:09Z</time>
      </trkpt>
      <trkpt lat="49.5001" lon="1.09965">
        <ele>155.87</ele>
        <time>2018-07-08T14:50:10Z</time>
      </trkpt>
      <trkpt lat="49.50014" lon="1.09966">
        <ele>155.87</ele>
        <time>2018-07-08T14:50:11Z</time>
      </trkpt>
      <trkpt lat="49.50017" lon="1.09967">
        <ele>155.39</ele>
        <time>2018-07-08T14:50:12Z</time>
      </trkpt>
      <trkpt lat="49.50021" lon="1.09968">
        <ele>155.39</ele>
        <time>2018-07-08T14:50:13Z</time>
      </trkpt>
      <trkpt lat="49.50024" lon="1.0997">
        <ele>155.39</ele>
        <time>2018-07-08T14:50:14Z</time>
      </trkpt>
      <trkpt lat="49.50027" lon="1.09972">
        <ele>155.39</ele>
        <time>2018-07-08T14:50:15Z</time>
      </trkpt>
      <trkpt lat="49.50031" lon="1.09974">
        <ele>154.91</ele>
        <time>2018-07-08T14:50:16Z</time>
      </trkpt>
      <trkpt lat="49.50034" lon="1.09975">
        <ele>154.91</ele>
        <time>2018-07-08T14:50:17Z</time>
      </trkpt>
      <trkpt lat="49.50039" lon="1.09978">
        <ele>154.43</ele>
        <time>2018-07-08T14:50:18Z</time>
      </trkpt>
      <trkpt lat="49.50044" lon="1.09981">
        <ele>154.43</ele>
        <time>2018-07-08T14:50:19Z</time>
      </trkpt>
      <trkpt lat="49.50054" lon="1.09987">
        <ele>154.43</ele>
        <time>2018-07-08T14:50:21Z</time>
      </trkpt>
      <trkpt lat="49.50079" lon="1.09996">
        <ele>152.99</ele>
        <time>2018-07-08T14:50:26Z</time>
      </trkpt>
      <trkpt lat="49.50084" lon="1.09998">
        <ele>152.99</ele>
        <time>2018-07-08T14:50:27Z</time>
      </trkpt>
      <trkpt lat="49.50089" lon="1.1">
        <ele>152.51</ele>
        <time>2018-07-08T14:50:28Z</time>
      </trkpt>
      <trkpt lat="49.50112" lon="1.10011">
        <ele>151.06</ele>
        <time>2018-07-08T14:50:32Z</time>
      </trkpt>
      <trkpt lat="49.50153" lon="1.10025">
        <ele>148.18</ele>
        <time>2018-07-08T14:50:39Z</time>
      </trkpt>
      <trkpt lat="49.50178" lon="1.10038">
        <ele>145.3</ele>
        <time>2018-07-08T14:50:45Z</time>
      </trkpt>
      <trkpt lat="49.5019" lon="1.10043">
        <ele>144.34</ele>
        <time>2018-07-08T14:50:47Z</time>
      </trkpt>
      <trkpt lat="49.50202" lon="1.10045">
        <ele>141.93</ele>
        <time>2018-07-08T14:50:53Z</time>
      </trkpt>
      <trkpt lat="49.50204" lon="1.10044">
        <ele>141.93</ele>
        <time>2018-07-08T14:50:58Z</time>
      </trkpt>
      <trkpt lat="49.50205" lon="1.10042">
        <ele>141.93</ele>
        <time>2018-07-08T14:50:59Z</time>
      </trkpt>
      <trkpt lat="49.50208" lon="1.10029">
        <ele>141.93</ele>
        <time>2018-07-08T14:51:05Z</time>
      </trkpt>
      <trkpt lat="49.50208" lon="1.10026">
        <ele>141.93</ele>
        <time>2018-07-08T14:51:06Z</time>
      </trkpt>
      <trkpt lat="49.50208" lon="1.10022">
        <ele>141.93</ele>
        <time>2018-07-08T14:51:07Z</time>
      </trkpt>
      <trkpt lat="49.50207" lon="1.10019">
        <ele>141.93</ele>
        <time>2018-07-08T14:51:08Z</time>
      </trkpt>
      <trkpt lat="49.50207" lon="1.10015">
        <ele>141.93</ele>
        <time>2018-07-08T14:51:09Z</time>
      </trkpt>
      <trkpt lat="49.50206" lon="1.10011">
        <ele>141.93</ele>
        <time>2018-07-08T14:51:10Z</time>
      </trkpt>
      <trkpt lat="49.50205" lon="1.10007">
        <ele>141.93</ele>
        <time>2018-07-08T14:51:11Z</time>
      </trkpt>
      <trkpt lat="49.50203" lon="1.10004">
        <ele>141.93</ele>
        <time>2018-07-08T14:51:12Z</time>
      </trkpt>
      <trkpt lat="49.50201" lon="1.1">
        <ele>141.93</ele>
        <time>2018-07-08T14:51:13Z</time>
      </trkpt>
      <trkpt lat="49.50192" lon="1.09988">
        <ele>143.85</ele>
        <time>2018-07-08T14:51:17Z</time>
      </trkpt>
      <trkpt lat="49.50189" lon="1.09986">
        <ele>143.85</ele>
        <time>2018-07-08T14:51:18Z</time>
      </trkpt>
      <trkpt lat="49.50185" lon="1.09984">
        <ele>144.82</ele>
        <time>2018-07-08T14:51:19Z</time>
      </trkpt>
      <trkpt lat="49.50183" lon="1.09982">
        <ele>145.3</ele>
        <time>2018-07-08T14:51:20Z</time>
      </trkpt>
      <trkpt lat="49.5018" lon="1.0998">
        <ele>145.3</ele>
        <time>2018-07-08T14:51:21Z</time>
      </trkpt>
      <trkpt lat="49.50177" lon="1.09978">
        <ele>145.78</ele>
        <time>2018-07-08T14:51:22Z</time>
      </trkpt>
      <trkpt lat="49.50175" lon="1.09976">
        <ele>145.78</ele>
        <time>2018-07-08T14:51:23Z</time>
      </trkpt>
      <trkpt lat="49.50172" lon="1.09973">
        <ele>146.26</ele>
        <time>2018-07-08T14:51:24Z</time>
      </trkpt>
      <trkpt lat="49.50169" lon="1.0997">
        <ele>146.26</ele>
        <time>2018-07-08T14:51:25Z</time>
      </trkpt>
      <trkpt lat="49.50166" lon="1.09968">
        <ele>147.22</ele>
        <time>2018-07-08T14:51:26Z</time>
      </trkpt>
      <trkpt lat="49.5014" lon="1.09944">
        <ele>149.14</ele>
        <time>2018-07-08T14:51:35Z</time>
      </trkpt>
      <trkpt lat="49.50137" lon="1.0994">
        <ele>149.14</ele>
        <time>2018-07-08T14:51:36Z</time>
      </trkpt>
      <trkpt lat="49.50135" lon="1.09937">
        <ele>149.62</ele>
        <time>2018-07-08T14:51:37Z</time>
      </trkpt>
      <trkpt lat="49.50128" lon="1.09927">
        <ele>149.62</ele>
        <time>2018-07-08T14:51:40Z</time>
      </trkpt>
      <trkpt lat="49.50118" lon="1.09919">
        <ele>150.58</ele>
        <time>2018-07-08T14:51:44Z</time>
      </trkpt>
      <trkpt lat="49.50117" lon="1.09916">
        <ele>150.58</ele>
        <time>2018-07-08T14:51:45Z</time>
      </trkpt>
      <trkpt lat="49.50117" lon="1.09912">
        <ele>150.58</ele>
        <time>2018-07-08T14:51:46Z</time>
      </trkpt>
      <trkpt lat="49.50115" lon="1.09909">
        <ele>150.58</ele>
        <time>2018-07-08T14:51:47Z</time>
      </trkpt>
      <trkpt lat="49.50114" lon="1.09904">
        <ele>150.58</ele>
        <time>2018-07-08T14:51:48Z</time>
      </trkpt>
      <trkpt lat="49.50113" lon="1.09899">
        <ele>150.58</ele>
        <time>2018-07-08T14:51:49Z</time>
      </trkpt>
      <trkpt lat="49.50112" lon="1.09893">
        <ele>150.58</ele>
        <time>2018-07-08T14:51:50Z</time>
      </trkpt>
      <trkpt lat="49.5011" lon="1.09887">
        <ele>150.58</ele>
        <time>2018-07-08T14:51:51Z</time>
      </trkpt>
      <trkpt lat="49.50109" lon="1.09882">
        <ele>150.58</ele>
        <time>2018-07-08T14:51:52Z</time>
      </trkpt>
      <trkpt lat="49.50107" lon="1.09878">
        <ele>150.58</ele>
        <time>2018-07-08T14:51:53Z</time>
      </trkpt>
      <trkpt lat="49.50105" lon="1.09873">
        <ele>150.58</ele>
        <time>2018-07-08T14:51:54Z</time>
      </trkpt>
      <trkpt lat="49.50103" lon="1.09869">
        <ele>150.58</ele>
        <time>2018-07-08T14:51:55Z</time>
      </trkpt>
      <trkpt lat="49.50102" lon="1.0986">
        <ele>150.58</ele>
        <time>2018-07-08T14:51:57Z</time>
      </trkpt>
      <trkpt lat="49.50102" lon="1.09855">
        <ele>150.58</ele>
        <time>2018-07-08T14:51:58Z</time>
      </trkpt>
      <trkpt lat="49.50099" lon="1.09835">
        <ele>150.58</ele>
        <time>2018-07-08T14:52:02Z</time>
      </trkpt>
      <trkpt lat="49.50097" lon="1.09831">
        <ele>150.58</ele>
        <time>2018-07-08T14:52:03Z</time>
      </trkpt>
      <trkpt lat="49.50094" lon="1.09829">
        <ele>150.58</ele>
        <time>2018-07-08T14:52:04Z</time>
      </trkpt>
      <trkpt lat="49.50091" lon="1.09827">
        <ele>150.58</ele>
        <time>2018-07-08T14:52:05Z</time>
      </trkpt>
      <trkpt lat="49.50087" lon="1.09826">
        <ele>151.06</ele>
        <time>2018-07-08T14:52:06Z</time>
      </trkpt>
      <trkpt lat="49.50084" lon="1.09824">
        <ele>151.06</ele>
        <time>2018-07-08T14:52:07Z</time>
      </trkpt>
      <trkpt lat="49.50061" lon="1.09819">
        <ele>152.51</ele>
        <time>2018-07-08T14:52:16Z</time>
      </trkpt>
      <trkpt lat="49.50059" lon="1.09817">
        <ele>152.99</ele>
        <time>2018-07-08T14:52:17Z</time>
      </trkpt>
      <trkpt lat="49.50056" lon="1.09816">
        <ele>152.99</ele>
        <time>2018-07-08T14:52:18Z</time>
      </trkpt>
      <trkpt lat="49.50053" lon="1.09816">
        <ele>152.99</ele>
        <time>2018-07-08T14:52:19Z</time>
      </trkpt>
      <trkpt lat="49.50051" lon="1.09816">
        <ele>152.99</ele>
        <time>2018-07-08T14:52:20Z</time>
      </trkpt>
      <trkpt lat="49.50048" lon="1.09816">
        <ele>152.99</ele>
        <time>2018-07-08T14:52:21Z</time>
      </trkpt>
      <trkpt lat="49.50044" lon="1.09815">
        <ele>153.47</ele>
        <time>2018-07-08T14:52:22Z</time>
      </trkpt>
      <trkpt lat="49.50041" lon="1.09815">
        <ele>153.47</ele>
        <time>2018-07-08T14:52:23Z</time>
      </trkpt>
      <trkpt lat="49.50038" lon="1.09814">
        <ele>153.47</ele>
        <time>2018-07-08T14:52:24Z</time>
      </trkpt>
      <trkpt lat="49.50035" lon="1.09813">
        <ele>153.47</ele>
        <time>2018-07-08T14:52:25Z</time>
      </trkpt>
      <trkpt lat="49.50031" lon="1.09813">
        <ele>153.47</ele>
        <time>2018-07-08T14:52:26Z</time>
      </trkpt>
      <trkpt lat="49.50028" lon="1.09813">
        <ele>153.47</ele>
        <time>2018-07-08T14:52:27Z</time>
      </trkpt>
      <trkpt lat="49.50024" lon="1.09813">
        <ele>154.43</ele>
        <time>2018-07-08T14:52:28Z</time>
      </trkpt>
      <trkpt lat="49.5002" lon="1.09813">
        <ele>154.43</ele>
        <time>2018-07-08T14:52:29Z</time>
      </trkpt>
      <trkpt lat="49.50017" lon="1.09813">
        <ele>154.43</ele>
        <time>2018-07-08T14:52:30Z</time>
      </trkpt>
      <trkpt lat="49.49982" lon="1.09817">
        <ele>155.39</ele>
        <time>2018-07-08T14:52:41Z</time>
      </trkpt>
      <trkpt lat="49.49955" lon="1.09809">
        <ele>155.87</ele>
        <time>2018-07-08T14:52:53Z</time>
      </trkpt>
      <trkpt lat="49.4992" lon="1.09795">
        <ele>155.87</ele>
        <time>2018-07-08T14:53:03Z</time>
      </trkpt>
      <trkpt lat="49.49905" lon="1.09777">
        <ele>154.43</ele>
        <time>2018-07-08T14:53:09Z</time>
      </trkpt>
      <trkpt lat="49.49884" lon="1.09736">
        <ele>152.51</ele>
        <time>2018-07-08T14:53:17Z</time>
      </trkpt>
      <trkpt lat="49.4988" lon="1.09731">
        <ele>152.03</ele>
        <time>2018-07-08T14:53:18Z</time>
      </trkpt>
      <trkpt lat="49.49858" lon="1.09705">
        <ele>150.1</ele>
        <time>2018-07-08T14:53:25Z</time>
      </trkpt>
      <trkpt lat="49.49838" lon="1.09703">
        <ele>151.54</ele>
        <time>2018-07-08T14:53:49Z</time>
      </trkpt>
      <trkpt lat="49.49835" lon="1.09705">
        <ele>151.54</ele>
        <time>2018-07-08T14:53:52Z</time>
      </trkpt>
      <trkpt lat="49.49833" lon="1.09705">
        <ele>151.54</ele>
        <time>2018-07-08T14:53:53Z</time>
      </trkpt>
      <trkpt lat="49.49829" lon="1.09705">
        <ele>151.54</ele>
        <time>2018-07-08T14:53:55Z</time>
      </trkpt>
      <trkpt lat="49.49827" lon="1.09705">
        <ele>151.54</ele>
        <time>2018-07-08T14:53:56Z</time>
      </trkpt>
      <trkpt lat="49.49825" lon="1.09705">
        <ele>150.1</ele>
        <time>2018-07-08T14:53:57Z</time>
      </trkpt>
      <trkpt lat="49.49821" lon="1.09705">
        <ele>150.1</ele>
        <time>2018-07-08T14:53:58Z</time>
      </trkpt>
      <trkpt lat="49.49817" lon="1.09704">
        <ele>149.62</ele>
        <time>2018-07-08T14:53:59Z</time>
      </trkpt>
      <trkpt lat="49.49812" lon="1.09703">
        <ele>149.14</ele>
        <time>2018-07-08T14:54:00Z</time>
      </trkpt>
      <trkpt lat="49.49808" lon="1.09702">
        <ele>149.14</ele>
        <time>2018-07-08T14:54:01Z</time>
      </trkpt>
      <trkpt lat="49.49804" lon="1.09702">
        <ele>149.14</ele>
        <time>2018-07-08T14:54:02Z</time>
      </trkpt>
      <trkpt lat="49.49801" lon="1.09702">
        <ele>148.66</ele>
        <time>2018-07-08T14:54:03Z</time>
      </trkpt>
      <trkpt lat="49.49799" lon="1.09702">
        <ele>148.66</ele>
        <time>2018-07-08T14:54:04Z</time>
      </trkpt>
      <trkpt lat="49.49797" lon="1.09701">
        <ele>148.66</ele>
        <time>2018-07-08T14:54:05Z</time>
      </trkpt>
      <trkpt lat="49.49795" lon="1.09701">
        <ele>148.66</ele>
        <time>2018-07-08T14:54:06Z</time>
      </trkpt>
      <trkpt lat="49.49793" lon="1.09703">
        <ele>148.66</ele>
        <time>2018-07-08T14:54:07Z</time>
      </trkpt>
      <trkpt lat="49.4979" lon="1.09703">
        <ele>148.66</ele>
        <time>2018-07-08T14:54:08Z</time>
      </trkpt>
      <trkpt lat="49.4978" lon="1.09697">
        <ele>149.14</ele>
        <time>2018-07-08T14:54:19Z</time>
      </trkpt>
      <trkpt lat="49.4978" lon="1.09694">
        <ele>149.14</ele>
        <time>2018-07-08T14:54:27Z</time>
      </trkpt>
      <trkpt lat="49.49781" lon="1.09691">
        <ele>149.14</ele>
        <time>2018-07-08T14:54:28Z</time>
      </trkpt>
      <trkpt lat="49.49782" lon="1.09689">
        <ele>149.14</ele>
        <time>2018-07-08T14:54:29Z</time>
      </trkpt>
      <trkpt lat="49.49784" lon="1.09686">
        <ele>149.14</ele>
        <time>2018-07-08T14:54:30Z</time>
      </trkpt>
      <trkpt lat="49.49786" lon="1.09681">
        <ele>149.14</ele>
        <time>2018-07-08T14:54:31Z</time>
      </trkpt>
      <trkpt lat="49.49816" lon="1.0961">
        <ele>146.26</ele>
        <time>2018-07-08T14:54:41Z</time>
      </trkpt>
      <trkpt lat="49.49821" lon="1.09591">
        <ele>144.82</ele>
        <time>2018-07-08T14:54:43Z</time>
      </trkpt>
      <trkpt lat="49.49822" lon="1.09581">
        <ele>144.82</ele>
        <time>2018-07-08T14:54:44Z</time>
      </trkpt>
      <trkpt lat="49.49822" lon="1.09571">
        <ele>144.82</ele>
        <time>2018-07-08T14:54:45Z</time>
      </trkpt>
      <trkpt lat="49.49821" lon="1.09515">
        <ele>148.18</ele>
        <time>2018-07-08T14:54:55Z</time>
      </trkpt>
      <trkpt lat="49.49821" lon="1.09489">
        <ele>150.58</ele>
        <time>2018-07-08T14:55:01Z</time>
      </trkpt>
      <trkpt lat="49.49822" lon="1.09486">
        <ele>150.58</ele>
        <time>2018-07-08T14:55:02Z</time>
      </trkpt>
      <trkpt lat="49.49821" lon="1.09483">
        <ele>151.54</ele>
        <time>2018-07-08T14:55:03Z</time>
      </trkpt>
      <trkpt lat="49.49821" lon="1.0948">
        <ele>151.54</ele>
        <time>2018-07-08T14:55:04Z</time>
      </trkpt>
      <trkpt lat="49.49821" lon="1.09476">
        <ele>151.54</ele>
        <time>2018-07-08T14:55:05Z</time>
      </trkpt>
      <trkpt lat="49.4982" lon="1.09471">
        <ele>152.51</ele>
        <time>2018-07-08T14:55:06Z</time>
      </trkpt>
      <trkpt lat="49.49803" lon="1.09411">
        <ele>154.43</ele>
        <time>2018-07-08T14:55:19Z</time>
      </trkpt>
      <trkpt lat="49.49778" lon="1.09358">
        <ele>155.39</ele>
        <time>2018-07-08T14:55:31Z</time>
      </trkpt>
      <trkpt lat="49.49752" lon="1.09297">
        <ele>154.91</ele>
        <time>2018-07-08T14:55:44Z</time>
      </trkpt>
      <trkpt lat="49.49744" lon="1.09279">
        <ele>154.91</ele>
        <time>2018-07-08T14:55:47Z</time>
      </trkpt>
      <trkpt lat="49.49719" lon="1.09224">
        <ele>153.47</ele>
        <time>2018-07-08T14:55:54Z</time>
      </trkpt>
      <trkpt lat="49.49716" lon="1.09217">
        <ele>153.47</ele>
        <time>2018-07-08T14:55:55Z</time>
      </trkpt>
      <trkpt lat="49.4971" lon="1.09211">
        <ele>153.47</ele>
        <time>2018-07-08T14:55:56Z</time>
      </trkpt>
      <trkpt lat="49.49705" lon="1.09206">
        <ele>153.47</ele>
        <time>2018-07-08T14:55:57Z</time>
      </trkpt>
      <trkpt lat="49.49699" lon="1.09202">
        <ele>153.47</ele>
        <time>2018-07-08T14:55:58Z</time>
      </trkpt>
      <trkpt lat="49.49694" lon="1.09197">
        <ele>152.99</ele>
        <time>2018-07-08T14:55:59Z</time>
      </trkpt>
      <trkpt lat="49.49684" lon="1.09187">
        <ele>152.51</ele>
        <time>2018-07-08T14:56:01Z</time>
      </trkpt>
      <trkpt lat="49.4968" lon="1.09182">
        <ele>152.51</ele>
        <time>2018-07-08T14:56:02Z</time>
      </trkpt>
      <trkpt lat="49.49677" lon="1.09175">
        <ele>152.51</ele>
        <time>2018-07-08T14:56:03Z</time>
      </trkpt>
      <trkpt lat="49.49666" lon="1.09158">
        <ele>152.03</ele>
        <time>2018-07-08T14:56:06Z</time>
      </trkpt>
      <trkpt lat="49.49663" lon="1.09157">
        <ele>151.54</ele>
        <time>2018-07-08T14:56:07Z</time>
      </trkpt>
      <trkpt lat="49.49659" lon="1.09157">
        <ele>151.54</ele>
        <time>2018-07-08T14:56:08Z</time>
      </trkpt>
      <trkpt lat="49.49659" lon="1.09156">
        <ele>151.54</ele>
        <time>2018-07-08T14:56:12Z</time>
      </trkpt>
      <trkpt lat="49.49667" lon="1.09144">
        <ele>151.06</ele>
        <time>2018-07-08T14:56:19Z</time>
      </trkpt>
      <trkpt lat="49.49666" lon="1.09139">
        <ele>150.58</ele>
        <time>2018-07-08T14:56:20Z</time>
      </trkpt>
      <trkpt lat="49.49666" lon="1.09135">
        <ele>150.58</ele>
        <time>2018-07-08T14:56:21Z</time>
      </trkpt>
      <trkpt lat="49.49663" lon="1.09119">
        <ele>150.1</ele>
        <time>2018-07-08T14:56:24Z</time>
      </trkpt>
      <trkpt lat="49.49663" lon="1.09109">
        <ele>149.62</ele>
        <time>2018-07-08T14:56:27Z</time>
      </trkpt>
      <trkpt lat="49.4966" lon="1.09089">
        <ele>148.18</ele>
        <time>2018-07-08T14:56:35Z</time>
      </trkpt>
      <trkpt lat="49.4966" lon="1.09085">
        <ele>147.7</ele>
        <time>2018-07-08T14:56:43Z</time>
      </trkpt>
      <trkpt lat="49.49662" lon="1.09079">
        <ele>147.7</ele>
        <time>2018-07-08T14:56:48Z</time>
      </trkpt>
      <trkpt lat="49.49659" lon="1.09077">
        <ele>147.7</ele>
        <time>2018-07-08T14:56:51Z</time>
      </trkpt>
      <trkpt lat="49.49658" lon="1.09075">
        <ele>147.7</ele>
        <time>2018-07-08T14:56:53Z</time>
      </trkpt>
      <trkpt lat="49.49656" lon="1.09067">
        <ele>149.14</ele>
        <time>2018-07-08T14:56:57Z</time>
      </trkpt>
      <trkpt lat="49.49658" lon="1.09055">
        <ele>149.62</ele>
        <time>2018-07-08T14:57:03Z</time>
      </trkpt>
      <trkpt lat="49.49661" lon="1.09052">
        <ele>149.62</ele>
        <time>2018-07-08T14:57:04Z</time>
      </trkpt>
      <trkpt lat="49.49664" lon="1.0905">
        <ele>148.18</ele>
        <time>2018-07-08T14:57:05Z</time>
      </trkpt>
      <trkpt lat="49.49667" lon="1.09046">
        <ele>148.18</ele>
        <time>2018-07-08T14:57:06Z</time>
      </trkpt>
      <trkpt lat="49.49671" lon="1.09043">
        <ele>147.7</ele>
        <time>2018-07-08T14:57:07Z</time>
      </trkpt>
      <trkpt lat="49.49688" lon="1.09033">
        <ele>146.26</ele>
        <time>2018-07-08T14:57:10Z</time>
      </trkpt>
      <trkpt lat="49.49693" lon="1.09029">
        <ele>144.34</ele>
        <time>2018-07-08T14:57:11Z</time>
      </trkpt>
      <trkpt lat="49.49699" lon="1.09025">
        <ele>143.85</ele>
        <time>2018-07-08T14:57:12Z</time>
      </trkpt>
      <trkpt lat="49.49705" lon="1.09021">
        <ele>142.89</ele>
        <time>2018-07-08T14:57:13Z</time>
      </trkpt>
      <trkpt lat="49.4971" lon="1.09018">
        <ele>141.93</ele>
        <time>2018-07-08T14:57:14Z</time>
      </trkpt>
      <trkpt lat="49.49716" lon="1.09013">
        <ele>141.45</ele>
        <time>2018-07-08T14:57:15Z</time>
      </trkpt>
      <trkpt lat="49.49723" lon="1.09007">
        <ele>140.01</ele>
        <time>2018-07-08T14:57:16Z</time>
      </trkpt>
      <trkpt lat="49.49749" lon="1.08987">
        <ele>136.16</ele>
        <time>2018-07-08T14:57:20Z</time>
      </trkpt>
      <trkpt lat="49.4976" lon="1.08977">
        <ele>134.72</ele>
        <time>2018-07-08T14:57:22Z</time>
      </trkpt>
      <trkpt lat="49.49765" lon="1.08972">
        <ele>133.76</ele>
        <time>2018-07-08T14:57:23Z</time>
      </trkpt>
      <trkpt lat="49.49794" lon="1.08944">
        <ele>129.92</ele>
        <time>2018-07-08T14:57:27Z</time>
      </trkpt>
      <trkpt lat="49.49814" lon="1.08921">
        <ele>127.99</ele>
        <time>2018-07-08T14:57:30Z</time>
      </trkpt>
      <trkpt lat="49.4982" lon="1.08914">
        <ele>126.55</ele>
        <time>2018-07-08T14:57:31Z</time>
      </trkpt>
      <trkpt lat="49.49826" lon="1.08907">
        <ele>125.59</ele>
        <time>2018-07-08T14:57:32Z</time>
      </trkpt>
      <trkpt lat="49.49833" lon="1.08901">
        <ele>124.63</ele>
        <time>2018-07-08T14:57:33Z</time>
      </trkpt>
      <trkpt lat="49.4984" lon="1.08896">
        <ele>123.67</ele>
        <time>2018-07-08T14:57:34Z</time>
      </trkpt>
      <trkpt lat="49.49847" lon="1.08891">
        <ele>122.71</ele>
        <time>2018-07-08T14:57:35Z</time>
      </trkpt>
      <trkpt lat="49.49853" lon="1.08886">
        <ele>122.22</ele>
        <time>2018-07-08T14:57:36Z</time>
      </trkpt>
      <trkpt lat="49.4986" lon="1.08879">
        <ele>121.26</ele>
        <time>2018-07-08T14:57:37Z</time>
      </trkpt>
      <trkpt lat="49.49867" lon="1.0887">
        <ele>120.78</ele>
        <time>2018-07-08T14:57:38Z</time>
      </trkpt>
      <trkpt lat="49.4988" lon="1.08857">
        <ele>119.34</ele>
        <time>2018-07-08T14:57:40Z</time>
      </trkpt>
      <trkpt lat="49.49895" lon="1.08844">
        <ele>115.5</ele>
        <time>2018-07-08T14:57:43Z</time>
      </trkpt>
      <trkpt lat="49.49918" lon="1.08832">
        <ele>112.13</ele>
        <time>2018-07-08T14:57:49Z</time>
      </trkpt>
      <trkpt lat="49.49923" lon="1.0883">
        <ele>112.61</ele>
        <time>2018-07-08T14:57:50Z</time>
      </trkpt>
      <trkpt lat="49.49951" lon="1.08822">
        <ele>109.25</ele>
        <time>2018-07-08T14:57:54Z</time>
      </trkpt>
      <trkpt lat="49.49957" lon="1.08819">
        <ele>108.29</ele>
        <time>2018-07-08T14:57:55Z</time>
      </trkpt>
      <trkpt lat="49.4999" lon="1.08813">
        <ele>104.44</ele>
        <time>2018-07-08T14:57:59Z</time>
      </trkpt>
      <trkpt lat="49.50017" lon="1.0881">
        <ele>100.6</ele>
        <time>2018-07-08T14:58:02Z</time>
      </trkpt>
      <trkpt lat="49.50046" lon="1.08802">
        <ele>97.23</ele>
        <time>2018-07-08T14:58:05Z</time>
      </trkpt>
      <trkpt lat="49.50074" lon="1.08794">
        <ele>93.39</ele>
        <time>2018-07-08T14:58:08Z</time>
      </trkpt>
      <trkpt lat="49.50084" lon="1.08794">
        <ele>91.94</ele>
        <time>2018-07-08T14:58:09Z</time>
      </trkpt>
      <trkpt lat="49.50095" lon="1.08794">
        <ele>90.98</ele>
        <time>2018-07-08T14:58:10Z</time>
      </trkpt>
      <trkpt lat="49.50127" lon="1.08798">
        <ele>87.14</ele>
        <time>2018-07-08T14:58:13Z</time>
      </trkpt>
      <trkpt lat="49.50171" lon="1.08803">
        <ele>83.77</ele>
        <time>2018-07-08T14:58:17Z</time>
      </trkpt>
      <trkpt lat="49.50214" lon="1.08807">
        <ele>80.41</ele>
        <time>2018-07-08T14:58:21Z</time>
      </trkpt>
      <trkpt lat="49.50249" lon="1.08811">
        <ele>76.08</ele>
        <time>2018-07-08T14:58:25Z</time>
      </trkpt>
      <trkpt lat="49.50255" lon="1.08812">
        <ele>76.08</ele>
        <time>2018-07-08T14:58:26Z</time>
      </trkpt>
      <trkpt lat="49.50271" lon="1.08815">
        <ele>75.12</ele>
        <time>2018-07-08T14:58:30Z</time>
      </trkpt>
      <trkpt lat="49.5028" lon="1.08809">
        <ele>74.64</ele>
        <time>2018-07-08T14:58:34Z</time>
      </trkpt>
      <trkpt lat="49.50283" lon="1.08809">
        <ele>74.64</ele>
        <time>2018-07-08T14:58:35Z</time>
      </trkpt>
      <trkpt lat="49.50291" lon="1.08812">
        <ele>74.64</ele>
        <time>2018-07-08T14:58:39Z</time>
      </trkpt>
      <trkpt lat="49.50293" lon="1.08814">
        <ele>76.08</ele>
        <time>2018-07-08T14:58:41Z</time>
      </trkpt>
      <trkpt lat="49.50295" lon="1.08815">
        <ele>76.08</ele>
        <time>2018-07-08T14:58:42Z</time>
      </trkpt>
      <trkpt lat="49.50297" lon="1.08815">
        <ele>76.08</ele>
        <time>2018-07-08T14:58:43Z</time>
      </trkpt>
      <trkpt lat="49.503" lon="1.08815">
        <ele>76.08</ele>
        <time>2018-07-08T14:58:44Z</time>
      </trkpt>
      <trkpt lat="49.50301" lon="1.08816">
        <ele>76.56</ele>
        <time>2018-07-08T14:58:45Z</time>
      </trkpt>
      <trkpt lat="49.50303" lon="1.08816">
        <ele>76.56</ele>
        <time>2018-07-08T14:58:46Z</time>
      </trkpt>
      <trkpt lat="49.50305" lon="1.08817">
        <ele>77.04</ele>
        <time>2018-07-08T14:58:47Z</time>
      </trkpt>
      <trkpt lat="49.50312" lon="1.08819">
        <ele>78</ele>
        <time>2018-07-08T14:58:51Z</time>
      </trkpt>
      <trkpt lat="49.50329" lon="1.08819">
        <ele>80.41</ele>
        <time>2018-07-08T14:59:01Z</time>
      </trkpt>
      <trkpt lat="49.50355" lon="1.08822">
        <ele>83.29</ele>
        <time>2018-07-08T14:59:15Z</time>
      </trkpt>
      <trkpt lat="49.50373" lon="1.08819">
        <ele>85.21</ele>
        <time>2018-07-08T14:59:24Z</time>
      </trkpt>
      <trkpt lat="49.50377" lon="1.08814">
        <ele>85.21</ele>
        <time>2018-07-08T14:59:26Z</time>
      </trkpt>
      <trkpt lat="49.50379" lon="1.08811">
        <ele>85.69</ele>
        <time>2018-07-08T14:59:27Z</time>
      </trkpt>
      <trkpt lat="49.50382" lon="1.08809">
        <ele>85.69</ele>
        <time>2018-07-08T14:59:28Z</time>
      </trkpt>
      <trkpt lat="49.50383" lon="1.08806">
        <ele>85.69</ele>
        <time>2018-07-08T14:59:29Z</time>
      </trkpt>
      <trkpt lat="49.50385" lon="1.08803">
        <ele>85.69</ele>
        <time>2018-07-08T14:59:30Z</time>
      </trkpt>
      <trkpt lat="49.50387" lon="1.08796">
        <ele>86.18</ele>
        <time>2018-07-08T14:59:33Z</time>
      </trkpt>
      <trkpt lat="49.50388" lon="1.08795">
        <ele>86.66</ele>
        <time>2018-07-08T14:59:34Z</time>
      </trkpt>
      <trkpt lat="49.5041" lon="1.08801">
        <ele>88.58</ele>
        <time>2018-07-08T14:59:47Z</time>
      </trkpt>
      <trkpt lat="49.5043" lon="1.08807">
        <ele>90.02</ele>
        <time>2018-07-08T15:00:00Z</time>
      </trkpt>
      <trkpt lat="49.5045" lon="1.08803">
        <ele>91.94</ele>
        <time>2018-07-08T15:00:11Z</time>
      </trkpt>
      <trkpt lat="49.50473" lon="1.08797">
        <ele>93.87</ele>
        <time>2018-07-08T15:00:23Z</time>
      </trkpt>
      <trkpt lat="49.50493" lon="1.08784">
        <ele>95.79</ele>
        <time>2018-07-08T15:00:35Z</time>
      </trkpt>
      <trkpt lat="49.50505" lon="1.08773">
        <ele>96.75</ele>
        <time>2018-07-08T15:00:41Z</time>
      </trkpt>
      <trkpt lat="49.50507" lon="1.08772">
        <ele>96.75</ele>
        <time>2018-07-08T15:00:42Z</time>
      </trkpt>
      <trkpt lat="49.50514" lon="1.08768">
        <ele>97.71</ele>
        <time>2018-07-08T15:00:45Z</time>
      </trkpt>
      <trkpt lat="49.50525" lon="1.08743">
        <ele>99.63</ele>
        <time>2018-07-08T15:00:56Z</time>
      </trkpt>
      <trkpt lat="49.50527" lon="1.08733">
        <ele>101.08</ele>
        <time>2018-07-08T15:01:01Z</time>
      </trkpt>
      <trkpt lat="49.50537" lon="1.08702">
        <ele>103.48</ele>
        <time>2018-07-08T15:01:15Z</time>
      </trkpt>
      <trkpt lat="49.50538" lon="1.087">
        <ele>103.48</ele>
        <time>2018-07-08T15:01:16Z</time>
      </trkpt>
      <trkpt lat="49.50547" lon="1.08682">
        <ele>103.96</ele>
        <time>2018-07-08T15:01:25Z</time>
      </trkpt>
      <trkpt lat="49.50548" lon="1.08679">
        <ele>103.96</ele>
        <time>2018-07-08T15:01:26Z</time>
      </trkpt>
      <trkpt lat="49.50555" lon="1.08674">
        <ele>105.4</ele>
        <time>2018-07-08T15:01:32Z</time>
      </trkpt>
      <trkpt lat="49.50557" lon="1.08674">
        <ele>105.4</ele>
        <time>2018-07-08T15:01:35Z</time>
      </trkpt>
      <trkpt lat="49.50559" lon="1.08671">
        <ele>105.88</ele>
        <time>2018-07-08T15:01:37Z</time>
      </trkpt>
      <trkpt lat="49.50582" lon="1.08656">
        <ele>108.29</ele>
        <time>2018-07-08T15:01:48Z</time>
      </trkpt>
      <trkpt lat="49.50588" lon="1.08634">
        <ele>110.21</ele>
        <time>2018-07-08T15:01:59Z</time>
      </trkpt>
      <trkpt lat="49.50595" lon="1.08606">
        <ele>112.61</ele>
        <time>2018-07-08T15:02:12Z</time>
      </trkpt>
      <trkpt lat="49.50595" lon="1.08604">
        <ele>112.61</ele>
        <time>2018-07-08T15:02:13Z</time>
      </trkpt>
      <trkpt lat="49.50598" lon="1.08579">
        <ele>114.53</ele>
        <time>2018-07-08T15:02:24Z</time>
      </trkpt>
      <trkpt lat="49.50597" lon="1.08577">
        <ele>114.53</ele>
        <time>2018-07-08T15:02:25Z</time>
      </trkpt>
      <trkpt lat="49.50593" lon="1.08558">
        <ele>115.5</ele>
        <time>2018-07-08T15:02:36Z</time>
      </trkpt>
      <trkpt lat="49.50591" lon="1.08547">
        <ele>116.46</ele>
        <time>2018-07-08T15:02:44Z</time>
      </trkpt>
      <trkpt lat="49.50591" lon="1.08545">
        <ele>116.46</ele>
        <time>2018-07-08T15:02:45Z</time>
      </trkpt>
      <trkpt lat="49.50592" lon="1.08544">
        <ele>116.46</ele>
        <time>2018-07-08T15:02:46Z</time>
      </trkpt>
      <trkpt lat="49.50593" lon="1.08542">
        <ele>116.94</ele>
        <time>2018-07-08T15:02:47Z</time>
      </trkpt>
      <trkpt lat="49.50594" lon="1.0854">
        <ele>116.94</ele>
        <time>2018-07-08T15:02:48Z</time>
      </trkpt>
      <trkpt lat="49.50595" lon="1.08538">
        <ele>116.94</ele>
        <time>2018-07-08T15:02:49Z</time>
      </trkpt>
      <trkpt lat="49.50596" lon="1.08535">
        <ele>117.42</ele>
        <time>2018-07-08T15:02:50Z</time>
      </trkpt>
      <trkpt lat="49.50596" lon="1.08533">
        <ele>117.42</ele>
        <time>2018-07-08T15:02:51Z</time>
      </trkpt>
      <trkpt lat="49.50597" lon="1.08531">
        <ele>117.9</ele>
        <time>2018-07-08T15:02:52Z</time>
      </trkpt>
      <trkpt lat="49.50598" lon="1.0853">
        <ele>117.9</ele>
        <time>2018-07-08T15:02:53Z</time>
      </trkpt>
      <trkpt lat="49.50599" lon="1.08528">
        <ele>117.9</ele>
        <time>2018-07-08T15:02:54Z</time>
      </trkpt>
      <trkpt lat="49.50609" lon="1.08514">
        <ele>120.3</ele>
        <time>2018-07-08T15:03:05Z</time>
      </trkpt>
      <trkpt lat="49.50623" lon="1.08502">
        <ele>122.22</ele>
        <time>2018-07-08T15:03:16Z</time>
      </trkpt>
      <trkpt lat="49.50636" lon="1.08491">
        <ele>123.67</ele>
        <time>2018-07-08T15:03:26Z</time>
      </trkpt>
      <trkpt lat="49.50651" lon="1.08476">
        <ele>126.07</ele>
        <time>2018-07-08T15:03:38Z</time>
      </trkpt>
      <trkpt lat="49.50666" lon="1.0846">
        <ele>128.47</ele>
        <time>2018-07-08T15:03:51Z</time>
      </trkpt>
      <trkpt lat="49.50683" lon="1.08449">
        <ele>130.4</ele>
        <time>2018-07-08T15:04:02Z</time>
      </trkpt>
      <trkpt lat="49.50704" lon="1.08436">
        <ele>132.32</ele>
        <time>2018-07-08T15:04:15Z</time>
      </trkpt>
      <trkpt lat="49.50716" lon="1.0842">
        <ele>133.76</ele>
        <time>2018-07-08T15:04:24Z</time>
      </trkpt>
      <trkpt lat="49.50717" lon="1.08418">
        <ele>134.24</ele>
        <time>2018-07-08T15:04:25Z</time>
      </trkpt>
      <trkpt lat="49.50718" lon="1.08416">
        <ele>134.24</ele>
        <time>2018-07-08T15:04:26Z</time>
      </trkpt>
      <trkpt lat="49.50719" lon="1.08414">
        <ele>134.24</ele>
        <time>2018-07-08T15:04:27Z</time>
      </trkpt>
      <trkpt lat="49.50721" lon="1.08413">
        <ele>134.24</ele>
        <time>2018-07-08T15:04:28Z</time>
      </trkpt>
      <trkpt lat="49.50722" lon="1.08411">
        <ele>134.72</ele>
        <time>2018-07-08T15:04:29Z</time>
      </trkpt>
      <trkpt lat="49.50723" lon="1.0841">
        <ele>134.72</ele>
        <time>2018-07-08T15:04:30Z</time>
      </trkpt>
      <trkpt lat="49.50724" lon="1.08408">
        <ele>134.72</ele>
        <time>2018-07-08T15:04:31Z</time>
      </trkpt>
      <trkpt lat="49.50725" lon="1.08406">
        <ele>134.72</ele>
        <time>2018-07-08T15:04:32Z</time>
      </trkpt>
      <trkpt lat="49.50727" lon="1.08404">
        <ele>134.72</ele>
        <time>2018-07-08T15:04:33Z</time>
      </trkpt>
      <trkpt lat="49.50738" lon="1.08376">
        <ele>136.64</ele>
        <time>2018-07-08T15:04:45Z</time>
      </trkpt>
      <trkpt lat="49.50747" lon="1.08341">
        <ele>138.57</ele>
        <time>2018-07-08T15:04:57Z</time>
      </trkpt>
      <trkpt lat="49.50748" lon="1.08336">
        <ele>138.57</ele>
        <time>2018-07-08T15:04:59Z</time>
      </trkpt>
      <trkpt lat="49.50747" lon="1.08329">
        <ele>139.05</ele>
        <time>2018-07-08T15:05:02Z</time>
      </trkpt>
      <trkpt lat="49.50743" lon="1.08319">
        <ele>139.53</ele>
        <time>2018-07-08T15:05:08Z</time>
      </trkpt>
      <trkpt lat="49.50741" lon="1.08318">
        <ele>139.53</ele>
        <time>2018-07-08T15:05:09Z</time>
      </trkpt>
      <trkpt lat="49.5074" lon="1.08317">
        <ele>139.53</ele>
        <time>2018-07-08T15:05:10Z</time>
      </trkpt>
      <trkpt lat="49.50734" lon="1.08312">
        <ele>139.53</ele>
        <time>2018-07-08T15:05:21Z</time>
      </trkpt>
      <trkpt lat="49.50731" lon="1.08303">
        <ele>139.53</ele>
        <time>2018-07-08T15:05:41Z</time>
      </trkpt>
      <trkpt lat="49.50732" lon="1.08304">
        <ele>139.53</ele>
        <time>2018-07-08T15:05:42Z</time>
      </trkpt>
      <trkpt lat="49.50733" lon="1.08304">
        <ele>139.53</ele>
        <time>2018-07-08T15:05:43Z</time>
      </trkpt>
      <trkpt lat="49.50735" lon="1.08304">
        <ele>139.53</ele>
        <time>2018-07-08T15:05:44Z</time>
      </trkpt>
      <trkpt lat="49.50736" lon="1.08304">
        <ele>139.53</ele>
        <time>2018-07-08T15:05:45Z</time>
      </trkpt>
      <trkpt lat="49.50738" lon="1.08305">
        <ele>139.53</ele>
        <time>2018-07-08T15:05:46Z</time>
      </trkpt>
      <trkpt lat="49.50739" lon="1.08306">
        <ele>139.53</ele>
        <time>2018-07-08T15:05:47Z</time>
      </trkpt>
      <trkpt lat="49.5074" lon="1.08308">
        <ele>139.53</ele>
        <time>2018-07-08T15:05:48Z</time>
      </trkpt>
      <trkpt lat="49.50741" lon="1.08311">
        <ele>139.53</ele>
        <time>2018-07-08T15:05:49Z</time>
      </trkpt>
      <trkpt lat="49.50743" lon="1.08315">
        <ele>139.53</ele>
        <time>2018-07-08T15:05:50Z</time>
      </trkpt>
      <trkpt lat="49.50743" lon="1.08318">
        <ele>139.53</ele>
        <time>2018-07-08T15:05:51Z</time>
      </trkpt>
      <trkpt lat="49.50744" lon="1.08321">
        <ele>139.53</ele>
        <time>2018-07-08T15:05:52Z</time>
      </trkpt>
      <trkpt lat="49.50744" lon="1.08327">
        <ele>140.01</ele>
        <time>2018-07-08T15:05:54Z</time>
      </trkpt>
      <trkpt lat="49.50743" lon="1.08329">
        <ele>140.01</ele>
        <time>2018-07-08T15:05:55Z</time>
      </trkpt>
      <trkpt lat="49.50743" lon="1.08359">
        <ele>140.97</ele>
        <time>2018-07-08T15:06:04Z</time>
      </trkpt>
      <trkpt lat="49.50744" lon="1.08362">
        <ele>140.97</ele>
        <time>2018-07-08T15:06:05Z</time>
      </trkpt>
      <trkpt lat="49.50745" lon="1.08365">
        <ele>141.93</ele>
        <time>2018-07-08T15:06:06Z</time>
      </trkpt>
      <trkpt lat="49.50745" lon="1.08368">
        <ele>141.93</ele>
        <time>2018-07-08T15:06:07Z</time>
      </trkpt>
      <trkpt lat="49.50745" lon="1.08371">
        <ele>141.93</ele>
        <time>2018-07-08T15:06:08Z</time>
      </trkpt>
      <trkpt lat="49.50745" lon="1.08373">
        <ele>142.41</ele>
        <time>2018-07-08T15:06:09Z</time>
      </trkpt>
      <trkpt lat="49.50745" lon="1.08375">
        <ele>142.41</ele>
        <time>2018-07-08T15:06:10Z</time>
      </trkpt>
      <trkpt lat="49.50746" lon="1.08378">
        <ele>142.41</ele>
        <time>2018-07-08T15:06:11Z</time>
      </trkpt>
      <trkpt lat="49.50747" lon="1.0838">
        <ele>142.41</ele>
        <time>2018-07-08T15:06:12Z</time>
      </trkpt>
      <trkpt lat="49.50748" lon="1.08384">
        <ele>142.89</ele>
        <time>2018-07-08T15:06:13Z</time>
      </trkpt>
      <trkpt lat="49.50749" lon="1.08387">
        <ele>142.89</ele>
        <time>2018-07-08T15:06:14Z</time>
      </trkpt>
      <trkpt lat="49.50753" lon="1.08401">
        <ele>143.85</ele>
        <time>2018-07-08T15:06:19Z</time>
      </trkpt>
      <trkpt lat="49.50754" lon="1.08403">
        <ele>143.85</ele>
        <time>2018-07-08T15:06:20Z</time>
      </trkpt>
      <trkpt lat="49.50756" lon="1.08404">
        <ele>144.34</ele>
        <time>2018-07-08T15:06:21Z</time>
      </trkpt>
      <trkpt lat="49.50758" lon="1.08403">
        <ele>144.82</ele>
        <time>2018-07-08T15:06:22Z</time>
      </trkpt>
      <trkpt lat="49.5076" lon="1.08401">
        <ele>144.82</ele>
        <time>2018-07-08T15:06:23Z</time>
      </trkpt>
      <trkpt lat="49.50762" lon="1.08398">
        <ele>144.82</ele>
        <time>2018-07-08T15:06:24Z</time>
      </trkpt>
      <trkpt lat="49.50763" lon="1.08395">
        <ele>144.82</ele>
        <time>2018-07-08T15:06:25Z</time>
      </trkpt>
      <trkpt lat="49.50787" lon="1.08331">
        <ele>146.74</ele>
        <time>2018-07-08T15:06:42Z</time>
      </trkpt>
      <trkpt lat="49.5081" lon="1.08262">
        <ele>150.1</ele>
        <time>2018-07-08T15:06:59Z</time>
      </trkpt>
      <trkpt lat="49.50842" lon="1.08199">
        <ele>152.99</ele>
        <time>2018-07-08T15:07:15Z</time>
      </trkpt>
      <trkpt lat="49.50873" lon="1.08166">
        <ele>154.91</ele>
        <time>2018-07-08T15:07:27Z</time>
      </trkpt>
      <trkpt lat="49.50913" lon="1.0815">
        <ele>157.31</ele>
        <time>2018-07-08T15:07:40Z</time>
      </trkpt>
      <trkpt lat="49.50957" lon="1.0814">
        <ele>159.72</ele>
        <time>2018-07-08T15:07:54Z</time>
      </trkpt>
      <trkpt lat="49.50968" lon="1.0814">
        <ele>159.72</ele>
        <time>2018-07-08T15:07:59Z</time>
      </trkpt>
      <trkpt lat="49.5097" lon="1.08138">
        <ele>159.72</ele>
        <time>2018-07-08T15:08:00Z</time>
      </trkpt>
      <trkpt lat="49.50971" lon="1.08136">
        <ele>159.72</ele>
        <time>2018-07-08T15:08:01Z</time>
      </trkpt>
      <trkpt lat="49.50971" lon="1.08128">
        <ele>160.2</ele>
        <time>2018-07-08T15:08:13Z</time>
      </trkpt>
      <trkpt lat="49.50973" lon="1.08126">
        <ele>160.2</ele>
        <time>2018-07-08T15:08:36Z</time>
      </trkpt>
      <trkpt lat="49.50971" lon="1.08131">
        <ele>158.75</ele>
        <time>2018-07-08T15:09:05Z</time>
      </trkpt>
      <trkpt lat="49.50973" lon="1.08131">
        <ele>158.75</ele>
        <time>2018-07-08T15:09:29Z</time>
      </trkpt>
      <trkpt lat="49.5097" lon="1.08129">
        <ele>158.27</ele>
        <time>2018-07-08T15:09:49Z</time>
      </trkpt>
      <trkpt lat="49.5097" lon="1.08128">
        <ele>158.27</ele>
        <time>2018-07-08T15:09:50Z</time>
      </trkpt>
      <trkpt lat="49.50969" lon="1.08126">
        <ele>158.27</ele>
        <time>2018-07-08T15:09:51Z</time>
      </trkpt>
      <trkpt lat="49.50968" lon="1.08124">
        <ele>158.27</ele>
        <time>2018-07-08T15:09:52Z</time>
      </trkpt>
      <trkpt lat="49.50967" lon="1.08122">
        <ele>158.27</ele>
        <time>2018-07-08T15:09:53Z</time>
      </trkpt>
      <trkpt lat="49.50965" lon="1.0812">
        <ele>158.27</ele>
        <time>2018-07-08T15:09:54Z</time>
      </trkpt>
      <trkpt lat="49.50964" lon="1.08118">
        <ele>157.79</ele>
        <time>2018-07-08T15:09:55Z</time>
      </trkpt>
      <trkpt lat="49.50962" lon="1.08115">
        <ele>157.79</ele>
        <time>2018-07-08T15:09:56Z</time>
      </trkpt>
      <trkpt lat="49.5096" lon="1.08112">
        <ele>157.79</ele>
        <time>2018-07-08T15:09:57Z</time>
      </trkpt>
      <trkpt lat="49.50945" lon="1.08072">
        <ele>156.83</ele>
        <time>2018-07-08T15:10:06Z</time>
      </trkpt>
      <trkpt lat="49.50905" lon="1.07977">
        <ele>155.87</ele>
        <time>2018-07-08T15:10:21Z</time>
      </trkpt>
      <trkpt lat="49.50864" lon="1.07891">
        <ele>154.91</ele>
        <time>2018-07-08T15:10:34Z</time>
      </trkpt>
      <trkpt lat="49.50859" lon="1.07878">
        <ele>154.91</ele>
        <time>2018-07-08T15:10:36Z</time>
      </trkpt>
      <trkpt lat="49.50855" lon="1.07874">
        <ele>154.91</ele>
        <time>2018-07-08T15:10:37Z</time>
      </trkpt>
      <trkpt lat="49.50852" lon="1.07871">
        <ele>154.91</ele>
        <time>2018-07-08T15:10:38Z</time>
      </trkpt>
      <trkpt lat="49.50847" lon="1.0787">
        <ele>154.91</ele>
        <time>2018-07-08T15:10:39Z</time>
      </trkpt>
      <trkpt lat="49.50843" lon="1.0787">
        <ele>154.91</ele>
        <time>2018-07-08T15:10:40Z</time>
      </trkpt>
      <trkpt lat="49.50839" lon="1.07871">
        <ele>154.43</ele>
        <time>2018-07-08T15:10:41Z</time>
      </trkpt>
      <trkpt lat="49.50835" lon="1.07872">
        <ele>154.43</ele>
        <time>2018-07-08T15:10:42Z</time>
      </trkpt>
      <trkpt lat="49.50831" lon="1.07873">
        <ele>154.43</ele>
        <time>2018-07-08T15:10:43Z</time>
      </trkpt>
      <trkpt lat="49.50824" lon="1.07873">
        <ele>154.43</ele>
        <time>2018-07-08T15:10:45Z</time>
      </trkpt>
      <trkpt lat="49.5082" lon="1.07871">
        <ele>154.43</ele>
        <time>2018-07-08T15:10:46Z</time>
      </trkpt>
      <trkpt lat="49.50812" lon="1.07865">
        <ele>153.47</ele>
        <time>2018-07-08T15:10:50Z</time>
      </trkpt>
      <trkpt lat="49.50808" lon="1.07865">
        <ele>152.99</ele>
        <time>2018-07-08T15:11:01Z</time>
      </trkpt>
      <trkpt lat="49.5081" lon="1.07863">
        <ele>152.99</ele>
        <time>2018-07-08T15:11:22Z</time>
      </trkpt>
      <trkpt lat="49.5081" lon="1.07865">
        <ele>152.99</ele>
        <time>2018-07-08T15:11:56Z</time>
      </trkpt>
      <trkpt lat="49.50812" lon="1.07865">
        <ele>152.99</ele>
        <time>2018-07-08T15:12:15Z</time>
      </trkpt>
      <trkpt lat="49.50815" lon="1.07861">
        <ele>152.99</ele>
        <time>2018-07-08T15:12:22Z</time>
      </trkpt>
      <trkpt lat="49.50815" lon="1.07859">
        <ele>152.99</ele>
        <time>2018-07-08T15:12:23Z</time>
      </trkpt>
      <trkpt lat="49.50814" lon="1.07856">
        <ele>152.99</ele>
        <time>2018-07-08T15:12:24Z</time>
      </trkpt>
      <trkpt lat="49.50804" lon="1.07817">
        <ele>152.99</ele>
        <time>2018-07-08T15:12:36Z</time>
      </trkpt>
      <trkpt lat="49.50802" lon="1.07807">
        <ele>152.99</ele>
        <time>2018-07-08T15:12:42Z</time>
      </trkpt>
      <trkpt lat="49.50802" lon="1.07809">
        <ele>152.99</ele>
        <time>2018-07-08T15:12:43Z</time>
      </trkpt>
      <trkpt lat="49.50802" lon="1.07812">
        <ele>152.99</ele>
        <time>2018-07-08T15:12:44Z</time>
      </trkpt>
      <trkpt lat="49.50803" lon="1.07814">
        <ele>152.99</ele>
        <time>2018-07-08T15:12:45Z</time>
      </trkpt>
      <trkpt lat="49.50804" lon="1.07817">
        <ele>152.99</ele>
        <time>2018-07-08T15:12:46Z</time>
      </trkpt>
      <trkpt lat="49.50805" lon="1.0782">
        <ele>152.99</ele>
        <time>2018-07-08T15:12:47Z</time>
      </trkpt>
      <trkpt lat="49.50807" lon="1.07824">
        <ele>152.99</ele>
        <time>2018-07-08T15:12:48Z</time>
      </trkpt>
      <trkpt lat="49.50807" lon="1.07827">
        <ele>152.99</ele>
        <time>2018-07-08T15:12:49Z</time>
      </trkpt>
      <trkpt lat="49.50808" lon="1.0783">
        <ele>152.99</ele>
        <time>2018-07-08T15:12:50Z</time>
      </trkpt>
      <trkpt lat="49.50809" lon="1.07834">
        <ele>152.99</ele>
        <time>2018-07-08T15:12:51Z</time>
      </trkpt>
      <trkpt lat="49.5081" lon="1.07836">
        <ele>152.99</ele>
        <time>2018-07-08T15:12:52Z</time>
      </trkpt>
      <trkpt lat="49.50811" lon="1.07839">
        <ele>152.99</ele>
        <time>2018-07-08T15:12:53Z</time>
      </trkpt>
      <trkpt lat="49.50817" lon="1.07862">
        <ele>152.99</ele>
        <time>2018-07-08T15:13:00Z</time>
      </trkpt>
      <trkpt lat="49.50815" lon="1.07864">
        <ele>152.99</ele>
        <time>2018-07-08T15:13:01Z</time>
      </trkpt>
      <trkpt lat="49.50813" lon="1.07865">
        <ele>152.99</ele>
        <time>2018-07-08T15:13:02Z</time>
      </trkpt>
      <trkpt lat="49.50812" lon="1.07865">
        <ele>152.99</ele>
        <time>2018-07-08T15:13:03Z</time>
      </trkpt>
      <trkpt lat="49.50811" lon="1.07865">
        <ele>152.99</ele>
        <time>2018-07-08T15:13:04Z</time>
      </trkpt>
      <trkpt lat="49.50809" lon="1.07865">
        <ele>152.99</ele>
        <time>2018-07-08T15:13:05Z</time>
      </trkpt>
      <trkpt lat="49.50776" lon="1.07842">
        <ele>153.47</ele>
        <time>2018-07-08T15:13:17Z</time>
      </trkpt>
      <trkpt lat="49.50772" lon="1.07842">
        <ele>153.47</ele>
        <time>2018-07-08T15:13:19Z</time>
      </trkpt>
      <trkpt lat="49.50743" lon="1.07847">
        <ele>152.03</ele>
        <time>2018-07-08T15:13:32Z</time>
      </trkpt>
      <trkpt lat="49.50744" lon="1.07846">
        <ele>152.03</ele>
        <time>2018-07-08T15:13:36Z</time>
      </trkpt>
      <trkpt lat="49.50745" lon="1.07836">
        <ele>151.54</ele>
        <time>2018-07-08T15:13:44Z</time>
      </trkpt>
      <trkpt lat="49.50715" lon="1.07855">
        <ele>151.06</ele>
        <time>2018-07-08T15:13:56Z</time>
      </trkpt>
      <trkpt lat="49.50681" lon="1.07882">
        <ele>149.62</ele>
        <time>2018-07-08T15:14:07Z</time>
      </trkpt>
      <trkpt lat="49.50672" lon="1.07875">
        <ele>149.62</ele>
        <time>2018-07-08T15:14:11Z</time>
      </trkpt>
      <trkpt lat="49.50659" lon="1.07846">
        <ele>150.1</ele>
        <time>2018-07-08T15:14:18Z</time>
      </trkpt>
      <trkpt lat="49.50657" lon="1.0784">
        <ele>150.1</ele>
        <time>2018-07-08T15:14:19Z</time>
      </trkpt>
      <trkpt lat="49.50654" lon="1.07834">
        <ele>150.1</ele>
        <time>2018-07-08T15:14:20Z</time>
      </trkpt>
      <trkpt lat="49.50651" lon="1.07829">
        <ele>149.62</ele>
        <time>2018-07-08T15:14:21Z</time>
      </trkpt>
      <trkpt lat="49.50648" lon="1.07825">
        <ele>150.1</ele>
        <time>2018-07-08T15:14:22Z</time>
      </trkpt>
      <trkpt lat="49.50645" lon="1.0782">
        <ele>149.62</ele>
        <time>2018-07-08T15:14:23Z</time>
      </trkpt>
      <trkpt lat="49.50642" lon="1.07814">
        <ele>149.62</ele>
        <time>2018-07-08T15:14:24Z</time>
      </trkpt>
      <trkpt lat="49.5062" lon="1.0778">
        <ele>148.66</ele>
        <time>2018-07-08T15:14:30Z</time>
      </trkpt>
      <trkpt lat="49.50617" lon="1.07772">
        <ele>148.66</ele>
        <time>2018-07-08T15:14:31Z</time>
      </trkpt>
      <trkpt lat="49.50612" lon="1.07757">
        <ele>148.18</ele>
        <time>2018-07-08T15:14:33Z</time>
      </trkpt>
      <trkpt lat="49.50607" lon="1.07753">
        <ele>147.7</ele>
        <time>2018-07-08T15:14:34Z</time>
      </trkpt>
      <trkpt lat="49.50603" lon="1.07749">
        <ele>147.7</ele>
        <time>2018-07-08T15:14:35Z</time>
      </trkpt>
      <trkpt lat="49.506" lon="1.07744">
        <ele>147.22</ele>
        <time>2018-07-08T15:14:36Z</time>
      </trkpt>
      <trkpt lat="49.50598" lon="1.07739">
        <ele>146.74</ele>
        <time>2018-07-08T15:14:37Z</time>
      </trkpt>
      <trkpt lat="49.50595" lon="1.07733">
        <ele>146.26</ele>
        <time>2018-07-08T15:14:38Z</time>
      </trkpt>
      <trkpt lat="49.5059" lon="1.07723">
        <ele>144.34</ele>
        <time>2018-07-08T15:14:40Z</time>
      </trkpt>
      <trkpt lat="49.50587" lon="1.07718">
        <ele>143.37</ele>
        <time>2018-07-08T15:14:41Z</time>
      </trkpt>
      <trkpt lat="49.50582" lon="1.07713">
        <ele>142.89</ele>
        <time>2018-07-08T15:14:42Z</time>
      </trkpt>
      <trkpt lat="49.50573" lon="1.07702">
        <ele>142.41</ele>
        <time>2018-07-08T15:14:44Z</time>
      </trkpt>
      <trkpt lat="49.50568" lon="1.07696">
        <ele>142.41</ele>
        <time>2018-07-08T15:14:45Z</time>
      </trkpt>
      <trkpt lat="49.50564" lon="1.07688">
        <ele>142.41</ele>
        <time>2018-07-08T15:14:46Z</time>
      </trkpt>
      <trkpt lat="49.50562" lon="1.07681">
        <ele>142.41</ele>
        <time>2018-07-08T15:14:47Z</time>
      </trkpt>
      <trkpt lat="49.5056" lon="1.07675">
        <ele>142.41</ele>
        <time>2018-07-08T15:14:48Z</time>
      </trkpt>
      <trkpt lat="49.50548" lon="1.07628">
        <ele>145.78</ele>
        <time>2018-07-08T15:14:58Z</time>
      </trkpt>
      <trkpt lat="49.50523" lon="1.07599">
        <ele>145.78</ele>
        <time>2018-07-08T15:15:06Z</time>
      </trkpt>
      <trkpt lat="49.50516" lon="1.07592">
        <ele>145.78</ele>
        <time>2018-07-08T15:15:08Z</time>
      </trkpt>
      <trkpt lat="49.50513" lon="1.07587">
        <ele>145.78</ele>
        <time>2018-07-08T15:15:09Z</time>
      </trkpt>
      <trkpt lat="49.50511" lon="1.07582">
        <ele>145.78</ele>
        <time>2018-07-08T15:15:10Z</time>
      </trkpt>
      <trkpt lat="49.50509" lon="1.07576">
        <ele>145.78</ele>
        <time>2018-07-08T15:15:11Z</time>
      </trkpt>
      <trkpt lat="49.50507" lon="1.07569">
        <ele>145.78</ele>
        <time>2018-07-08T15:15:12Z</time>
      </trkpt>
      <trkpt lat="49.50501" lon="1.07559">
        <ele>145.78</ele>
        <time>2018-07-08T15:15:14Z</time>
      </trkpt>
      <trkpt lat="49.50497" lon="1.07554">
        <ele>145.78</ele>
        <time>2018-07-08T15:15:15Z</time>
      </trkpt>
      <trkpt lat="49.50493" lon="1.07548">
        <ele>145.78</ele>
        <time>2018-07-08T15:15:16Z</time>
      </trkpt>
      <trkpt lat="49.5049" lon="1.07541">
        <ele>145.78</ele>
        <time>2018-07-08T15:15:17Z</time>
      </trkpt>
      <trkpt lat="49.50487" lon="1.07536">
        <ele>145.78</ele>
        <time>2018-07-08T15:15:18Z</time>
      </trkpt>
      <trkpt lat="49.50485" lon="1.07531">
        <ele>145.78</ele>
        <time>2018-07-08T15:15:19Z</time>
      </trkpt>
      <trkpt lat="49.50482" lon="1.07527">
        <ele>145.78</ele>
        <time>2018-07-08T15:15:20Z</time>
      </trkpt>
      <trkpt lat="49.50478" lon="1.07523">
        <ele>145.78</ele>
        <time>2018-07-08T15:15:21Z</time>
      </trkpt>
      <trkpt lat="49.50473" lon="1.0752">
        <ele>144.82</ele>
        <time>2018-07-08T15:15:22Z</time>
      </trkpt>
      <trkpt lat="49.50467" lon="1.07518">
        <ele>143.85</ele>
        <time>2018-07-08T15:15:23Z</time>
      </trkpt>
      <trkpt lat="49.50463" lon="1.07514">
        <ele>143.85</ele>
        <time>2018-07-08T15:15:24Z</time>
      </trkpt>
      <trkpt lat="49.50459" lon="1.07509">
        <ele>143.37</ele>
        <time>2018-07-08T15:15:25Z</time>
      </trkpt>
      <trkpt lat="49.50438" lon="1.07481">
        <ele>142.89</ele>
        <time>2018-07-08T15:15:29Z</time>
      </trkpt>
      <trkpt lat="49.50428" lon="1.07469">
        <ele>141.45</ele>
        <time>2018-07-08T15:15:31Z</time>
      </trkpt>
      <trkpt lat="49.50417" lon="1.07459">
        <ele>138.09</ele>
        <time>2018-07-08T15:15:33Z</time>
      </trkpt>
      <trkpt lat="49.50413" lon="1.07455">
        <ele>136.64</ele>
        <time>2018-07-08T15:15:34Z</time>
      </trkpt>
      <trkpt lat="49.50408" lon="1.07451">
        <ele>135.68</ele>
        <time>2018-07-08T15:15:35Z</time>
      </trkpt>
      <trkpt lat="49.50403" lon="1.07449">
        <ele>134.72</ele>
        <time>2018-07-08T15:15:36Z</time>
      </trkpt>
      <trkpt lat="49.50398" lon="1.07447">
        <ele>133.76</ele>
        <time>2018-07-08T15:15:37Z</time>
      </trkpt>
      <trkpt lat="49.50393" lon="1.07444">
        <ele>132.8</ele>
        <time>2018-07-08T15:15:38Z</time>
      </trkpt>
      <trkpt lat="49.50388" lon="1.0744">
        <ele>132.8</ele>
        <time>2018-07-08T15:15:39Z</time>
      </trkpt>
      <trkpt lat="49.50386" lon="1.07436">
        <ele>132.32</ele>
        <time>2018-07-08T15:15:40Z</time>
      </trkpt>
      <trkpt lat="49.50384" lon="1.07433">
        <ele>132.32</ele>
        <time>2018-07-08T15:15:41Z</time>
      </trkpt>
      <trkpt lat="49.50382" lon="1.07431">
        <ele>132.32</ele>
        <time>2018-07-08T15:15:42Z</time>
      </trkpt>
      <trkpt lat="49.50379" lon="1.07428">
        <ele>130.88</ele>
        <time>2018-07-08T15:15:43Z</time>
      </trkpt>
      <trkpt lat="49.50377" lon="1.07425">
        <ele>130.88</ele>
        <time>2018-07-08T15:15:44Z</time>
      </trkpt>
      <trkpt lat="49.50375" lon="1.07419">
        <ele>130.88</ele>
        <time>2018-07-08T15:15:45Z</time>
      </trkpt>
      <trkpt lat="49.50374" lon="1.07413">
        <ele>130.88</ele>
        <time>2018-07-08T15:15:46Z</time>
      </trkpt>
      <trkpt lat="49.50372" lon="1.07407">
        <ele>130.88</ele>
        <time>2018-07-08T15:15:47Z</time>
      </trkpt>
      <trkpt lat="49.5037" lon="1.07404">
        <ele>130.88</ele>
        <time>2018-07-08T15:15:48Z</time>
      </trkpt>
      <trkpt lat="49.50366" lon="1.07402">
        <ele>130.88</ele>
        <time>2018-07-08T15:15:49Z</time>
      </trkpt>
      <trkpt lat="49.50363" lon="1.074">
        <ele>131.36</ele>
        <time>2018-07-08T15:15:50Z</time>
      </trkpt>
      <trkpt lat="49.50351" lon="1.07392">
        <ele>131.36</ele>
        <time>2018-07-08T15:15:59Z</time>
      </trkpt>
      <trkpt lat="49.50343" lon="1.07383">
        <ele>132.8</ele>
        <time>2018-07-08T15:16:10Z</time>
      </trkpt>
      <trkpt lat="49.50334" lon="1.07374">
        <ele>133.76</ele>
        <time>2018-07-08T15:16:24Z</time>
      </trkpt>
      <trkpt lat="49.50331" lon="1.07371">
        <ele>134.24</ele>
        <time>2018-07-08T15:16:27Z</time>
      </trkpt>
      <trkpt lat="49.50329" lon="1.07369">
        <ele>134.24</ele>
        <time>2018-07-08T15:16:28Z</time>
      </trkpt>
      <trkpt lat="49.50327" lon="1.07367">
        <ele>134.72</ele>
        <time>2018-07-08T15:16:29Z</time>
      </trkpt>
      <trkpt lat="49.50311" lon="1.07354">
        <ele>136.16</ele>
        <time>2018-07-08T15:16:36Z</time>
      </trkpt>
      <trkpt lat="49.50309" lon="1.07352">
        <ele>136.64</ele>
        <time>2018-07-08T15:16:37Z</time>
      </trkpt>
      <trkpt lat="49.50308" lon="1.0735">
        <ele>137.13</ele>
        <time>2018-07-08T15:16:38Z</time>
      </trkpt>
      <trkpt lat="49.503" lon="1.07343">
        <ele>138.57</ele>
        <time>2018-07-08T15:16:42Z</time>
      </trkpt>
      <trkpt lat="49.50277" lon="1.07325">
        <ele>140.01</ele>
        <time>2018-07-08T15:16:52Z</time>
      </trkpt>
      <trkpt lat="49.50242" lon="1.07307">
        <ele>141.93</ele>
        <time>2018-07-08T15:17:05Z</time>
      </trkpt>
      <trkpt lat="49.50209" lon="1.07284">
        <ele>142.89</ele>
        <time>2018-07-08T15:17:17Z</time>
      </trkpt>
      <trkpt lat="49.50178" lon="1.07245">
        <ele>143.85</ele>
        <time>2018-07-08T15:17:28Z</time>
      </trkpt>
      <trkpt lat="49.50144" lon="1.07182">
        <ele>143.85</ele>
        <time>2018-07-08T15:17:40Z</time>
      </trkpt>
      <trkpt lat="49.50104" lon="1.07111">
        <ele>143.37</ele>
        <time>2018-07-08T15:17:52Z</time>
      </trkpt>
      <trkpt lat="49.50096" lon="1.071">
        <ele>143.37</ele>
        <time>2018-07-08T15:17:54Z</time>
      </trkpt>
      <trkpt lat="49.50092" lon="1.07094">
        <ele>143.37</ele>
        <time>2018-07-08T15:17:55Z</time>
      </trkpt>
      <trkpt lat="49.50088" lon="1.07087">
        <ele>143.37</ele>
        <time>2018-07-08T15:17:56Z</time>
      </trkpt>
      <trkpt lat="49.50082" lon="1.07071">
        <ele>142.41</ele>
        <time>2018-07-08T15:17:58Z</time>
      </trkpt>
      <trkpt lat="49.50058" lon="1.07019">
        <ele>141.45</ele>
        <time>2018-07-08T15:18:05Z</time>
      </trkpt>
      <trkpt lat="49.50056" lon="1.07011">
        <ele>140.97</ele>
        <time>2018-07-08T15:18:06Z</time>
      </trkpt>
      <trkpt lat="49.50048" lon="1.06983">
        <ele>140.97</ele>
        <time>2018-07-08T15:18:10Z</time>
      </trkpt>
      <trkpt lat="49.5004" lon="1.06966">
        <ele>140.97</ele>
        <time>2018-07-08T15:18:13Z</time>
      </trkpt>
      <trkpt lat="49.50038" lon="1.06959">
        <ele>140.97</ele>
        <time>2018-07-08T15:18:14Z</time>
      </trkpt>
      <trkpt lat="49.50035" lon="1.06952">
        <ele>140.97</ele>
        <time>2018-07-08T15:18:15Z</time>
      </trkpt>
      <trkpt lat="49.50034" lon="1.06944">
        <ele>140.97</ele>
        <time>2018-07-08T15:18:16Z</time>
      </trkpt>
      <trkpt lat="49.50032" lon="1.06936">
        <ele>140.97</ele>
        <time>2018-07-08T15:18:17Z</time>
      </trkpt>
      <trkpt lat="49.50026" lon="1.06911">
        <ele>140.97</ele>
        <time>2018-07-08T15:18:20Z</time>
      </trkpt>
      <trkpt lat="49.5002" lon="1.06897">
        <ele>140.97</ele>
        <time>2018-07-08T15:18:22Z</time>
      </trkpt>
      <trkpt lat="49.50018" lon="1.06891">
        <ele>140.97</ele>
        <time>2018-07-08T15:18:23Z</time>
      </trkpt>
      <trkpt lat="49.50004" lon="1.06863">
        <ele>141.93</ele>
        <time>2018-07-08T15:18:28Z</time>
      </trkpt>
      <trkpt lat="49.49987" lon="1.06816">
        <ele>143.37</ele>
        <time>2018-07-08T15:18:38Z</time>
      </trkpt>
      <trkpt lat="49.49964" lon="1.06757">
        <ele>144.82</ele>
        <time>2018-07-08T15:18:50Z</time>
      </trkpt>
      <trkpt lat="49.49946" lon="1.06696">
        <ele>146.74</ele>
        <time>2018-07-08T15:19:01Z</time>
      </trkpt>
      <trkpt lat="49.49906" lon="1.06626">
        <ele>146.74</ele>
        <time>2018-07-08T15:19:15Z</time>
      </trkpt>
      <trkpt lat="49.49902" lon="1.06621">
        <ele>146.74</ele>
        <time>2018-07-08T15:19:16Z</time>
      </trkpt>
      <trkpt lat="49.49898" lon="1.06616">
        <ele>146.74</ele>
        <time>2018-07-08T15:19:17Z</time>
      </trkpt>
      <trkpt lat="49.49869" lon="1.0657">
        <ele>146.74</ele>
        <time>2018-07-08T15:19:25Z</time>
      </trkpt>
      <trkpt lat="49.49865" lon="1.06565">
        <ele>146.74</ele>
        <time>2018-07-08T15:19:26Z</time>
      </trkpt>
      <trkpt lat="49.4986" lon="1.06561">
        <ele>146.74</ele>
        <time>2018-07-08T15:19:27Z</time>
      </trkpt>
      <trkpt lat="49.49856" lon="1.06556">
        <ele>146.74</ele>
        <time>2018-07-08T15:19:28Z</time>
      </trkpt>
      <trkpt lat="49.49852" lon="1.06552">
        <ele>146.74</ele>
        <time>2018-07-08T15:19:29Z</time>
      </trkpt>
      <trkpt lat="49.49844" lon="1.06543">
        <ele>146.74</ele>
        <time>2018-07-08T15:19:31Z</time>
      </trkpt>
      <trkpt lat="49.4984" lon="1.0654">
        <ele>145.78</ele>
        <time>2018-07-08T15:19:32Z</time>
      </trkpt>
      <trkpt lat="49.49836" lon="1.06536">
        <ele>145.78</ele>
        <time>2018-07-08T15:19:33Z</time>
      </trkpt>
      <trkpt lat="49.49833" lon="1.06531">
        <ele>145.78</ele>
        <time>2018-07-08T15:19:34Z</time>
      </trkpt>
      <trkpt lat="49.49832" lon="1.06525">
        <ele>145.78</ele>
        <time>2018-07-08T15:19:35Z</time>
      </trkpt>
      <trkpt lat="49.49828" lon="1.06514">
        <ele>145.78</ele>
        <time>2018-07-08T15:19:37Z</time>
      </trkpt>
      <trkpt lat="49.49824" lon="1.06509">
        <ele>145.78</ele>
        <time>2018-07-08T15:19:38Z</time>
      </trkpt>
      <trkpt lat="49.4982" lon="1.06505">
        <ele>145.3</ele>
        <time>2018-07-08T15:19:39Z</time>
      </trkpt>
      <trkpt lat="49.49815" lon="1.06501">
        <ele>145.3</ele>
        <time>2018-07-08T15:19:40Z</time>
      </trkpt>
      <trkpt lat="49.4981" lon="1.06499">
        <ele>145.3</ele>
        <time>2018-07-08T15:19:41Z</time>
      </trkpt>
      <trkpt lat="49.49805" lon="1.06497">
        <ele>145.3</ele>
        <time>2018-07-08T15:19:42Z</time>
      </trkpt>
      <trkpt lat="49.498" lon="1.06496">
        <ele>145.3</ele>
        <time>2018-07-08T15:19:43Z</time>
      </trkpt>
      <trkpt lat="49.49789" lon="1.06494">
        <ele>144.82</ele>
        <time>2018-07-08T15:19:45Z</time>
      </trkpt>
      <trkpt lat="49.49784" lon="1.06492">
        <ele>144.34</ele>
        <time>2018-07-08T15:19:46Z</time>
      </trkpt>
      <trkpt lat="49.49709" lon="1.06473">
        <ele>140.97</ele>
        <time>2018-07-08T15:19:58Z</time>
      </trkpt>
      <trkpt lat="49.49659" lon="1.06468">
        <ele>138.57</ele>
        <time>2018-07-08T15:20:05Z</time>
      </trkpt>
      <trkpt lat="49.49637" lon="1.06469">
        <ele>135.68</ele>
        <time>2018-07-08T15:20:08Z</time>
      </trkpt>
      <trkpt lat="49.49631" lon="1.06468">
        <ele>134.72</ele>
        <time>2018-07-08T15:20:09Z</time>
      </trkpt>
      <trkpt lat="49.4962" lon="1.06466">
        <ele>133.28</ele>
        <time>2018-07-08T15:20:11Z</time>
      </trkpt>
      <trkpt lat="49.49615" lon="1.06466">
        <ele>132.32</ele>
        <time>2018-07-08T15:20:12Z</time>
      </trkpt>
      <trkpt lat="49.496" lon="1.06469">
        <ele>128.95</ele>
        <time>2018-07-08T15:20:15Z</time>
      </trkpt>
      <trkpt lat="49.49596" lon="1.0647">
        <ele>127.51</ele>
        <time>2018-07-08T15:20:16Z</time>
      </trkpt>
      <trkpt lat="49.49591" lon="1.06471">
        <ele>126.55</ele>
        <time>2018-07-08T15:20:17Z</time>
      </trkpt>
      <trkpt lat="49.49586" lon="1.06472">
        <ele>125.59</ele>
        <time>2018-07-08T15:20:18Z</time>
      </trkpt>
      <trkpt lat="49.49581" lon="1.06473">
        <ele>124.15</ele>
        <time>2018-07-08T15:20:19Z</time>
      </trkpt>
      <trkpt lat="49.49575" lon="1.06473">
        <ele>122.71</ele>
        <time>2018-07-08T15:20:20Z</time>
      </trkpt>
      <trkpt lat="49.4957" lon="1.06472">
        <ele>121.74</ele>
        <time>2018-07-08T15:20:21Z</time>
      </trkpt>
      <trkpt lat="49.49554" lon="1.06471">
        <ele>117.9</ele>
        <time>2018-07-08T15:20:24Z</time>
      </trkpt>
      <trkpt lat="49.49548" lon="1.06468">
        <ele>116.94</ele>
        <time>2018-07-08T15:20:25Z</time>
      </trkpt>
      <trkpt lat="49.49538" lon="1.06464">
        <ele>113.57</ele>
        <time>2018-07-08T15:20:27Z</time>
      </trkpt>
      <trkpt lat="49.49532" lon="1.06464">
        <ele>112.61</ele>
        <time>2018-07-08T15:20:28Z</time>
      </trkpt>
      <trkpt lat="49.49526" lon="1.06465">
        <ele>111.17</ele>
        <time>2018-07-08T15:20:29Z</time>
      </trkpt>
      <trkpt lat="49.49513" lon="1.06467">
        <ele>107.81</ele>
        <time>2018-07-08T15:20:31Z</time>
      </trkpt>
      <trkpt lat="49.495" lon="1.06466">
        <ele>106.36</ele>
        <time>2018-07-08T15:20:33Z</time>
      </trkpt>
      <trkpt lat="49.49479" lon="1.06463">
        <ele>102.52</ele>
        <time>2018-07-08T15:20:36Z</time>
      </trkpt>
      <trkpt lat="49.49472" lon="1.06462">
        <ele>100.6</ele>
        <time>2018-07-08T15:20:37Z</time>
      </trkpt>
      <trkpt lat="49.49451" lon="1.06457">
        <ele>97.23</ele>
        <time>2018-07-08T15:20:40Z</time>
      </trkpt>
      <trkpt lat="49.49424" lon="1.0645">
        <ele>93.39</ele>
        <time>2018-07-08T15:20:44Z</time>
      </trkpt>
      <trkpt lat="49.49418" lon="1.06448">
        <ele>92.9</ele>
        <time>2018-07-08T15:20:45Z</time>
      </trkpt>
      <trkpt lat="49.49393" lon="1.06441">
        <ele>89.06</ele>
        <time>2018-07-08T15:20:49Z</time>
      </trkpt>
      <trkpt lat="49.49376" lon="1.06434">
        <ele>87.14</ele>
        <time>2018-07-08T15:20:52Z</time>
      </trkpt>
      <trkpt lat="49.49349" lon="1.06421">
        <ele>82.81</ele>
        <time>2018-07-08T15:20:56Z</time>
      </trkpt>
      <trkpt lat="49.49344" lon="1.06419">
        <ele>81.85</ele>
        <time>2018-07-08T15:20:57Z</time>
      </trkpt>
      <trkpt lat="49.49318" lon="1.06406">
        <ele>77.52</ele>
        <time>2018-07-08T15:21:01Z</time>
      </trkpt>
      <trkpt lat="49.49297" lon="1.064">
        <ele>73.68</ele>
        <time>2018-07-08T15:21:04Z</time>
      </trkpt>
      <trkpt lat="49.4929" lon="1.06398">
        <ele>72.72</ele>
        <time>2018-07-08T15:21:05Z</time>
      </trkpt>
      <trkpt lat="49.4927" lon="1.06388">
        <ele>68.87</ele>
        <time>2018-07-08T15:21:08Z</time>
      </trkpt>
      <trkpt lat="49.49252" lon="1.0638">
        <ele>65.03</ele>
        <time>2018-07-08T15:21:11Z</time>
      </trkpt>
      <trkpt lat="49.49231" lon="1.0637">
        <ele>61.18</ele>
        <time>2018-07-08T15:21:14Z</time>
      </trkpt>
      <trkpt lat="49.49198" lon="1.0635">
        <ele>57.82</ele>
        <time>2018-07-08T15:21:18Z</time>
      </trkpt>
      <trkpt lat="49.49189" lon="1.06345">
        <ele>56.37</ele>
        <time>2018-07-08T15:21:19Z</time>
      </trkpt>
      <trkpt lat="49.49182" lon="1.06343">
        <ele>55.41</ele>
        <time>2018-07-08T15:21:20Z</time>
      </trkpt>
      <trkpt lat="49.49169" lon="1.0634">
        <ele>53.49</ele>
        <time>2018-07-08T15:21:22Z</time>
      </trkpt>
      <trkpt lat="49.49165" lon="1.06341">
        <ele>53.49</ele>
        <time>2018-07-08T15:21:23Z</time>
      </trkpt>
      <trkpt lat="49.49161" lon="1.06344">
        <ele>53.01</ele>
        <time>2018-07-08T15:21:24Z</time>
      </trkpt>
      <trkpt lat="49.49158" lon="1.06348">
        <ele>53.01</ele>
        <time>2018-07-08T15:21:25Z</time>
      </trkpt>
      <trkpt lat="49.49155" lon="1.0635">
        <ele>52.53</ele>
        <time>2018-07-08T15:21:26Z</time>
      </trkpt>
      <trkpt lat="49.49149" lon="1.06353">
        <ele>52.05</ele>
        <time>2018-07-08T15:21:38Z</time>
      </trkpt>
      <trkpt lat="49.49148" lon="1.06349">
        <ele>52.05</ele>
        <time>2018-07-08T15:22:08Z</time>
      </trkpt>
      <trkpt lat="49.49147" lon="1.06349">
        <ele>52.05</ele>
        <time>2018-07-08T15:22:12Z</time>
      </trkpt>
      <trkpt lat="49.49145" lon="1.0635">
        <ele>52.05</ele>
        <time>2018-07-08T15:22:13Z</time>
      </trkpt>
      <trkpt lat="49.49143" lon="1.06349">
        <ele>51.57</ele>
        <time>2018-07-08T15:22:14Z</time>
      </trkpt>
      <trkpt lat="49.49141" lon="1.06346">
        <ele>51.57</ele>
        <time>2018-07-08T15:22:15Z</time>
      </trkpt>
      <trkpt lat="49.49139" lon="1.06343">
        <ele>51.57</ele>
        <time>2018-07-08T15:22:16Z</time>
      </trkpt>
      <trkpt lat="49.49137" lon="1.06339">
        <ele>51.57</ele>
        <time>2018-07-08T15:22:17Z</time>
      </trkpt>
      <trkpt lat="49.49092" lon="1.06285">
        <ele>51.57</ele>
        <time>2018-07-08T15:22:29Z</time>
      </trkpt>
      <trkpt lat="49.49016" lon="1.06214">
        <ele>49.65</ele>
        <time>2018-07-08T15:22:45Z</time>
      </trkpt>
      <trkpt lat="49.48975" lon="1.06202">
        <ele>48.68</ele>
        <time>2018-07-08T15:22:53Z</time>
      </trkpt>
      <trkpt lat="49.48971" lon="1.06203">
        <ele>48.68</ele>
        <time>2018-07-08T15:22:54Z</time>
      </trkpt>
      <trkpt lat="49.48964" lon="1.06207">
        <ele>48.68</ele>
        <time>2018-07-08T15:22:56Z</time>
      </trkpt>
      <trkpt lat="49.4896" lon="1.06211">
        <ele>48.2</ele>
        <time>2018-07-08T15:22:57Z</time>
      </trkpt>
      <trkpt lat="49.48957" lon="1.06216">
        <ele>48.2</ele>
        <time>2018-07-08T15:22:58Z</time>
      </trkpt>
      <trkpt lat="49.48956" lon="1.0622">
        <ele>48.2</ele>
        <time>2018-07-08T15:22:59Z</time>
      </trkpt>
      <trkpt lat="49.48954" lon="1.06225">
        <ele>48.2</ele>
        <time>2018-07-08T15:23:00Z</time>
      </trkpt>
      <trkpt lat="49.48954" lon="1.0623">
        <ele>48.2</ele>
        <time>2018-07-08T15:23:01Z</time>
      </trkpt>
      <trkpt lat="49.48953" lon="1.06235">
        <ele>48.2</ele>
        <time>2018-07-08T15:23:02Z</time>
      </trkpt>
      <trkpt lat="49.48952" lon="1.06246">
        <ele>50.13</ele>
        <time>2018-07-08T15:23:04Z</time>
      </trkpt>
      <trkpt lat="49.48946" lon="1.06323">
        <ele>53.01</ele>
        <time>2018-07-08T15:23:19Z</time>
      </trkpt>
      <trkpt lat="49.48932" lon="1.06388">
        <ele>54.45</ele>
        <time>2018-07-08T15:23:32Z</time>
      </trkpt>
      <trkpt lat="49.48928" lon="1.06403">
        <ele>54.93</ele>
        <time>2018-07-08T15:23:42Z</time>
      </trkpt>
      <trkpt lat="49.48926" lon="1.06402">
        <ele>53.97</ele>
        <time>2018-07-08T15:24:01Z</time>
      </trkpt>
      <trkpt lat="49.48926" lon="1.064">
        <ele>53.97</ele>
        <time>2018-07-08T15:24:11Z</time>
      </trkpt>
      <trkpt lat="49.48929" lon="1.06394">
        <ele>53.97</ele>
        <time>2018-07-08T15:24:14Z</time>
      </trkpt>
      <trkpt lat="49.48944" lon="1.06353">
        <ele>53.49</ele>
        <time>2018-07-08T15:24:23Z</time>
      </trkpt>
      <trkpt lat="49.48945" lon="1.06347">
        <ele>52.05</ele>
        <time>2018-07-08T15:24:24Z</time>
      </trkpt>
      <trkpt lat="49.48946" lon="1.06334">
        <ele>52.05</ele>
        <time>2018-07-08T15:24:26Z</time>
      </trkpt>
      <trkpt lat="49.48947" lon="1.06327">
        <ele>51.57</ele>
        <time>2018-07-08T15:24:27Z</time>
      </trkpt>
      <trkpt lat="49.4895" lon="1.06306">
        <ele>51.57</ele>
        <time>2018-07-08T15:24:30Z</time>
      </trkpt>
      <trkpt lat="49.4895" lon="1.063">
        <ele>51.57</ele>
        <time>2018-07-08T15:24:31Z</time>
      </trkpt>
      <trkpt lat="49.48952" lon="1.06295">
        <ele>51.57</ele>
        <time>2018-07-08T15:24:32Z</time>
      </trkpt>
      <trkpt lat="49.48956" lon="1.06293">
        <ele>51.57</ele>
        <time>2018-07-08T15:24:33Z</time>
      </trkpt>
      <trkpt lat="49.48957" lon="1.06293">
        <ele>51.57</ele>
        <time>2018-07-08T15:24:34Z</time>
      </trkpt>
      <trkpt lat="49.4896" lon="1.06294">
        <ele>51.09</ele>
        <time>2018-07-08T15:24:35Z</time>
      </trkpt>
      <trkpt lat="49.48963" lon="1.06295">
        <ele>51.09</ele>
        <time>2018-07-08T15:24:36Z</time>
      </trkpt>
      <trkpt lat="49.48966" lon="1.06296">
        <ele>51.09</ele>
        <time>2018-07-08T15:24:37Z</time>
      </trkpt>
      <trkpt lat="49.49004" lon="1.06303">
        <ele>50.13</ele>
        <time>2018-07-08T15:24:49Z</time>
      </trkpt>
      <trkpt lat="49.49006" lon="1.06304">
        <ele>50.13</ele>
        <time>2018-07-08T15:24:50Z</time>
      </trkpt>
      <trkpt lat="49.49007" lon="1.06306">
        <ele>50.13</ele>
        <time>2018-07-08T15:24:51Z</time>
      </trkpt>
      <trkpt lat="49.49008" lon="1.06309">
        <ele>50.13</ele>
        <time>2018-07-08T15:24:52Z</time>
      </trkpt>
      <trkpt lat="49.49007" lon="1.06318">
        <ele>50.13</ele>
        <time>2018-07-08T15:24:55Z</time>
      </trkpt>
      <trkpt lat="49.48983" lon="1.0638">
        <ele>50.13</ele>
        <time>2018-07-08T15:25:10Z</time>
      </trkpt>
      <trkpt lat="49.48977" lon="1.06402">
        <ele>50.13</ele>
        <time>2018-07-08T15:25:22Z</time>
      </trkpt>
      <trkpt lat="49.48978" lon="1.06398">
        <ele>51.09</ele>
        <time>2018-07-08T15:25:37Z</time>
      </trkpt>
      <trkpt lat="49.48978" lon="1.06396">
        <ele>51.09</ele>
        <time>2018-07-08T15:25:38Z</time>
      </trkpt>
      <trkpt lat="49.48979" lon="1.06393">
        <ele>51.09</ele>
        <time>2018-07-08T15:25:39Z</time>
      </trkpt>
      <trkpt lat="49.4898" lon="1.0639">
        <ele>51.09</ele>
        <time>2018-07-08T15:25:40Z</time>
      </trkpt>
      <trkpt lat="49.48982" lon="1.06385">
        <ele>51.09</ele>
        <time>2018-07-08T15:25:41Z</time>
      </trkpt>
      <trkpt lat="49.48983" lon="1.0638">
        <ele>51.09</ele>
        <time>2018-07-08T15:25:42Z</time>
      </trkpt>
      <trkpt lat="49.48998" lon="1.06335">
        <ele>49.65</ele>
        <time>2018-07-08T15:25:53Z</time>
      </trkpt>
      <trkpt lat="49.49003" lon="1.06321">
        <ele>49.65</ele>
        <time>2018-07-08T15:25:57Z</time>
      </trkpt>
      <trkpt lat="49.49009" lon="1.06321">
        <ele>49.65</ele>
        <time>2018-07-08T15:25:59Z</time>
      </trkpt>
      <trkpt lat="49.4901" lon="1.06321">
        <ele>49.65</ele>
        <time>2018-07-08T15:26:00Z</time>
      </trkpt>
      <trkpt lat="49.49012" lon="1.06325">
        <ele>49.65</ele>
        <time>2018-07-08T15:26:01Z</time>
      </trkpt>
      <trkpt lat="49.49012" lon="1.06328">
        <ele>49.65</ele>
        <time>2018-07-08T15:26:02Z</time>
      </trkpt>
      <trkpt lat="49.4901" lon="1.06337">
        <ele>49.65</ele>
        <time>2018-07-08T15:26:05Z</time>
      </trkpt>
      <trkpt lat="49.49001" lon="1.06357">
        <ele>51.09</ele>
        <time>2018-07-08T15:26:13Z</time>
      </trkpt>
      <trkpt lat="49.48993" lon="1.064">
        <ele>53.97</ele>
        <time>2018-07-08T15:26:31Z</time>
      </trkpt>
      <trkpt lat="49.48992" lon="1.06425">
        <ele>57.34</ele>
        <time>2018-07-08T15:26:43Z</time>
      </trkpt>
      <trkpt lat="49.4899" lon="1.06436">
        <ele>58.3</ele>
        <time>2018-07-08T15:26:48Z</time>
      </trkpt>
      <trkpt lat="49.4899" lon="1.06438">
        <ele>58.78</ele>
        <time>2018-07-08T15:26:49Z</time>
      </trkpt>
      <trkpt lat="49.48993" lon="1.06458">
        <ele>62.14</ele>
        <time>2018-07-08T15:26:59Z</time>
      </trkpt>
      <trkpt lat="49.48997" lon="1.06475">
        <ele>64.07</ele>
        <time>2018-07-08T15:27:06Z</time>
      </trkpt>
      <trkpt lat="49.48997" lon="1.06481">
        <ele>64.55</ele>
        <time>2018-07-08T15:27:09Z</time>
      </trkpt>
      <trkpt lat="49.48998" lon="1.06482">
        <ele>65.03</ele>
        <time>2018-07-08T15:27:10Z</time>
      </trkpt>
      <trkpt lat="49.48999" lon="1.06484">
        <ele>65.03</ele>
        <time>2018-07-08T15:27:11Z</time>
      </trkpt>
      <trkpt lat="49.49001" lon="1.06486">
        <ele>65.51</ele>
        <time>2018-07-08T15:27:12Z</time>
      </trkpt>
      <trkpt lat="49.49002" lon="1.06487">
        <ele>65.99</ele>
        <time>2018-07-08T15:27:13Z</time>
      </trkpt>
      <trkpt lat="49.49009" lon="1.06501">
        <ele>67.91</ele>
        <time>2018-07-08T15:27:23Z</time>
      </trkpt>
      <trkpt lat="49.4901" lon="1.06503">
        <ele>67.91</ele>
        <time>2018-07-08T15:27:24Z</time>
      </trkpt>
      <trkpt lat="49.49011" lon="1.06504">
        <ele>68.39</ele>
        <time>2018-07-08T15:27:25Z</time>
      </trkpt>
      <trkpt lat="49.49019" lon="1.06519">
        <ele>71.27</ele>
        <time>2018-07-08T15:27:35Z</time>
      </trkpt>
      <trkpt lat="49.49021" lon="1.06519">
        <ele>71.76</ele>
        <time>2018-07-08T15:27:36Z</time>
      </trkpt>
      <trkpt lat="49.49023" lon="1.0652">
        <ele>71.76</ele>
        <time>2018-07-08T15:27:37Z</time>
      </trkpt>
      <trkpt lat="49.49026" lon="1.06522">
        <ele>71.76</ele>
        <time>2018-07-08T15:27:38Z</time>
      </trkpt>
      <trkpt lat="49.49028" lon="1.06525">
        <ele>71.27</ele>
        <time>2018-07-08T15:27:39Z</time>
      </trkpt>
      <trkpt lat="49.49031" lon="1.06529">
        <ele>71.27</ele>
        <time>2018-07-08T15:27:40Z</time>
      </trkpt>
      <trkpt lat="49.49032" lon="1.06531">
        <ele>71.27</ele>
        <time>2018-07-08T15:27:41Z</time>
      </trkpt>
      <trkpt lat="49.49033" lon="1.06533">
        <ele>71.27</ele>
        <time>2018-07-08T15:27:42Z</time>
      </trkpt>
      <trkpt lat="49.49035" lon="1.06534">
        <ele>71.27</ele>
        <time>2018-07-08T15:27:43Z</time>
      </trkpt>
      <trkpt lat="49.49037" lon="1.06535">
        <ele>71.27</ele>
        <time>2018-07-08T15:27:44Z</time>
      </trkpt>
      <trkpt lat="49.4904" lon="1.06537">
        <ele>71.27</ele>
        <time>2018-07-08T15:27:45Z</time>
      </trkpt>
      <trkpt lat="49.49042" lon="1.06538">
        <ele>71.27</ele>
        <time>2018-07-08T15:27:46Z</time>
      </trkpt>
      <trkpt lat="49.49045" lon="1.0654">
        <ele>71.27</ele>
        <time>2018-07-08T15:27:47Z</time>
      </trkpt>
      <trkpt lat="49.49048" lon="1.06541">
        <ele>69.83</ele>
        <time>2018-07-08T15:27:48Z</time>
      </trkpt>
      <trkpt lat="49.49052" lon="1.06544">
        <ele>68.87</ele>
        <time>2018-07-08T15:27:49Z</time>
      </trkpt>
      <trkpt lat="49.49055" lon="1.06549">
        <ele>68.87</ele>
        <time>2018-07-08T15:27:50Z</time>
      </trkpt>
      <trkpt lat="49.49058" lon="1.06553">
        <ele>68.87</ele>
        <time>2018-07-08T15:27:51Z</time>
      </trkpt>
      <trkpt lat="49.4906" lon="1.06557">
        <ele>68.87</ele>
        <time>2018-07-08T15:27:52Z</time>
      </trkpt>
      <trkpt lat="49.49087" lon="1.06604">
        <ele>68.39</ele>
        <time>2018-07-08T15:28:03Z</time>
      </trkpt>
      <trkpt lat="49.49098" lon="1.06623">
        <ele>69.83</ele>
        <time>2018-07-08T15:28:08Z</time>
      </trkpt>
      <trkpt lat="49.49118" lon="1.06655">
        <ele>71.76</ele>
        <time>2018-07-08T15:28:17Z</time>
      </trkpt>
      <trkpt lat="49.4914" lon="1.06684">
        <ele>73.68</ele>
        <time>2018-07-08T15:28:27Z</time>
      </trkpt>
      <trkpt lat="49.49161" lon="1.06716">
        <ele>76.08</ele>
        <time>2018-07-08T15:28:39Z</time>
      </trkpt>
      <trkpt lat="49.49184" lon="1.06749">
        <ele>78.48</ele>
        <time>2018-07-08T15:28:51Z</time>
      </trkpt>
      <trkpt lat="49.49207" lon="1.06782">
        <ele>81.37</ele>
        <time>2018-07-08T15:29:02Z</time>
      </trkpt>
      <trkpt lat="49.49231" lon="1.06814">
        <ele>83.29</ele>
        <time>2018-07-08T15:29:13Z</time>
      </trkpt>
      <trkpt lat="49.4926" lon="1.06863">
        <ele>85.69</ele>
        <time>2018-07-08T15:29:28Z</time>
      </trkpt>
      <trkpt lat="49.49261" lon="1.06869">
        <ele>85.69</ele>
        <time>2018-07-08T15:29:30Z</time>
      </trkpt>
      <trkpt lat="49.49262" lon="1.06872">
        <ele>86.18</ele>
        <time>2018-07-08T15:29:31Z</time>
      </trkpt>
      <trkpt lat="49.49264" lon="1.06875">
        <ele>86.18</ele>
        <time>2018-07-08T15:29:32Z</time>
      </trkpt>
      <trkpt lat="49.49266" lon="1.06878">
        <ele>86.18</ele>
        <time>2018-07-08T15:29:33Z</time>
      </trkpt>
      <trkpt lat="49.49268" lon="1.06881">
        <ele>86.66</ele>
        <time>2018-07-08T15:29:34Z</time>
      </trkpt>
      <trkpt lat="49.49288" lon="1.06919">
        <ele>89.06</ele>
        <time>2018-07-08T15:29:45Z</time>
      </trkpt>
      <trkpt lat="49.49307" lon="1.06952">
        <ele>90.98</ele>
        <time>2018-07-08T15:29:55Z</time>
      </trkpt>
      <trkpt lat="49.49331" lon="1.06991">
        <ele>94.35</ele>
        <time>2018-07-08T15:30:07Z</time>
      </trkpt>
      <trkpt lat="49.49351" lon="1.07024">
        <ele>96.75</ele>
        <time>2018-07-08T15:30:18Z</time>
      </trkpt>
      <trkpt lat="49.49372" lon="1.07054">
        <ele>99.15</ele>
        <time>2018-07-08T15:30:30Z</time>
      </trkpt>
      <trkpt lat="49.49391" lon="1.0708">
        <ele>101.08</ele>
        <time>2018-07-08T15:30:39Z</time>
      </trkpt>
      <trkpt lat="49.49393" lon="1.07082">
        <ele>101.56</ele>
        <time>2018-07-08T15:30:40Z</time>
      </trkpt>
      <trkpt lat="49.49418" lon="1.07111">
        <ele>104.44</ele>
        <time>2018-07-08T15:30:53Z</time>
      </trkpt>
      <trkpt lat="49.49429" lon="1.07124">
        <ele>104.92</ele>
        <time>2018-07-08T15:30:59Z</time>
      </trkpt>
      <trkpt lat="49.49431" lon="1.07126">
        <ele>105.4</ele>
        <time>2018-07-08T15:31:00Z</time>
      </trkpt>
      <trkpt lat="49.49433" lon="1.07127">
        <ele>105.4</ele>
        <time>2018-07-08T15:31:01Z</time>
      </trkpt>
      <trkpt lat="49.49436" lon="1.07128">
        <ele>105.88</ele>
        <time>2018-07-08T15:31:02Z</time>
      </trkpt>
      <trkpt lat="49.49438" lon="1.0713">
        <ele>106.36</ele>
        <time>2018-07-08T15:31:03Z</time>
      </trkpt>
      <trkpt lat="49.4944" lon="1.07132">
        <ele>106.36</ele>
        <time>2018-07-08T15:31:04Z</time>
      </trkpt>
      <trkpt lat="49.49443" lon="1.07133">
        <ele>106.84</ele>
        <time>2018-07-08T15:31:05Z</time>
      </trkpt>
      <trkpt lat="49.49446" lon="1.07135">
        <ele>106.84</ele>
        <time>2018-07-08T15:31:06Z</time>
      </trkpt>
      <trkpt lat="49.49468" lon="1.07153">
        <ele>109.25</ele>
        <time>2018-07-08T15:31:15Z</time>
      </trkpt>
      <trkpt lat="49.49487" lon="1.07178">
        <ele>111.65</ele>
        <time>2018-07-08T15:31:26Z</time>
      </trkpt>
      <trkpt lat="49.49499" lon="1.07195">
        <ele>113.57</ele>
        <time>2018-07-08T15:31:34Z</time>
      </trkpt>
      <trkpt lat="49.49501" lon="1.07197">
        <ele>113.57</ele>
        <time>2018-07-08T15:31:35Z</time>
      </trkpt>
      <trkpt lat="49.49502" lon="1.072">
        <ele>113.57</ele>
        <time>2018-07-08T15:31:36Z</time>
      </trkpt>
      <trkpt lat="49.49519" lon="1.07222">
        <ele>115.5</ele>
        <time>2018-07-08T15:31:47Z</time>
      </trkpt>
      <trkpt lat="49.49539" lon="1.07249">
        <ele>117.42</ele>
        <time>2018-07-08T15:31:58Z</time>
      </trkpt>
      <trkpt lat="49.4955" lon="1.07267">
        <ele>119.34</ele>
        <time>2018-07-08T15:32:05Z</time>
      </trkpt>
      <trkpt lat="49.4955" lon="1.0727">
        <ele>118.86</ele>
        <time>2018-07-08T15:32:06Z</time>
      </trkpt>
      <trkpt lat="49.49551" lon="1.07272">
        <ele>119.34</ele>
        <time>2018-07-08T15:32:07Z</time>
      </trkpt>
      <trkpt lat="49.49552" lon="1.07275">
        <ele>119.34</ele>
        <time>2018-07-08T15:32:08Z</time>
      </trkpt>
      <trkpt lat="49.49553" lon="1.07277">
        <ele>119.82</ele>
        <time>2018-07-08T15:32:09Z</time>
      </trkpt>
      <trkpt lat="49.49555" lon="1.07279">
        <ele>119.82</ele>
        <time>2018-07-08T15:32:10Z</time>
      </trkpt>
      <trkpt lat="49.49557" lon="1.07283">
        <ele>119.82</ele>
        <time>2018-07-08T15:32:11Z</time>
      </trkpt>
      <trkpt lat="49.49558" lon="1.07285">
        <ele>120.3</ele>
        <time>2018-07-08T15:32:12Z</time>
      </trkpt>
      <trkpt lat="49.49558" lon="1.07288">
        <ele>120.3</ele>
        <time>2018-07-08T15:32:13Z</time>
      </trkpt>
      <trkpt lat="49.49559" lon="1.07291">
        <ele>120.3</ele>
        <time>2018-07-08T15:32:14Z</time>
      </trkpt>
      <trkpt lat="49.49566" lon="1.07306">
        <ele>121.74</ele>
        <time>2018-07-08T15:32:19Z</time>
      </trkpt>
      <trkpt lat="49.49567" lon="1.07308">
        <ele>121.74</ele>
        <time>2018-07-08T15:32:20Z</time>
      </trkpt>
      <trkpt lat="49.49567" lon="1.07311">
        <ele>121.74</ele>
        <time>2018-07-08T15:32:21Z</time>
      </trkpt>
      <trkpt lat="49.49568" lon="1.07315">
        <ele>122.22</ele>
        <time>2018-07-08T15:32:22Z</time>
      </trkpt>
      <trkpt lat="49.49568" lon="1.07318">
        <ele>122.22</ele>
        <time>2018-07-08T15:32:23Z</time>
      </trkpt>
      <trkpt lat="49.49568" lon="1.07321">
        <ele>122.22</ele>
        <time>2018-07-08T15:32:24Z</time>
      </trkpt>
      <trkpt lat="49.4957" lon="1.07333">
        <ele>122.71</ele>
        <time>2018-07-08T15:32:28Z</time>
      </trkpt>
      <trkpt lat="49.4957" lon="1.07335">
        <ele>123.19</ele>
        <time>2018-07-08T15:32:29Z</time>
      </trkpt>
      <trkpt lat="49.4957" lon="1.07337">
        <ele>123.19</ele>
        <time>2018-07-08T15:32:30Z</time>
      </trkpt>
      <trkpt lat="49.49569" lon="1.07339">
        <ele>123.19</ele>
        <time>2018-07-08T15:32:31Z</time>
      </trkpt>
      <trkpt lat="49.49569" lon="1.07342">
        <ele>123.67</ele>
        <time>2018-07-08T15:32:32Z</time>
      </trkpt>
      <trkpt lat="49.49568" lon="1.07344">
        <ele>123.67</ele>
        <time>2018-07-08T15:32:33Z</time>
      </trkpt>
      <trkpt lat="49.49568" lon="1.07347">
        <ele>123.67</ele>
        <time>2018-07-08T15:32:34Z</time>
      </trkpt>
      <trkpt lat="49.49567" lon="1.07349">
        <ele>124.15</ele>
        <time>2018-07-08T15:32:35Z</time>
      </trkpt>
      <trkpt lat="49.49567" lon="1.07353">
        <ele>124.15</ele>
        <time>2018-07-08T15:32:36Z</time>
      </trkpt>
      <trkpt lat="49.49567" lon="1.07356">
        <ele>124.15</ele>
        <time>2018-07-08T15:32:37Z</time>
      </trkpt>
      <trkpt lat="49.49567" lon="1.07359">
        <ele>124.15</ele>
        <time>2018-07-08T15:32:38Z</time>
      </trkpt>
      <trkpt lat="49.49566" lon="1.07361">
        <ele>124.63</ele>
        <time>2018-07-08T15:32:39Z</time>
      </trkpt>
      <trkpt lat="49.49565" lon="1.07364">
        <ele>125.11</ele>
        <time>2018-07-08T15:32:40Z</time>
      </trkpt>
      <trkpt lat="49.49564" lon="1.07367">
        <ele>125.11</ele>
        <time>2018-07-08T15:32:41Z</time>
      </trkpt>
      <trkpt lat="49.49563" lon="1.0737">
        <ele>125.59</ele>
        <time>2018-07-08T15:32:42Z</time>
      </trkpt>
      <trkpt lat="49.49562" lon="1.07373">
        <ele>125.59</ele>
        <time>2018-07-08T15:32:43Z</time>
      </trkpt>
      <trkpt lat="49.49561" lon="1.07376">
        <ele>126.07</ele>
        <time>2018-07-08T15:32:44Z</time>
      </trkpt>
      <trkpt lat="49.4956" lon="1.07379">
        <ele>126.55</ele>
        <time>2018-07-08T15:32:45Z</time>
      </trkpt>
      <trkpt lat="49.49543" lon="1.07402">
        <ele>129.43</ele>
        <time>2018-07-08T15:32:59Z</time>
      </trkpt>
      <trkpt lat="49.49527" lon="1.07411">
        <ele>131.84</ele>
        <time>2018-07-08T15:33:11Z</time>
      </trkpt>
      <trkpt lat="49.49514" lon="1.07413">
        <ele>132.8</ele>
        <time>2018-07-08T15:33:19Z</time>
      </trkpt>
      <trkpt lat="49.4951" lon="1.07409">
        <ele>133.28</ele>
        <time>2018-07-08T15:33:23Z</time>
      </trkpt>
      <trkpt lat="49.49482" lon="1.07407">
        <ele>135.2</ele>
        <time>2018-07-08T15:33:35Z</time>
      </trkpt>
      <trkpt lat="49.49462" lon="1.07412">
        <ele>137.61</ele>
        <time>2018-07-08T15:33:45Z</time>
      </trkpt>
      <trkpt lat="49.49457" lon="1.0742">
        <ele>138.09</ele>
        <time>2018-07-08T15:33:48Z</time>
      </trkpt>
      <trkpt lat="49.49457" lon="1.07423">
        <ele>138.09</ele>
        <time>2018-07-08T15:33:49Z</time>
      </trkpt>
      <trkpt lat="49.49456" lon="1.07427">
        <ele>138.09</ele>
        <time>2018-07-08T15:33:50Z</time>
      </trkpt>
      <trkpt lat="49.49471" lon="1.07466">
        <ele>138.57</ele>
        <time>2018-07-08T15:34:01Z</time>
      </trkpt>
      <trkpt lat="49.49471" lon="1.07471">
        <ele>138.57</ele>
        <time>2018-07-08T15:34:02Z</time>
      </trkpt>
      <trkpt lat="49.49471" lon="1.07477">
        <ele>138.57</ele>
        <time>2018-07-08T15:34:03Z</time>
      </trkpt>
      <trkpt lat="49.49472" lon="1.07539">
        <ele>139.05</ele>
        <time>2018-07-08T15:34:14Z</time>
      </trkpt>
      <trkpt lat="49.49471" lon="1.07589">
        <ele>140.49</ele>
        <time>2018-07-08T15:34:24Z</time>
      </trkpt>
      <trkpt lat="49.49469" lon="1.07642">
        <ele>142.89</ele>
        <time>2018-07-08T15:34:35Z</time>
      </trkpt>
      <trkpt lat="49.49475" lon="1.07706">
        <ele>145.3</ele>
        <time>2018-07-08T15:34:47Z</time>
      </trkpt>
      <trkpt lat="49.49474" lon="1.0771">
        <ele>145.78</ele>
        <time>2018-07-08T15:34:48Z</time>
      </trkpt>
      <trkpt lat="49.49474" lon="1.07714">
        <ele>145.78</ele>
        <time>2018-07-08T15:34:49Z</time>
      </trkpt>
      <trkpt lat="49.49474" lon="1.07719">
        <ele>145.78</ele>
        <time>2018-07-08T15:34:50Z</time>
      </trkpt>
      <trkpt lat="49.49474" lon="1.07724">
        <ele>145.78</ele>
        <time>2018-07-08T15:34:51Z</time>
      </trkpt>
      <trkpt lat="49.49471" lon="1.07772">
        <ele>147.22</ele>
        <time>2018-07-08T15:35:01Z</time>
      </trkpt>
      <trkpt lat="49.49474" lon="1.07835">
        <ele>148.66</ele>
        <time>2018-07-08T15:35:13Z</time>
      </trkpt>
      <trkpt lat="49.49474" lon="1.07881">
        <ele>149.14</ele>
        <time>2018-07-08T15:35:22Z</time>
      </trkpt>
      <trkpt lat="49.49475" lon="1.07886">
        <ele>149.14</ele>
        <time>2018-07-08T15:35:23Z</time>
      </trkpt>
      <trkpt lat="49.49475" lon="1.07891">
        <ele>149.14</ele>
        <time>2018-07-08T15:35:24Z</time>
      </trkpt>
      <trkpt lat="49.49475" lon="1.07896">
        <ele>149.14</ele>
        <time>2018-07-08T15:35:25Z</time>
      </trkpt>
      <trkpt lat="49.49473" lon="1.07901">
        <ele>149.14</ele>
        <time>2018-07-08T15:35:26Z</time>
      </trkpt>
      <trkpt lat="49.49471" lon="1.07905">
        <ele>149.14</ele>
        <time>2018-07-08T15:35:27Z</time>
      </trkpt>
      <trkpt lat="49.49469" lon="1.07908">
        <ele>149.62</ele>
        <time>2018-07-08T15:35:28Z</time>
      </trkpt>
      <trkpt lat="49.49467" lon="1.07911">
        <ele>149.62</ele>
        <time>2018-07-08T15:35:29Z</time>
      </trkpt>
      <trkpt lat="49.49465" lon="1.07913">
        <ele>149.62</ele>
        <time>2018-07-08T15:35:30Z</time>
      </trkpt>
      <trkpt lat="49.49462" lon="1.07915">
        <ele>149.62</ele>
        <time>2018-07-08T15:35:31Z</time>
      </trkpt>
      <trkpt lat="49.4946" lon="1.07916">
        <ele>149.62</ele>
        <time>2018-07-08T15:35:32Z</time>
      </trkpt>
      <trkpt lat="49.49457" lon="1.07917">
        <ele>149.62</ele>
        <time>2018-07-08T15:35:33Z</time>
      </trkpt>
      <trkpt lat="49.49421" lon="1.07936">
        <ele>150.58</ele>
        <time>2018-07-08T15:35:42Z</time>
      </trkpt>
      <trkpt lat="49.49415" lon="1.07939">
        <ele>150.58</ele>
        <time>2018-07-08T15:35:43Z</time>
      </trkpt>
      <trkpt lat="49.4941" lon="1.07941">
        <ele>150.58</ele>
        <time>2018-07-08T15:35:44Z</time>
      </trkpt>
      <trkpt lat="49.49399" lon="1.07945">
        <ele>150.58</ele>
        <time>2018-07-08T15:35:46Z</time>
      </trkpt>
      <trkpt lat="49.49388" lon="1.07951">
        <ele>150.58</ele>
        <time>2018-07-08T15:35:48Z</time>
      </trkpt>
      <trkpt lat="49.49356" lon="1.07976">
        <ele>150.58</ele>
        <time>2018-07-08T15:35:55Z</time>
      </trkpt>
      <trkpt lat="49.49352" lon="1.0798">
        <ele>150.58</ele>
        <time>2018-07-08T15:35:56Z</time>
      </trkpt>
      <trkpt lat="49.49346" lon="1.07984">
        <ele>150.58</ele>
        <time>2018-07-08T15:35:57Z</time>
      </trkpt>
      <trkpt lat="49.49341" lon="1.07988">
        <ele>150.58</ele>
        <time>2018-07-08T15:35:58Z</time>
      </trkpt>
      <trkpt lat="49.49337" lon="1.07991">
        <ele>150.58</ele>
        <time>2018-07-08T15:35:59Z</time>
      </trkpt>
      <trkpt lat="49.49318" lon="1.08008">
        <ele>150.58</ele>
        <time>2018-07-08T15:36:03Z</time>
      </trkpt>
      <trkpt lat="49.49313" lon="1.08011">
        <ele>150.58</ele>
        <time>2018-07-08T15:36:04Z</time>
      </trkpt>
      <trkpt lat="49.49274" lon="1.08043">
        <ele>150.58</ele>
        <time>2018-07-08T15:36:12Z</time>
      </trkpt>
      <trkpt lat="49.49269" lon="1.08048">
        <ele>150.58</ele>
        <time>2018-07-08T15:36:13Z</time>
      </trkpt>
      <trkpt lat="49.49265" lon="1.08052">
        <ele>149.62</ele>
        <time>2018-07-08T15:36:14Z</time>
      </trkpt>
      <trkpt lat="49.4926" lon="1.08056">
        <ele>149.14</ele>
        <time>2018-07-08T15:36:15Z</time>
      </trkpt>
      <trkpt lat="49.49254" lon="1.0806">
        <ele>149.14</ele>
        <time>2018-07-08T15:36:16Z</time>
      </trkpt>
      <trkpt lat="49.49207" lon="1.08096">
        <ele>147.7</ele>
        <time>2018-07-08T15:36:24Z</time>
      </trkpt>
      <trkpt lat="49.49179" lon="1.08116">
        <ele>147.7</ele>
        <time>2018-07-08T15:36:29Z</time>
      </trkpt>
      <trkpt lat="49.49145" lon="1.08141">
        <ele>149.14</ele>
        <time>2018-07-08T15:36:40Z</time>
      </trkpt>
      <trkpt lat="49.49133" lon="1.08174">
        <ele>149.62</ele>
        <time>2018-07-08T15:36:49Z</time>
      </trkpt>
      <trkpt lat="49.49132" lon="1.08177">
        <ele>150.1</ele>
        <time>2018-07-08T15:36:50Z</time>
      </trkpt>
      <trkpt lat="49.49132" lon="1.0818">
        <ele>150.1</ele>
        <time>2018-07-08T15:36:51Z</time>
      </trkpt>
      <trkpt lat="49.49132" lon="1.08182">
        <ele>150.1</ele>
        <time>2018-07-08T15:36:52Z</time>
      </trkpt>
      <trkpt lat="49.49133" lon="1.08184">
        <ele>150.1</ele>
        <time>2018-07-08T15:36:53Z</time>
      </trkpt>
      <trkpt lat="49.49133" lon="1.08187">
        <ele>150.1</ele>
        <time>2018-07-08T15:36:54Z</time>
      </trkpt>
      <trkpt lat="49.49129" lon="1.08201">
        <ele>150.1</ele>
        <time>2018-07-08T15:37:06Z</time>
      </trkpt>
      <trkpt lat="49.49126" lon="1.08216">
        <ele>150.1</ele>
        <time>2018-07-08T15:37:26Z</time>
      </trkpt>
      <trkpt lat="49.49126" lon="1.08218">
        <ele>150.1</ele>
        <time>2018-07-08T15:37:27Z</time>
      </trkpt>
      <trkpt lat="49.49126" lon="1.08221">
        <ele>150.1</ele>
        <time>2018-07-08T15:37:28Z</time>
      </trkpt>
      <trkpt lat="49.49129" lon="1.08273">
        <ele>151.06</ele>
        <time>2018-07-08T15:37:39Z</time>
      </trkpt>
      <trkpt lat="49.49135" lon="1.08344">
        <ele>153.47</ele>
        <time>2018-07-08T15:37:51Z</time>
      </trkpt>
      <trkpt lat="49.49134" lon="1.08413">
        <ele>154.91</ele>
        <time>2018-07-08T15:38:02Z</time>
      </trkpt>
      <trkpt lat="49.49129" lon="1.08455">
        <ele>155.87</ele>
        <time>2018-07-08T15:38:08Z</time>
      </trkpt>
      <trkpt lat="49.49128" lon="1.08504">
        <ele>156.35</ele>
        <time>2018-07-08T15:38:15Z</time>
      </trkpt>
      <trkpt lat="49.49127" lon="1.08536">
        <ele>156.83</ele>
        <time>2018-07-08T15:38:20Z</time>
      </trkpt>
      <trkpt lat="49.49123" lon="1.08555">
        <ele>156.83</ele>
        <time>2018-07-08T15:38:23Z</time>
      </trkpt>
      <trkpt lat="49.49121" lon="1.08561">
        <ele>157.31</ele>
        <time>2018-07-08T15:38:24Z</time>
      </trkpt>
      <trkpt lat="49.49103" lon="1.0865">
        <ele>157.31</ele>
        <time>2018-07-08T15:38:37Z</time>
      </trkpt>
      <trkpt lat="49.49083" lon="1.08764">
        <ele>157.79</ele>
        <time>2018-07-08T15:38:51Z</time>
      </trkpt>
      <trkpt lat="49.49057" lon="1.08899">
        <ele>156.35</ele>
        <time>2018-07-08T15:39:06Z</time>
      </trkpt>
      <trkpt lat="49.49036" lon="1.09023">
        <ele>152.99</ele>
        <time>2018-07-08T15:39:18Z</time>
      </trkpt>
      <trkpt lat="49.49009" lon="1.09166">
        <ele>152.51</ele>
        <time>2018-07-08T15:39:33Z</time>
      </trkpt>
      <trkpt lat="49.49009" lon="1.09175">
        <ele>152.99</ele>
        <time>2018-07-08T15:39:34Z</time>
      </trkpt>
      <trkpt lat="49.49007" lon="1.09188">
        <ele>152.03</ele>
        <time>2018-07-08T15:39:36Z</time>
      </trkpt>
      <trkpt lat="49.49001" lon="1.09222">
        <ele>150.1</ele>
        <time>2018-07-08T15:39:43Z</time>
      </trkpt>
      <trkpt lat="49.49" lon="1.0923">
        <ele>149.62</ele>
        <time>2018-07-08T15:39:44Z</time>
      </trkpt>
      <trkpt lat="49.48999" lon="1.09237">
        <ele>148.66</ele>
        <time>2018-07-08T15:39:45Z</time>
      </trkpt>
      <trkpt lat="49.48991" lon="1.09266">
        <ele>145.78</ele>
        <time>2018-07-08T15:39:48Z</time>
      </trkpt>
      <trkpt lat="49.48989" lon="1.09278">
        <ele>145.78</ele>
        <time>2018-07-08T15:39:49Z</time>
      </trkpt>
      <trkpt lat="49.48984" lon="1.09304">
        <ele>145.78</ele>
        <time>2018-07-08T15:39:52Z</time>
      </trkpt>
      <trkpt lat="49.48981" lon="1.09307">
        <ele>145.78</ele>
        <time>2018-07-08T15:39:53Z</time>
      </trkpt>
      <trkpt lat="49.48979" lon="1.09307">
        <ele>145.78</ele>
        <time>2018-07-08T15:39:54Z</time>
      </trkpt>
      <trkpt lat="49.48977" lon="1.09305">
        <ele>145.78</ele>
        <time>2018-07-08T15:39:55Z</time>
      </trkpt>
      <trkpt lat="49.48975" lon="1.09305">
        <ele>145.78</ele>
        <time>2018-07-08T15:39:56Z</time>
      </trkpt>
      <trkpt lat="49.48971" lon="1.09307">
        <ele>145.78</ele>
        <time>2018-07-08T15:39:57Z</time>
      </trkpt>
      <trkpt lat="49.48967" lon="1.09307">
        <ele>145.78</ele>
        <time>2018-07-08T15:39:58Z</time>
      </trkpt>
      <trkpt lat="49.48963" lon="1.09306">
        <ele>145.78</ele>
        <time>2018-07-08T15:39:59Z</time>
      </trkpt>
      <trkpt lat="49.48959" lon="1.09304">
        <ele>145.78</ele>
        <time>2018-07-08T15:40:00Z</time>
      </trkpt>
      <trkpt lat="49.48941" lon="1.09295">
        <ele>147.22</ele>
        <time>2018-07-08T15:40:06Z</time>
      </trkpt>
      <trkpt lat="49.48909" lon="1.09278">
        <ele>150.1</ele>
        <time>2018-07-08T15:40:18Z</time>
      </trkpt>
      <trkpt lat="49.4889" lon="1.09261">
        <ele>152.03</ele>
        <time>2018-07-08T15:40:27Z</time>
      </trkpt>
      <trkpt lat="49.4886" lon="1.09254">
        <ele>154.43</ele>
        <time>2018-07-08T15:40:39Z</time>
      </trkpt>
      <trkpt lat="49.48856" lon="1.09254">
        <ele>154.43</ele>
        <time>2018-07-08T15:40:41Z</time>
      </trkpt>
      <trkpt lat="49.48854" lon="1.09253">
        <ele>154.43</ele>
        <time>2018-07-08T15:40:42Z</time>
      </trkpt>
      <trkpt lat="49.48832" lon="1.09241">
        <ele>156.35</ele>
        <time>2018-07-08T15:40:54Z</time>
      </trkpt>
      <trkpt lat="49.48805" lon="1.09227">
        <ele>157.31</ele>
        <time>2018-07-08T15:41:06Z</time>
      </trkpt>
      <trkpt lat="49.48769" lon="1.09232">
        <ele>159.24</ele>
        <time>2018-07-08T15:41:17Z</time>
      </trkpt>
      <trkpt lat="49.48757" lon="1.09231">
        <ele>159.72</ele>
        <time>2018-07-08T15:41:22Z</time>
      </trkpt>
      <trkpt lat="49.48734" lon="1.09206">
        <ele>161.16</ele>
        <time>2018-07-08T15:41:34Z</time>
      </trkpt>
      <trkpt lat="49.48719" lon="1.09199">
        <ele>161.64</ele>
        <time>2018-07-08T15:41:40Z</time>
      </trkpt>
      <trkpt lat="49.48713" lon="1.09207">
        <ele>161.64</ele>
        <time>2018-07-08T15:41:45Z</time>
      </trkpt>
      <trkpt lat="49.4871" lon="1.09219">
        <ele>162.12</ele>
        <time>2018-07-08T15:41:49Z</time>
      </trkpt>
      <trkpt lat="49.48706" lon="1.0923">
        <ele>162.12</ele>
        <time>2018-07-08T15:41:53Z</time>
      </trkpt>
      <trkpt lat="49.48703" lon="1.09243">
        <ele>162.12</ele>
        <time>2018-07-08T15:42:06Z</time>
      </trkpt>
      <trkpt lat="49.48704" lon="1.09251">
        <ele>162.12</ele>
        <time>2018-07-08T15:42:12Z</time>
      </trkpt>
      <trkpt lat="49.48701" lon="1.09255">
        <ele>162.12</ele>
        <time>2018-07-08T15:42:18Z</time>
      </trkpt>
      <trkpt lat="49.48699" lon="1.09256">
        <ele>162.12</ele>
        <time>2018-07-08T15:42:21Z</time>
      </trkpt>
      <trkpt lat="49.48689" lon="1.09261">
        <ele>162.12</ele>
        <time>2018-07-08T15:42:30Z</time>
      </trkpt>
      <trkpt lat="49.4867" lon="1.09278">
        <ele>162.6</ele>
        <time>2018-07-08T15:42:39Z</time>
      </trkpt>
      <trkpt lat="49.48662" lon="1.0929">
        <ele>162.6</ele>
        <time>2018-07-08T15:42:44Z</time>
      </trkpt>
      <trkpt lat="49.48649" lon="1.09294">
        <ele>163.08</ele>
        <time>2018-07-08T15:42:50Z</time>
      </trkpt>
      <trkpt lat="49.48629" lon="1.09293">
        <ele>163.08</ele>
        <time>2018-07-08T15:43:01Z</time>
      </trkpt>
      <trkpt lat="49.48623" lon="1.09293">
        <ele>163.08</ele>
        <time>2018-07-08T15:43:17Z</time>
      </trkpt>
      <trkpt lat="49.48617" lon="1.09271">
        <ele>163.56</ele>
        <time>2018-07-08T15:43:26Z</time>
      </trkpt>
      <trkpt lat="49.48615" lon="1.09262">
        <ele>163.56</ele>
        <time>2018-07-08T15:43:29Z</time>
      </trkpt>
      <trkpt lat="49.48614" lon="1.09235">
        <ele>163.56</ele>
        <time>2018-07-08T15:43:38Z</time>
      </trkpt>
      <trkpt lat="49.48606" lon="1.09209">
        <ele>163.56</ele>
        <time>2018-07-08T15:43:50Z</time>
      </trkpt>
      <trkpt lat="49.48602" lon="1.09188">
        <ele>164.04</ele>
        <time>2018-07-08T15:43:59Z</time>
      </trkpt>
      <trkpt lat="49.48596" lon="1.09181">
        <ele>164.04</ele>
        <time>2018-07-08T15:44:05Z</time>
      </trkpt>
      <trkpt lat="49.48588" lon="1.09186">
        <ele>164.04</ele>
        <time>2018-07-08T15:44:10Z</time>
      </trkpt>
      <trkpt lat="49.48586" lon="1.09186">
        <ele>164.04</ele>
        <time>2018-07-08T15:44:11Z</time>
      </trkpt>
      <trkpt lat="49.48584" lon="1.09187">
        <ele>164.04</ele>
        <time>2018-07-08T15:44:12Z</time>
      </trkpt>
      <trkpt lat="49.48582" lon="1.09188">
        <ele>164.04</ele>
        <time>2018-07-08T15:44:13Z</time>
      </trkpt>
      <trkpt lat="49.4858" lon="1.09189">
        <ele>164.04</ele>
        <time>2018-07-08T15:44:14Z</time>
      </trkpt>
      <trkpt lat="49.48578" lon="1.09191">
        <ele>164.04</ele>
        <time>2018-07-08T15:44:15Z</time>
      </trkpt>
      <trkpt lat="49.48576" lon="1.09192">
        <ele>164.04</ele>
        <time>2018-07-08T15:44:16Z</time>
      </trkpt>
      <trkpt lat="49.48573" lon="1.09193">
        <ele>164.04</ele>
        <time>2018-07-08T15:44:17Z</time>
      </trkpt>
      <trkpt lat="49.48548" lon="1.09212">
        <ele>164.04</ele>
        <time>2018-07-08T15:44:27Z</time>
      </trkpt>
      <trkpt lat="49.48514" lon="1.09237">
        <ele>164.04</ele>
        <time>2018-07-08T15:44:38Z</time>
      </trkpt>
      <trkpt lat="49.4849" lon="1.0926">
        <ele>164.04</ele>
        <time>2018-07-08T15:44:46Z</time>
      </trkpt>
      <trkpt lat="49.48484" lon="1.09281">
        <ele>164.04</ele>
        <time>2018-07-08T15:44:50Z</time>
      </trkpt>
      <trkpt lat="49.48477" lon="1.09291">
        <ele>164.04</ele>
        <time>2018-07-08T15:44:52Z</time>
      </trkpt>
      <trkpt lat="49.48473" lon="1.09294">
        <ele>164.04</ele>
        <time>2018-07-08T15:44:53Z</time>
      </trkpt>
      <trkpt lat="49.48468" lon="1.09296">
        <ele>162.6</ele>
        <time>2018-07-08T15:44:54Z</time>
      </trkpt>
      <trkpt lat="49.4846" lon="1.09302">
        <ele>162.6</ele>
        <time>2018-07-08T15:44:56Z</time>
      </trkpt>
      <trkpt lat="49.48448" lon="1.09313">
        <ele>162.6</ele>
        <time>2018-07-08T15:44:59Z</time>
      </trkpt>
      <trkpt lat="49.48444" lon="1.09316">
        <ele>162.6</ele>
        <time>2018-07-08T15:45:00Z</time>
      </trkpt>
      <trkpt lat="49.48442" lon="1.09319">
        <ele>162.12</ele>
        <time>2018-07-08T15:45:01Z</time>
      </trkpt>
      <trkpt lat="49.48442" lon="1.09324">
        <ele>162.12</ele>
        <time>2018-07-08T15:45:11Z</time>
      </trkpt>
      <trkpt lat="49.48442" lon="1.09325">
        <ele>162.12</ele>
        <time>2018-07-08T15:45:12Z</time>
      </trkpt>
      <trkpt lat="49.48444" lon="1.09327">
        <ele>162.12</ele>
        <time>2018-07-08T15:45:13Z</time>
      </trkpt>
      <trkpt lat="49.48445" lon="1.09329">
        <ele>162.12</ele>
        <time>2018-07-08T15:45:14Z</time>
      </trkpt>
      <trkpt lat="49.48447" lon="1.09333">
        <ele>162.12</ele>
        <time>2018-07-08T15:45:15Z</time>
      </trkpt>
      <trkpt lat="49.48449" lon="1.09337">
        <ele>162.12</ele>
        <time>2018-07-08T15:45:16Z</time>
      </trkpt>
      <trkpt lat="49.48451" lon="1.09341">
        <ele>162.12</ele>
        <time>2018-07-08T15:45:17Z</time>
      </trkpt>
      <trkpt lat="49.48453" lon="1.09345">
        <ele>162.12</ele>
        <time>2018-07-08T15:45:18Z</time>
      </trkpt>
      <trkpt lat="49.48455" lon="1.0935">
        <ele>162.12</ele>
        <time>2018-07-08T15:45:19Z</time>
      </trkpt>
      <trkpt lat="49.48456" lon="1.09354">
        <ele>162.12</ele>
        <time>2018-07-08T15:45:20Z</time>
      </trkpt>
      <trkpt lat="49.48458" lon="1.09359">
        <ele>162.12</ele>
        <time>2018-07-08T15:45:21Z</time>
      </trkpt>
      <trkpt lat="49.4846" lon="1.09363">
        <ele>162.12</ele>
        <time>2018-07-08T15:45:22Z</time>
      </trkpt>
      <trkpt lat="49.48463" lon="1.09366">
        <ele>162.12</ele>
        <time>2018-07-08T15:45:23Z</time>
      </trkpt>
      <trkpt lat="49.48464" lon="1.09368">
        <ele>162.12</ele>
        <time>2018-07-08T15:45:24Z</time>
      </trkpt>
      <trkpt lat="49.48465" lon="1.09371">
        <ele>162.12</ele>
        <time>2018-07-08T15:45:25Z</time>
      </trkpt>
      <trkpt lat="49.48466" lon="1.09374">
        <ele>162.12</ele>
        <time>2018-07-08T15:45:26Z</time>
      </trkpt>
      <trkpt lat="49.48468" lon="1.09376">
        <ele>162.12</ele>
        <time>2018-07-08T15:45:27Z</time>
      </trkpt>
      <trkpt lat="49.4847" lon="1.09379">
        <ele>162.12</ele>
        <time>2018-07-08T15:45:29Z</time>
      </trkpt>
      <trkpt lat="49.48477" lon="1.094">
        <ele>163.08</ele>
        <time>2018-07-08T15:45:36Z</time>
      </trkpt>
      <trkpt lat="49.48482" lon="1.09442">
        <ele>163.56</ele>
        <time>2018-07-08T15:45:43Z</time>
      </trkpt>
      <trkpt lat="49.48484" lon="1.09448">
        <ele>163.56</ele>
        <time>2018-07-08T15:45:44Z</time>
      </trkpt>
      <trkpt lat="49.48487" lon="1.09453">
        <ele>164.04</ele>
        <time>2018-07-08T15:45:45Z</time>
      </trkpt>
      <trkpt lat="49.4849" lon="1.09457">
        <ele>164.04</ele>
        <time>2018-07-08T15:45:46Z</time>
      </trkpt>
      <trkpt lat="49.48492" lon="1.09458">
        <ele>164.04</ele>
        <time>2018-07-08T15:45:47Z</time>
      </trkpt>
      <trkpt lat="49.48495" lon="1.09458">
        <ele>164.04</ele>
        <time>2018-07-08T15:45:48Z</time>
      </trkpt>
      <trkpt lat="49.48501" lon="1.09457">
        <ele>164.04</ele>
        <time>2018-07-08T15:45:50Z</time>
      </trkpt>
      <trkpt lat="49.48538" lon="1.0945">
        <ele>164.04</ele>
        <time>2018-07-08T15:45:59Z</time>
      </trkpt>
      <trkpt lat="49.48541" lon="1.09448">
        <ele>164.04</ele>
        <time>2018-07-08T15:46:00Z</time>
      </trkpt>
      <trkpt lat="49.48544" lon="1.09446">
        <ele>164.04</ele>
        <time>2018-07-08T15:46:01Z</time>
      </trkpt>
      <trkpt lat="49.48546" lon="1.09443">
        <ele>164.04</ele>
        <time>2018-07-08T15:46:02Z</time>
      </trkpt>
      <trkpt lat="49.48549" lon="1.09442">
        <ele>164.04</ele>
        <time>2018-07-08T15:46:03Z</time>
      </trkpt>
      <trkpt lat="49.48552" lon="1.0944">
        <ele>164.04</ele>
        <time>2018-07-08T15:46:04Z</time>
      </trkpt>
      <trkpt lat="49.48555" lon="1.09438">
        <ele>164.04</ele>
        <time>2018-07-08T15:46:05Z</time>
      </trkpt>
      <trkpt lat="49.48557" lon="1.09435">
        <ele>164.04</ele>
        <time>2018-07-08T15:46:06Z</time>
      </trkpt>
      <trkpt lat="49.4856" lon="1.09432">
        <ele>164.04</ele>
        <time>2018-07-08T15:46:07Z</time>
      </trkpt>
      <trkpt lat="49.48592" lon="1.09386">
        <ele>164.04</ele>
        <time>2018-07-08T15:46:18Z</time>
      </trkpt>
      <trkpt lat="49.48617" lon="1.09354">
        <ele>164.04</ele>
        <time>2018-07-08T15:46:29Z</time>
      </trkpt>
      <trkpt lat="49.48652" lon="1.0934">
        <ele>164.04</ele>
        <time>2018-07-08T15:46:39Z</time>
      </trkpt>
      <trkpt lat="49.48662" lon="1.09335">
        <ele>164.04</ele>
        <time>2018-07-08T15:46:41Z</time>
      </trkpt>
      <trkpt lat="49.487" lon="1.09327">
        <ele>164.04</ele>
        <time>2018-07-08T15:46:50Z</time>
      </trkpt>
      <trkpt lat="49.48703" lon="1.09325">
        <ele>164.04</ele>
        <time>2018-07-08T15:46:51Z</time>
      </trkpt>
      <trkpt lat="49.48709" lon="1.09322">
        <ele>162.6</ele>
        <time>2018-07-08T15:46:53Z</time>
      </trkpt>
      <trkpt lat="49.4875" lon="1.09308">
        <ele>160.68</ele>
        <time>2018-07-08T15:47:04Z</time>
      </trkpt>
      <trkpt lat="49.48758" lon="1.09306">
        <ele>160.2</ele>
        <time>2018-07-08T15:47:06Z</time>
      </trkpt>
      <trkpt lat="49.48761" lon="1.09307">
        <ele>160.2</ele>
        <time>2018-07-08T15:47:07Z</time>
      </trkpt>
      <trkpt lat="49.48765" lon="1.09307">
        <ele>160.2</ele>
        <time>2018-07-08T15:47:08Z</time>
      </trkpt>
      <trkpt lat="49.4877" lon="1.09306">
        <ele>159.72</ele>
        <time>2018-07-08T15:47:09Z</time>
      </trkpt>
      <trkpt lat="49.48775" lon="1.09304">
        <ele>159.72</ele>
        <time>2018-07-08T15:47:10Z</time>
      </trkpt>
      <trkpt lat="49.4878" lon="1.09304">
        <ele>159.72</ele>
        <time>2018-07-08T15:47:11Z</time>
      </trkpt>
      <trkpt lat="49.48792" lon="1.09302">
        <ele>159.24</ele>
        <time>2018-07-08T15:47:13Z</time>
      </trkpt>
      <trkpt lat="49.48802" lon="1.09301">
        <ele>159.24</ele>
        <time>2018-07-08T15:47:15Z</time>
      </trkpt>
      <trkpt lat="49.4882" lon="1.09298">
        <ele>157.79</ele>
        <time>2018-07-08T15:47:18Z</time>
      </trkpt>
      <trkpt lat="49.48826" lon="1.09297">
        <ele>157.79</ele>
        <time>2018-07-08T15:47:19Z</time>
      </trkpt>
      <trkpt lat="49.48832" lon="1.09295">
        <ele>157.31</ele>
        <time>2018-07-08T15:47:20Z</time>
      </trkpt>
      <trkpt lat="49.48837" lon="1.09292">
        <ele>156.83</ele>
        <time>2018-07-08T15:47:21Z</time>
      </trkpt>
      <trkpt lat="49.48841" lon="1.09287">
        <ele>155.87</ele>
        <time>2018-07-08T15:47:22Z</time>
      </trkpt>
      <trkpt lat="49.48845" lon="1.09284">
        <ele>155.39</ele>
        <time>2018-07-08T15:47:23Z</time>
      </trkpt>
      <trkpt lat="49.4885" lon="1.09281">
        <ele>154.91</ele>
        <time>2018-07-08T15:47:24Z</time>
      </trkpt>
      <trkpt lat="49.48859" lon="1.09277">
        <ele>153.95</ele>
        <time>2018-07-08T15:47:26Z</time>
      </trkpt>
      <trkpt lat="49.48865" lon="1.09278">
        <ele>153.47</ele>
        <time>2018-07-08T15:47:27Z</time>
      </trkpt>
      <trkpt lat="49.4887" lon="1.0928">
        <ele>153.47</ele>
        <time>2018-07-08T15:47:28Z</time>
      </trkpt>
      <trkpt lat="49.48874" lon="1.09281">
        <ele>152.51</ele>
        <time>2018-07-08T15:47:29Z</time>
      </trkpt>
      <trkpt lat="49.48879" lon="1.09282">
        <ele>152.03</ele>
        <time>2018-07-08T15:47:30Z</time>
      </trkpt>
      <trkpt lat="49.48884" lon="1.09283">
        <ele>152.03</ele>
        <time>2018-07-08T15:47:31Z</time>
      </trkpt>
      <trkpt lat="49.4889" lon="1.09283">
        <ele>150.58</ele>
        <time>2018-07-08T15:47:32Z</time>
      </trkpt>
      <trkpt lat="49.48895" lon="1.09282">
        <ele>150.1</ele>
        <time>2018-07-08T15:47:33Z</time>
      </trkpt>
      <trkpt lat="49.489" lon="1.09282">
        <ele>150.1</ele>
        <time>2018-07-08T15:47:34Z</time>
      </trkpt>
      <trkpt lat="49.48905" lon="1.09282">
        <ele>149.14</ele>
        <time>2018-07-08T15:47:35Z</time>
      </trkpt>
      <trkpt lat="49.4891" lon="1.09284">
        <ele>148.66</ele>
        <time>2018-07-08T15:47:36Z</time>
      </trkpt>
      <trkpt lat="49.48915" lon="1.09286">
        <ele>148.18</ele>
        <time>2018-07-08T15:47:37Z</time>
      </trkpt>
      <trkpt lat="49.48922" lon="1.09289">
        <ele>148.18</ele>
        <time>2018-07-08T15:47:38Z</time>
      </trkpt>
      <trkpt lat="49.48928" lon="1.09292">
        <ele>147.7</ele>
        <time>2018-07-08T15:47:39Z</time>
      </trkpt>
      <trkpt lat="49.48935" lon="1.09296">
        <ele>147.22</ele>
        <time>2018-07-08T15:47:40Z</time>
      </trkpt>
      <trkpt lat="49.48941" lon="1.093">
        <ele>147.22</ele>
        <time>2018-07-08T15:47:41Z</time>
      </trkpt>
      <trkpt lat="49.48947" lon="1.09303">
        <ele>147.22</ele>
        <time>2018-07-08T15:47:42Z</time>
      </trkpt>
      <trkpt lat="49.48965" lon="1.09314">
        <ele>146.26</ele>
        <time>2018-07-08T15:47:48Z</time>
      </trkpt>
      <trkpt lat="49.48965" lon="1.09317">
        <ele>146.26</ele>
        <time>2018-07-08T15:47:50Z</time>
      </trkpt>
      <trkpt lat="49.48965" lon="1.09319">
        <ele>146.26</ele>
        <time>2018-07-08T15:47:51Z</time>
      </trkpt>
      <trkpt lat="49.48963" lon="1.09322">
        <ele>146.26</ele>
        <time>2018-07-08T15:47:53Z</time>
      </trkpt>
      <trkpt lat="49.48961" lon="1.09323">
        <ele>147.7</ele>
        <time>2018-07-08T15:47:55Z</time>
      </trkpt>
      <trkpt lat="49.4896" lon="1.09325">
        <ele>147.7</ele>
        <time>2018-07-08T15:47:56Z</time>
      </trkpt>
      <trkpt lat="49.48949" lon="1.09333">
        <ele>149.14</ele>
        <time>2018-07-08T15:48:05Z</time>
      </trkpt>
      <trkpt lat="49.48947" lon="1.09333">
        <ele>149.14</ele>
        <time>2018-07-08T15:48:06Z</time>
      </trkpt>
      <trkpt lat="49.48941" lon="1.09333">
        <ele>150.1</ele>
        <time>2018-07-08T15:48:10Z</time>
      </trkpt>
      <trkpt lat="49.48939" lon="1.09335">
        <ele>150.1</ele>
        <time>2018-07-08T15:48:11Z</time>
      </trkpt>
      <trkpt lat="49.48938" lon="1.09337">
        <ele>150.1</ele>
        <time>2018-07-08T15:48:12Z</time>
      </trkpt>
      <trkpt lat="49.48936" lon="1.09339">
        <ele>150.1</ele>
        <time>2018-07-08T15:48:13Z</time>
      </trkpt>
      <trkpt lat="49.48934" lon="1.0934">
        <ele>150.1</ele>
        <time>2018-07-08T15:48:14Z</time>
      </trkpt>
      <trkpt lat="49.4891" lon="1.09356">
        <ele>152.51</ele>
        <time>2018-07-08T15:48:27Z</time>
      </trkpt>
      <trkpt lat="49.48879" lon="1.0937">
        <ele>154.43</ele>
        <time>2018-07-08T15:48:39Z</time>
      </trkpt>
      <trkpt lat="49.48855" lon="1.09381">
        <ele>155.87</ele>
        <time>2018-07-08T15:48:49Z</time>
      </trkpt>
      <trkpt lat="49.48815" lon="1.09399">
        <ele>157.79</ele>
        <time>2018-07-08T15:49:03Z</time>
      </trkpt>
      <trkpt lat="49.48782" lon="1.09412">
        <ele>160.2</ele>
        <time>2018-07-08T15:49:15Z</time>
      </trkpt>
      <trkpt lat="49.48749" lon="1.09426">
        <ele>161.64</ele>
        <time>2018-07-08T15:49:27Z</time>
      </trkpt>
      <trkpt lat="49.48706" lon="1.09445">
        <ele>162.6</ele>
        <time>2018-07-08T15:49:40Z</time>
      </trkpt>
      <trkpt lat="49.48663" lon="1.09463">
        <ele>163.56</ele>
        <time>2018-07-08T15:49:52Z</time>
      </trkpt>
      <trkpt lat="49.48656" lon="1.09465">
        <ele>163.56</ele>
        <time>2018-07-08T15:49:54Z</time>
      </trkpt>
      <trkpt lat="49.48587" lon="1.09495">
        <ele>164.04</ele>
        <time>2018-07-08T15:50:08Z</time>
      </trkpt>
      <trkpt lat="49.48505" lon="1.09529">
        <ele>164.04</ele>
        <time>2018-07-08T15:50:23Z</time>
      </trkpt>
      <trkpt lat="49.48459" lon="1.09549">
        <ele>162.6</ele>
        <time>2018-07-08T15:50:30Z</time>
      </trkpt>
      <trkpt lat="49.48444" lon="1.09553">
        <ele>162.12</ele>
        <time>2018-07-08T15:50:32Z</time>
      </trkpt>
      <trkpt lat="49.48436" lon="1.09554">
        <ele>162.12</ele>
        <time>2018-07-08T15:50:33Z</time>
      </trkpt>
      <trkpt lat="49.48427" lon="1.09552">
        <ele>161.64</ele>
        <time>2018-07-08T15:50:34Z</time>
      </trkpt>
      <trkpt lat="49.48419" lon="1.09549">
        <ele>161.16</ele>
        <time>2018-07-08T15:50:35Z</time>
      </trkpt>
      <trkpt lat="49.48411" lon="1.09544">
        <ele>160.68</ele>
        <time>2018-07-08T15:50:36Z</time>
      </trkpt>
      <trkpt lat="49.48403" lon="1.09537">
        <ele>160.68</ele>
        <time>2018-07-08T15:50:37Z</time>
      </trkpt>
      <trkpt lat="49.48395" lon="1.09528">
        <ele>159.72</ele>
        <time>2018-07-08T15:50:38Z</time>
      </trkpt>
      <trkpt lat="49.48388" lon="1.09518">
        <ele>159.24</ele>
        <time>2018-07-08T15:50:39Z</time>
      </trkpt>
      <trkpt lat="49.48382" lon="1.09506">
        <ele>158.75</ele>
        <time>2018-07-08T15:50:40Z</time>
      </trkpt>
      <trkpt lat="49.48378" lon="1.09493">
        <ele>158.75</ele>
        <time>2018-07-08T15:50:41Z</time>
      </trkpt>
      <trkpt lat="49.48375" lon="1.09479">
        <ele>157.79</ele>
        <time>2018-07-08T15:50:42Z</time>
      </trkpt>
      <trkpt lat="49.48372" lon="1.09465">
        <ele>157.79</ele>
        <time>2018-07-08T15:50:43Z</time>
      </trkpt>
      <trkpt lat="49.48363" lon="1.09424">
        <ele>156.35</ele>
        <time>2018-07-08T15:50:46Z</time>
      </trkpt>
      <trkpt lat="49.48354" lon="1.09399">
        <ele>154.43</ele>
        <time>2018-07-08T15:50:48Z</time>
      </trkpt>
      <trkpt lat="49.48347" lon="1.09389">
        <ele>154.43</ele>
        <time>2018-07-08T15:50:49Z</time>
      </trkpt>
      <trkpt lat="49.48338" lon="1.0938">
        <ele>153.47</ele>
        <time>2018-07-08T15:50:50Z</time>
      </trkpt>
      <trkpt lat="49.48272" lon="1.09334">
        <ele>152.51</ele>
        <time>2018-07-08T15:50:58Z</time>
      </trkpt>
      <trkpt lat="49.48258" lon="1.0933">
        <ele>152.51</ele>
        <time>2018-07-08T15:51:00Z</time>
      </trkpt>
      <trkpt lat="49.48222" lon="1.09328">
        <ele>155.87</ele>
        <time>2018-07-08T15:51:07Z</time>
      </trkpt>
      <trkpt lat="49.48169" lon="1.09327">
        <ele>158.27</ele>
        <time>2018-07-08T15:51:20Z</time>
      </trkpt>
      <trkpt lat="49.48083" lon="1.09323">
        <ele>160.2</ele>
        <time>2018-07-08T15:51:41Z</time>
      </trkpt>
      <trkpt lat="49.48075" lon="1.09322">
        <ele>160.68</ele>
        <time>2018-07-08T15:51:43Z</time>
      </trkpt>
      <trkpt lat="49.48033" lon="1.09319">
        <ele>161.16</ele>
        <time>2018-07-08T15:51:53Z</time>
      </trkpt>
      <trkpt lat="49.47961" lon="1.09316">
        <ele>162.6</ele>
        <time>2018-07-08T15:52:10Z</time>
      </trkpt>
      <trkpt lat="49.47889" lon="1.09314">
        <ele>165.96</ele>
        <time>2018-07-08T15:52:27Z</time>
      </trkpt>
      <trkpt lat="49.47811" lon="1.09307">
        <ele>168.85</ele>
        <time>2018-07-08T15:52:45Z</time>
      </trkpt>
      <trkpt lat="49.47774" lon="1.09303">
        <ele>170.29</ele>
        <time>2018-07-08T15:52:52Z</time>
      </trkpt>
      <trkpt lat="49.4771" lon="1.09291">
        <ele>170.29</ele>
        <time>2018-07-08T15:53:02Z</time>
      </trkpt>
      <trkpt lat="49.47704" lon="1.09288">
        <ele>170.29</ele>
        <time>2018-07-08T15:53:03Z</time>
      </trkpt>
      <trkpt lat="49.47699" lon="1.09281">
        <ele>170.29</ele>
        <time>2018-07-08T15:53:04Z</time>
      </trkpt>
      <trkpt lat="49.47694" lon="1.09272">
        <ele>170.29</ele>
        <time>2018-07-08T15:53:05Z</time>
      </trkpt>
      <trkpt lat="49.4769" lon="1.09262">
        <ele>170.29</ele>
        <time>2018-07-08T15:53:06Z</time>
      </trkpt>
      <trkpt lat="49.47685" lon="1.09255">
        <ele>169.33</ele>
        <time>2018-07-08T15:53:07Z</time>
      </trkpt>
      <trkpt lat="49.47679" lon="1.0925">
        <ele>169.33</ele>
        <time>2018-07-08T15:53:08Z</time>
      </trkpt>
      <trkpt lat="49.47672" lon="1.09248">
        <ele>169.33</ele>
        <time>2018-07-08T15:53:09Z</time>
      </trkpt>
      <trkpt lat="49.47666" lon="1.09249">
        <ele>169.33</ele>
        <time>2018-07-08T15:53:10Z</time>
      </trkpt>
      <trkpt lat="49.47659" lon="1.09253">
        <ele>169.33</ele>
        <time>2018-07-08T15:53:11Z</time>
      </trkpt>
      <trkpt lat="49.47653" lon="1.09259">
        <ele>169.33</ele>
        <time>2018-07-08T15:53:12Z</time>
      </trkpt>
      <trkpt lat="49.47648" lon="1.09266">
        <ele>169.33</ele>
        <time>2018-07-08T15:53:13Z</time>
      </trkpt>
      <trkpt lat="49.47642" lon="1.09272">
        <ele>168.85</ele>
        <time>2018-07-08T15:53:14Z</time>
      </trkpt>
      <trkpt lat="49.47634" lon="1.09277">
        <ele>168.85</ele>
        <time>2018-07-08T15:53:15Z</time>
      </trkpt>
      <trkpt lat="49.47628" lon="1.09279">
        <ele>168.85</ele>
        <time>2018-07-08T15:53:16Z</time>
      </trkpt>
      <trkpt lat="49.4762" lon="1.09279">
        <ele>168.85</ele>
        <time>2018-07-08T15:53:17Z</time>
      </trkpt>
      <trkpt lat="49.47613" lon="1.09278">
        <ele>168.85</ele>
        <time>2018-07-08T15:53:18Z</time>
      </trkpt>
      <trkpt lat="49.47605" lon="1.09275">
        <ele>168.85</ele>
        <time>2018-07-08T15:53:19Z</time>
      </trkpt>
      <trkpt lat="49.47598" lon="1.09273">
        <ele>168.85</ele>
        <time>2018-07-08T15:53:20Z</time>
      </trkpt>
      <trkpt lat="49.4759" lon="1.09272">
        <ele>168.85</ele>
        <time>2018-07-08T15:53:21Z</time>
      </trkpt>
      <trkpt lat="49.47475" lon="1.09247">
        <ele>167.41</ele>
        <time>2018-07-08T15:53:36Z</time>
      </trkpt>
      <trkpt lat="49.47352" lon="1.09246">
        <ele>165.48</ele>
        <time>2018-07-08T15:53:51Z</time>
      </trkpt>
      <trkpt lat="49.47266" lon="1.09233">
        <ele>163.56</ele>
        <time>2018-07-08T15:54:01Z</time>
      </trkpt>
      <trkpt lat="49.47159" lon="1.09204">
        <ele>160.68</ele>
        <time>2018-07-08T15:54:14Z</time>
      </trkpt>
      <trkpt lat="49.47133" lon="1.09191">
        <ele>158.75</ele>
        <time>2018-07-08T15:54:18Z</time>
      </trkpt>
      <trkpt lat="49.47127" lon="1.09184">
        <ele>158.75</ele>
        <time>2018-07-08T15:54:19Z</time>
      </trkpt>
      <trkpt lat="49.47119" lon="1.09174">
        <ele>158.75</ele>
        <time>2018-07-08T15:54:21Z</time>
      </trkpt>
      <trkpt lat="49.47113" lon="1.09171">
        <ele>158.27</ele>
        <time>2018-07-08T15:54:22Z</time>
      </trkpt>
      <trkpt lat="49.47107" lon="1.09169">
        <ele>158.27</ele>
        <time>2018-07-08T15:54:23Z</time>
      </trkpt>
      <trkpt lat="49.47093" lon="1.09165">
        <ele>157.79</ele>
        <time>2018-07-08T15:54:25Z</time>
      </trkpt>
      <trkpt lat="49.47086" lon="1.09159">
        <ele>157.79</ele>
        <time>2018-07-08T15:54:26Z</time>
      </trkpt>
      <trkpt lat="49.47075" lon="1.09149">
        <ele>157.79</ele>
        <time>2018-07-08T15:54:28Z</time>
      </trkpt>
      <trkpt lat="49.46993" lon="1.09088">
        <ele>154.43</ele>
        <time>2018-07-08T15:54:39Z</time>
      </trkpt>
      <trkpt lat="49.46917" lon="1.09031">
        <ele>151.54</ele>
        <time>2018-07-08T15:54:49Z</time>
      </trkpt>
      <trkpt lat="49.46912" lon="1.09021">
        <ele>151.54</ele>
        <time>2018-07-08T15:54:50Z</time>
      </trkpt>
      <trkpt lat="49.46907" lon="1.0901">
        <ele>151.54</ele>
        <time>2018-07-08T15:54:51Z</time>
      </trkpt>
      <trkpt lat="49.46901" lon="1.09001">
        <ele>151.54</ele>
        <time>2018-07-08T15:54:52Z</time>
      </trkpt>
      <trkpt lat="49.46894" lon="1.08997">
        <ele>151.54</ele>
        <time>2018-07-08T15:54:53Z</time>
      </trkpt>
      <trkpt lat="49.46888" lon="1.08995">
        <ele>151.54</ele>
        <time>2018-07-08T15:54:54Z</time>
      </trkpt>
      <trkpt lat="49.46881" lon="1.08996">
        <ele>151.54</ele>
        <time>2018-07-08T15:54:55Z</time>
      </trkpt>
      <trkpt lat="49.46871" lon="1.08997">
        <ele>151.54</ele>
        <time>2018-07-08T15:54:56Z</time>
      </trkpt>
      <trkpt lat="49.46864" lon="1.08996">
        <ele>150.58</ele>
        <time>2018-07-08T15:54:57Z</time>
      </trkpt>
      <trkpt lat="49.46855" lon="1.08991">
        <ele>150.58</ele>
        <time>2018-07-08T15:54:58Z</time>
      </trkpt>
      <trkpt lat="49.46848" lon="1.08987">
        <ele>150.58</ele>
        <time>2018-07-08T15:54:59Z</time>
      </trkpt>
      <trkpt lat="49.46841" lon="1.08981">
        <ele>150.58</ele>
        <time>2018-07-08T15:55:00Z</time>
      </trkpt>
      <trkpt lat="49.46833" lon="1.08976">
        <ele>150.58</ele>
        <time>2018-07-08T15:55:01Z</time>
      </trkpt>
      <trkpt lat="49.46707" lon="1.08911">
        <ele>150.58</ele>
        <time>2018-07-08T15:55:17Z</time>
      </trkpt>
      <trkpt lat="49.46664" lon="1.0889">
        <ele>148.18</ele>
        <time>2018-07-08T15:55:22Z</time>
      </trkpt>
      <trkpt lat="49.46656" lon="1.08884">
        <ele>148.18</ele>
        <time>2018-07-08T15:55:23Z</time>
      </trkpt>
      <trkpt lat="49.46648" lon="1.08877">
        <ele>148.18</ele>
        <time>2018-07-08T15:55:24Z</time>
      </trkpt>
      <trkpt lat="49.46588" lon="1.08806">
        <ele>145.3</ele>
        <time>2018-07-08T15:55:32Z</time>
      </trkpt>
      <trkpt lat="49.46558" lon="1.08748">
        <ele>143.37</ele>
        <time>2018-07-08T15:55:37Z</time>
      </trkpt>
      <trkpt lat="49.46542" lon="1.08721">
        <ele>141.45</ele>
        <time>2018-07-08T15:55:41Z</time>
      </trkpt>
      <trkpt lat="49.46539" lon="1.08713">
        <ele>141.45</ele>
        <time>2018-07-08T15:55:42Z</time>
      </trkpt>
      <trkpt lat="49.46536" lon="1.08705">
        <ele>140.97</ele>
        <time>2018-07-08T15:55:43Z</time>
      </trkpt>
      <trkpt lat="49.46532" lon="1.08697">
        <ele>140.97</ele>
        <time>2018-07-08T15:55:44Z</time>
      </trkpt>
      <trkpt lat="49.46527" lon="1.08688">
        <ele>140.97</ele>
        <time>2018-07-08T15:55:45Z</time>
      </trkpt>
      <trkpt lat="49.46521" lon="1.08683">
        <ele>140.49</ele>
        <time>2018-07-08T15:55:46Z</time>
      </trkpt>
      <trkpt lat="49.46515" lon="1.08678">
        <ele>140.49</ele>
        <time>2018-07-08T15:55:47Z</time>
      </trkpt>
      <trkpt lat="49.46508" lon="1.08674">
        <ele>140.49</ele>
        <time>2018-07-08T15:55:48Z</time>
      </trkpt>
      <trkpt lat="49.46501" lon="1.08671">
        <ele>140.49</ele>
        <time>2018-07-08T15:55:49Z</time>
      </trkpt>
      <trkpt lat="49.46488" lon="1.08666">
        <ele>140.49</ele>
        <time>2018-07-08T15:55:51Z</time>
      </trkpt>
      <trkpt lat="49.4648" lon="1.08663">
        <ele>140.49</ele>
        <time>2018-07-08T15:55:52Z</time>
      </trkpt>
      <trkpt lat="49.46465" lon="1.08656">
        <ele>140.49</ele>
        <time>2018-07-08T15:55:54Z</time>
      </trkpt>
      <trkpt lat="49.46444" lon="1.08647">
        <ele>142.41</ele>
        <time>2018-07-08T15:55:57Z</time>
      </trkpt>
      <trkpt lat="49.46417" lon="1.08635">
        <ele>142.89</ele>
        <time>2018-07-08T15:56:01Z</time>
      </trkpt>
      <trkpt lat="49.46399" lon="1.08621">
        <ele>144.34</ele>
        <time>2018-07-08T15:56:04Z</time>
      </trkpt>
      <trkpt lat="49.46395" lon="1.08616">
        <ele>144.34</ele>
        <time>2018-07-08T15:56:05Z</time>
      </trkpt>
      <trkpt lat="49.46383" lon="1.08603">
        <ele>144.82</ele>
        <time>2018-07-08T15:56:08Z</time>
      </trkpt>
      <trkpt lat="49.4638" lon="1.08602">
        <ele>145.3</ele>
        <time>2018-07-08T15:56:09Z</time>
      </trkpt>
      <trkpt lat="49.46375" lon="1.08601">
        <ele>145.3</ele>
        <time>2018-07-08T15:56:11Z</time>
      </trkpt>
      <trkpt lat="49.4637" lon="1.08604">
        <ele>145.3</ele>
        <time>2018-07-08T15:56:12Z</time>
      </trkpt>
      <trkpt lat="49.46367" lon="1.08607">
        <ele>145.3</ele>
        <time>2018-07-08T15:56:13Z</time>
      </trkpt>
      <trkpt lat="49.46364" lon="1.08609">
        <ele>145.3</ele>
        <time>2018-07-08T15:56:14Z</time>
      </trkpt>
      <trkpt lat="49.4636" lon="1.08609">
        <ele>145.3</ele>
        <time>2018-07-08T15:56:15Z</time>
      </trkpt>
      <trkpt lat="49.46356" lon="1.08608">
        <ele>145.3</ele>
        <time>2018-07-08T15:56:16Z</time>
      </trkpt>
      <trkpt lat="49.46351" lon="1.08606">
        <ele>145.3</ele>
        <time>2018-07-08T15:56:17Z</time>
      </trkpt>
      <trkpt lat="49.46275" lon="1.08569">
        <ele>145.3</ele>
        <time>2018-07-08T15:56:29Z</time>
      </trkpt>
      <trkpt lat="49.46262" lon="1.08563">
        <ele>143.85</ele>
        <time>2018-07-08T15:56:31Z</time>
      </trkpt>
      <trkpt lat="49.46156" lon="1.08503">
        <ele>143.85</ele>
        <time>2018-07-08T15:56:48Z</time>
      </trkpt>
      <trkpt lat="49.46085" lon="1.08451">
        <ele>142.41</ele>
        <time>2018-07-08T15:56:59Z</time>
      </trkpt>
      <trkpt lat="49.45981" lon="1.08386">
        <ele>139.05</ele>
        <time>2018-07-08T15:57:14Z</time>
      </trkpt>
      <trkpt lat="49.45937" lon="1.08363">
        <ele>137.61</ele>
        <time>2018-07-08T15:57:20Z</time>
      </trkpt>
      <trkpt lat="49.45931" lon="1.08358">
        <ele>137.61</ele>
        <time>2018-07-08T15:57:21Z</time>
      </trkpt>
      <trkpt lat="49.45926" lon="1.0835">
        <ele>136.64</ele>
        <time>2018-07-08T15:57:22Z</time>
      </trkpt>
      <trkpt lat="49.45922" lon="1.08341">
        <ele>137.13</ele>
        <time>2018-07-08T15:57:23Z</time>
      </trkpt>
      <trkpt lat="49.45919" lon="1.08332">
        <ele>136.64</ele>
        <time>2018-07-08T15:57:24Z</time>
      </trkpt>
      <trkpt lat="49.45912" lon="1.08308">
        <ele>135.68</ele>
        <time>2018-07-08T15:57:27Z</time>
      </trkpt>
      <trkpt lat="49.45911" lon="1.08302">
        <ele>135.68</ele>
        <time>2018-07-08T15:57:28Z</time>
      </trkpt>
      <trkpt lat="49.45909" lon="1.08297">
        <ele>135.68</ele>
        <time>2018-07-08T15:57:29Z</time>
      </trkpt>
      <trkpt lat="49.45906" lon="1.08294">
        <ele>135.68</ele>
        <time>2018-07-08T15:57:30Z</time>
      </trkpt>
      <trkpt lat="49.45902" lon="1.08292">
        <ele>135.2</ele>
        <time>2018-07-08T15:57:31Z</time>
      </trkpt>
      <trkpt lat="49.45897" lon="1.08293">
        <ele>135.2</ele>
        <time>2018-07-08T15:57:32Z</time>
      </trkpt>
      <trkpt lat="49.45893" lon="1.08293">
        <ele>135.2</ele>
        <time>2018-07-08T15:57:33Z</time>
      </trkpt>
      <trkpt lat="49.45863" lon="1.08298">
        <ele>133.76</ele>
        <time>2018-07-08T15:57:38Z</time>
      </trkpt>
      <trkpt lat="49.45857" lon="1.08297">
        <ele>133.76</ele>
        <time>2018-07-08T15:57:39Z</time>
      </trkpt>
      <trkpt lat="49.4585" lon="1.08293">
        <ele>133.76</ele>
        <time>2018-07-08T15:57:40Z</time>
      </trkpt>
      <trkpt lat="49.45837" lon="1.08285">
        <ele>133.76</ele>
        <time>2018-07-08T15:57:42Z</time>
      </trkpt>
      <trkpt lat="49.4583" lon="1.08283">
        <ele>133.76</ele>
        <time>2018-07-08T15:57:43Z</time>
      </trkpt>
      <trkpt lat="49.45823" lon="1.08281">
        <ele>133.28</ele>
        <time>2018-07-08T15:57:44Z</time>
      </trkpt>
      <trkpt lat="49.45703" lon="1.08262">
        <ele>132.32</ele>
        <time>2018-07-08T15:58:00Z</time>
      </trkpt>
      <trkpt lat="49.45598" lon="1.08228">
        <ele>129.92</ele>
        <time>2018-07-08T15:58:14Z</time>
      </trkpt>
      <trkpt lat="49.4559" lon="1.08232">
        <ele>129.92</ele>
        <time>2018-07-08T15:58:15Z</time>
      </trkpt>
      <trkpt lat="49.45584" lon="1.08238">
        <ele>129.92</ele>
        <time>2018-07-08T15:58:16Z</time>
      </trkpt>
      <trkpt lat="49.45561" lon="1.08263">
        <ele>127.99</ele>
        <time>2018-07-08T15:58:19Z</time>
      </trkpt>
      <trkpt lat="49.45526" lon="1.083">
        <ele>124.63</ele>
        <time>2018-07-08T15:58:23Z</time>
      </trkpt>
      <trkpt lat="49.45509" lon="1.08319">
        <ele>123.67</ele>
        <time>2018-07-08T15:58:25Z</time>
      </trkpt>
      <trkpt lat="49.45479" lon="1.0835">
        <ele>119.82</ele>
        <time>2018-07-08T15:58:28Z</time>
      </trkpt>
      <trkpt lat="49.45449" lon="1.08383">
        <ele>116.94</ele>
        <time>2018-07-08T15:58:31Z</time>
      </trkpt>
      <trkpt lat="49.45438" lon="1.08395">
        <ele>116.94</ele>
        <time>2018-07-08T15:58:32Z</time>
      </trkpt>
      <trkpt lat="49.4541" lon="1.08435">
        <ele>113.09</ele>
        <time>2018-07-08T15:58:35Z</time>
      </trkpt>
      <trkpt lat="49.45386" lon="1.08473">
        <ele>109.73</ele>
        <time>2018-07-08T15:58:38Z</time>
      </trkpt>
      <trkpt lat="49.45367" lon="1.08505">
        <ele>106.36</ele>
        <time>2018-07-08T15:58:41Z</time>
      </trkpt>
      <trkpt lat="49.4535" lon="1.08528">
        <ele>103.96</ele>
        <time>2018-07-08T15:58:44Z</time>
      </trkpt>
      <trkpt lat="49.45341" lon="1.08532">
        <ele>103</ele>
        <time>2018-07-08T15:58:45Z</time>
      </trkpt>
      <trkpt lat="49.4533" lon="1.08534">
        <ele>102.52</ele>
        <time>2018-07-08T15:58:46Z</time>
      </trkpt>
      <trkpt lat="49.4529" lon="1.08539">
        <ele>99.15</ele>
        <time>2018-07-08T15:58:50Z</time>
      </trkpt>
      <trkpt lat="49.45254" lon="1.08535">
        <ele>94.83</ele>
        <time>2018-07-08T15:58:53Z</time>
      </trkpt>
      <trkpt lat="49.45219" lon="1.0852">
        <ele>90.98</ele>
        <time>2018-07-08T15:58:56Z</time>
      </trkpt>
      <trkpt lat="49.45207" lon="1.08512">
        <ele>90.02</ele>
        <time>2018-07-08T15:58:57Z</time>
      </trkpt>
      <trkpt lat="49.45197" lon="1.08501">
        <ele>88.58</ele>
        <time>2018-07-08T15:58:58Z</time>
      </trkpt>
      <trkpt lat="49.45187" lon="1.08488">
        <ele>87.14</ele>
        <time>2018-07-08T15:58:59Z</time>
      </trkpt>
      <trkpt lat="49.45176" lon="1.08473">
        <ele>85.69</ele>
        <time>2018-07-08T15:59:00Z</time>
      </trkpt>
      <trkpt lat="49.45145" lon="1.0843">
        <ele>81.37</ele>
        <time>2018-07-08T15:59:03Z</time>
      </trkpt>
      <trkpt lat="49.45114" lon="1.08395">
        <ele>78</ele>
        <time>2018-07-08T15:59:06Z</time>
      </trkpt>
      <trkpt lat="49.45103" lon="1.08387">
        <ele>76.08</ele>
        <time>2018-07-08T15:59:07Z</time>
      </trkpt>
      <trkpt lat="49.4509" lon="1.08382">
        <ele>74.64</ele>
        <time>2018-07-08T15:59:08Z</time>
      </trkpt>
      <trkpt lat="49.45078" lon="1.0838">
        <ele>73.68</ele>
        <time>2018-07-08T15:59:09Z</time>
      </trkpt>
      <trkpt lat="49.45066" lon="1.08379">
        <ele>72.24</ele>
        <time>2018-07-08T15:59:10Z</time>
      </trkpt>
      <trkpt lat="49.45053" lon="1.08379">
        <ele>71.27</ele>
        <time>2018-07-08T15:59:11Z</time>
      </trkpt>
      <trkpt lat="49.45031" lon="1.08379">
        <ele>67.91</ele>
        <time>2018-07-08T15:59:13Z</time>
      </trkpt>
      <trkpt lat="49.45009" lon="1.08379">
        <ele>64.07</ele>
        <time>2018-07-08T15:59:15Z</time>
      </trkpt>
      <trkpt lat="49.4496" lon="1.08381">
        <ele>60.7</ele>
        <time>2018-07-08T15:59:20Z</time>
      </trkpt>
      <trkpt lat="49.4493" lon="1.08383">
        <ele>57.34</ele>
        <time>2018-07-08T15:59:23Z</time>
      </trkpt>
      <trkpt lat="49.44907" lon="1.08384">
        <ele>54.45</ele>
        <time>2018-07-08T15:59:26Z</time>
      </trkpt>
      <trkpt lat="49.44898" lon="1.08386">
        <ele>53.01</ele>
        <time>2018-07-08T15:59:28Z</time>
      </trkpt>
      <trkpt lat="49.44892" lon="1.08384">
        <ele>53.01</ele>
        <time>2018-07-08T15:59:29Z</time>
      </trkpt>
      <trkpt lat="49.44886" lon="1.08381">
        <ele>53.01</ele>
        <time>2018-07-08T15:59:30Z</time>
      </trkpt>
      <trkpt lat="49.44835" lon="1.08349">
        <ele>51.09</ele>
        <time>2018-07-08T15:59:39Z</time>
      </trkpt>
      <trkpt lat="49.44828" lon="1.08346">
        <ele>50.13</ele>
        <time>2018-07-08T15:59:40Z</time>
      </trkpt>
      <trkpt lat="49.44787" lon="1.08338">
        <ele>46.76</ele>
        <time>2018-07-08T15:59:45Z</time>
      </trkpt>
      <trkpt lat="49.44755" lon="1.08329">
        <ele>43.4</ele>
        <time>2018-07-08T15:59:48Z</time>
      </trkpt>
      <trkpt lat="49.44729" lon="1.08322">
        <ele>40.03</ele>
        <time>2018-07-08T15:59:51Z</time>
      </trkpt>
      <trkpt lat="49.4471" lon="1.08317">
        <ele>37.63</ele>
        <time>2018-07-08T15:59:54Z</time>
      </trkpt>
      <trkpt lat="49.44703" lon="1.08316">
        <ele>37.15</ele>
        <time>2018-07-08T15:59:55Z</time>
      </trkpt>
      <trkpt lat="49.44696" lon="1.08316">
        <ele>36.67</ele>
        <time>2018-07-08T15:59:56Z</time>
      </trkpt>
      <trkpt lat="49.44689" lon="1.08321">
        <ele>36.19</ele>
        <time>2018-07-08T15:59:57Z</time>
      </trkpt>
      <trkpt lat="49.44683" lon="1.08326">
        <ele>36.67</ele>
        <time>2018-07-08T15:59:58Z</time>
      </trkpt>
      <trkpt lat="49.44679" lon="1.08332">
        <ele>35.71</ele>
        <time>2018-07-08T15:59:59Z</time>
      </trkpt>
      <trkpt lat="49.44676" lon="1.08337">
        <ele>35.71</ele>
        <time>2018-07-08T16:00:00Z</time>
      </trkpt>
      <trkpt lat="49.44674" lon="1.08341">
        <ele>35.23</ele>
        <time>2018-07-08T16:00:01Z</time>
      </trkpt>
      <trkpt lat="49.44671" lon="1.0834">
        <ele>35.23</ele>
        <time>2018-07-08T16:00:02Z</time>
      </trkpt>
      <trkpt lat="49.44667" lon="1.08335">
        <ele>34.74</ele>
        <time>2018-07-08T16:00:03Z</time>
      </trkpt>
      <trkpt lat="49.44663" lon="1.08331">
        <ele>34.26</ele>
        <time>2018-07-08T16:00:04Z</time>
      </trkpt>
      <trkpt lat="49.44656" lon="1.08324">
        <ele>33.3</ele>
        <time>2018-07-08T16:00:05Z</time>
      </trkpt>
      <trkpt lat="49.44631" lon="1.08299">
        <ele>28.98</ele>
        <time>2018-07-08T16:00:10Z</time>
      </trkpt>
      <trkpt lat="49.4463" lon="1.08298">
        <ele>28.5</ele>
        <time>2018-07-08T16:00:13Z</time>
      </trkpt>
      <trkpt lat="49.44628" lon="1.08295">
        <ele>28.98</ele>
        <time>2018-07-08T16:00:15Z</time>
      </trkpt>
      <trkpt lat="49.44624" lon="1.08292">
        <ele>28.02</ele>
        <time>2018-07-08T16:00:16Z</time>
      </trkpt>
      <trkpt lat="49.44621" lon="1.08288">
        <ele>27.53</ele>
        <time>2018-07-08T16:00:17Z</time>
      </trkpt>
      <trkpt lat="49.44616" lon="1.08284">
        <ele>27.53</ele>
        <time>2018-07-08T16:00:18Z</time>
      </trkpt>
      <trkpt lat="49.44598" lon="1.08266">
        <ele>26.09</ele>
        <time>2018-07-08T16:00:21Z</time>
      </trkpt>
      <trkpt lat="49.44566" lon="1.08231">
        <ele>22.73</ele>
        <time>2018-07-08T16:00:26Z</time>
      </trkpt>
      <trkpt lat="49.44559" lon="1.08225">
        <ele>22.73</ele>
        <time>2018-07-08T16:00:27Z</time>
      </trkpt>
      <trkpt lat="49.44502" lon="1.08172">
        <ele>19.84</ele>
        <time>2018-07-08T16:00:38Z</time>
      </trkpt>
      <trkpt lat="49.44486" lon="1.08158">
        <ele>19.84</ele>
        <time>2018-07-08T16:00:45Z</time>
      </trkpt>
      <trkpt lat="49.44486" lon="1.08156">
        <ele>19.84</ele>
        <time>2018-07-08T16:00:58Z</time>
      </trkpt>
      <trkpt lat="49.44484" lon="1.08155">
        <ele>19.84</ele>
        <time>2018-07-08T16:00:59Z</time>
      </trkpt>
      <trkpt lat="49.44451" lon="1.08129">
        <ele>19.36</ele>
        <time>2018-07-08T16:01:09Z</time>
      </trkpt>
      <trkpt lat="49.44438" lon="1.08118">
        <ele>18.88</ele>
        <time>2018-07-08T16:01:12Z</time>
      </trkpt>
      <trkpt lat="49.44408" lon="1.08096">
        <ele>18.4</ele>
        <time>2018-07-08T16:01:18Z</time>
      </trkpt>
      <trkpt lat="49.44403" lon="1.08092">
        <ele>18.4</ele>
        <time>2018-07-08T16:01:19Z</time>
      </trkpt>
      <trkpt lat="49.4432" lon="1.08027">
        <ele>16.96</ele>
        <time>2018-07-08T16:01:33Z</time>
      </trkpt>
      <trkpt lat="49.44309" lon="1.08022">
        <ele>16.48</ele>
        <time>2018-07-08T16:01:35Z</time>
      </trkpt>
      <trkpt lat="49.44304" lon="1.08025">
        <ele>16.48</ele>
        <time>2018-07-08T16:01:36Z</time>
      </trkpt>
      <trkpt lat="49.443" lon="1.08031">
        <ele>16.48</ele>
        <time>2018-07-08T16:01:37Z</time>
      </trkpt>
      <trkpt lat="49.44298" lon="1.08038">
        <ele>16.48</ele>
        <time>2018-07-08T16:01:38Z</time>
      </trkpt>
      <trkpt lat="49.44296" lon="1.08047">
        <ele>16.48</ele>
        <time>2018-07-08T16:01:39Z</time>
      </trkpt>
    </trkseg>
  </trk>
</gpx>